[[{"header":{"parameterUnit":"m.s-1","parameterCategory":1,"la1":31.0,"la2":29.5877,"lo1":-88.7671,"lo2":-86.6584,"dy":0.0162,"dx":0.0185,"nx":115,"ny":88,"refTime":"2024-02-11T12:00:00:Z","depth":0,"parameterNumber":2,"parameterNumberName":"U-component_of_WINDS"},"data":[0.0,0.0,0.0,0.0,0.0,0.0,0.0,0.0,0.0,0.0,0.0,0.0,0.0,0.0,0.0,0.0,0.0,0.0,0.0,0.0,0.0,0.0,0.0,0.0,0.0,0.0,0.0,0.0,0.0,0.0,0.0,0.0,0.0,0.0,0.0,0.0,0.0,0.0,0.0,0.0,0.0,0.0,0.0,0.0,0.0,0.0,0.0,0.0,0.0,0.0,0.0,0.0,0.0,0.0,0.0,0.0,0.0,0.0,0.0,0.0,0.0,0.0,0.0,0.0,0.0,0.0,0.0,0.0,0.0,0.0,0.0,0.0,0.0,0.0,0.0,0.0,0.0,0.0,0.0,0.0,0.0,0.0,0.0,0.0,0.0,0.0,0.0,0.0,0.0,0.0,0.0,0.0,0.0,0.0,0.0,0.0,0.0,0.0,0.0,0.0,0.0,0.0,0.0,0.0,0.0,0.0,0.0,0.0,0.0,0.0,0.0,0.0,0.0,0.0,0.0,0.0,0.0,0.0,0.0,0.0,0.0,0.0,0.0,0.0,0.0,0.0,0.0,0.0,0.0,0.0,0.0,0.0,0.0,0.0,0.0,0.0,0.0,0.0,0.0,0.0,0.0,0.0,0.0,0.0,0.0,0.0,0.0,0.0,0.0,0.0,0.0,0.0,0.0,0.0,0.0,0.0,0.0,0.0,0.0,0.0,0.0,0.0,0.0,0.0,0.0,0.0,0.0,0.0,0.0,0.0,0.0,0.0,0.0,0.0,0.0,0.0,0.0,0.0,0.0,0.0,0.0,0.0,0.0,0.0,0.0,0.0,0.0,0.0,0.0,0.0,0.0,0.0,0.0,0.0,0.0,0.0,0.0,0.0,0.0,0.0,0.0,0.0,0.0,0.0,0.0,0.0,0.0,0.0,0.0,0.0,0.0,0.0,0.0,0.0,0.0,0.0,0.0,0.0,0.0,0.0,0.0,0.0,0.0,0.0,0.0,0.0,0.0,0.0,0.0,0.0,0.0,0.0,0.0,0.0,0.0,0.0,0.0,0.0,0.0,0.0,0.0,0.0,0.0,0.0,0.0,0.0,0.0,0.0,0.0,0.0,0.0,0.0,0.0,0.0,0.0,0.0,0.0,0.0,0.0,0.0,0.0,0.0,0.0,0.0,0.0,0.0,0.0,0.0,0.0,0.0,0.0,0.0,0.0,0.0,0.0,0.0,0.0,0.0,0.0,0.0,0.0,0.0,0.0,0.0,0.0,0.0,0.0,0.0,0.0,0.0,0.0,0.0,0.0,0.0,0.0,0.0,0.0,0.0,0.0,0.0,0.0,0.0,0.0,0.0,0.0,0.0,0.0,0.0,0.0,0.0,0.0,0.0,0.0,0.0,0.0,0.0,0.0,0.0,0.0,0.0,0.0,0.0,0.0,0.0,0.0,0.0,0.0,0.0,0.0,0.0,0.0,0.0,0.0,0.0,0.0,0.0,0.0,0.0,0.0,0.0,0.0,0.0,0.0,0.0,0.0,0.0,0.0,0.0,0.0,0.0,0.0,0.0,0.0,0.0,0.0,0.0,0.0,0.0,0.0,0.0,0.0,0.0,0.0,0.0,0.0,0.0,0.0,0.0,0.0,0.0,0.0,0.0,0.0,0.0,0.0,0.0,0.0,0.0,0.0,0.0,0.0,0.0,0.0,0.0,0.0,0.0,0.0,0.0,0.0,0.0,0.0,0.0,0.0,0.0,0.0,0.0,0.0,0.0,0.0,0.0,0.0,0.0,0.0,0.0,0.0,0.0,0.0,0.0,0.0,0.0,0.0,0.0,0.0,0.0,0.0,0.0,0.0,0.0,0.0,0.0,0.0,0.0,0.0,0.0,0.0,0.0,0.0,0.0,0.0,0.0,0.0,0.0,0.0,0.0,0.0,0.0,0.0,0.0,0.0,0.0,0.0,0.0,0.0,0.0,0.0,0.0,0.0,0.0,0.0,0.0,0.0,0.0,0.0,0.0,0.0,0.0,0.0,0.0,0.0,0.0,0.0,0.0,0.0,0.0,0.0,0.0,0.0,0.0,0.0,0.0,0.0,0.0,0.0,0.0,0.0,0.0,0.0,0.0,0.0,0.0,0.0,0.0,0.0,0.0,0.0,0.0,0.0,0.0,0.0,0.0,0.0,0.0,0.0,0.0,0.0,0.0,0.0,0.0,0.0,0.0,0.0,0.0,0.0,0.0,0.0,0.0,0.0,0.0,0.0,0.0,0.0,0.0,0.0,0.0,0.0,0.0,0.0,0.0,0.0,0.0,0.0,0.0,0.0,0.0,0.0,0.0,0.0,0.0,0.0,0.0,0.0,0.0,0.0,0.0,0.0,0.0,0.0,0.0,0.0,0.0,0.0,0.0,0.0,0.0,0.0,0.0,0.0,0.0,0.0,0.0,0.0,0.0,0.0,0.0,0.0,0.0,0.0,0.0,0.0,0.0,0.0,0.0,0.0,0.0,0.0,0.0,0.0,0.0,0.0,0.0,0.0,0.0,0.0,0.0,0.0,0.0,0.0,0.0,0.0,0.0,0.0,0.0,0.0,0.0,0.0,0.0,0.0,0.0,0.0,0.0,0.0,0.0,0.0,0.0,0.0,0.0,0.0,0.0,0.0,0.0,0.0,0.0,0.0,0.0,0.0,0.0,0.0,0.0,0.0,0.0,0.0,0.0,0.0,0.0,0.0,0.0,0.0,0.0,0.0,0.0,0.0,0.0,0.0,0.0,0.0,0.0,0.0,0.0,0.0,0.0,0.0,0.0,0.0,0.0,0.0,0.0,0.0,0.0,0.0,0.0,0.0,0.0,0.0,0.0,0.0,0.0,0.0,0.0,0.0,0.0,0.0,0.0,0.0,0.0,0.0,0.0,0.0,0.0,0.0,0.0,0.0,0.0,0.0,0.0,0.0,0.0,0.0,0.0,0.0,0.0,0.0,0.0,0.0,0.0,0.0,0.0,0.0,0.0,0.0,0.0,0.0,0.0,0.0,0.0,0.0,0.0,0.0,0.0,0.0,0.0,0.0,0.0,0.0,0.0,0.0,0.0,0.0,0.0,0.0,0.0,0.0,0.0,0.0,0.0,0.0,0.0,0.0,0.0,0.0,0.0,0.0,0.0,0.0,0.0,0.0,0.0,0.0,0.0,0.0,0.0,0.0,0.0,0.0,0.0,0.0,0.0,0.0,0.0,0.0,0.0,0.0,0.0,0.0,0.0,0.0,0.0,0.0,0.0,0.0,0.0,0.0,0.0,0.0,0.0,0.0,0.0,0.0,0.0,0.0,0.0,0.0,0.0,0.0,0.0,0.0,0.0,0.0,0.0,0.0,0.0,0.0,0.0,0.0,0.0,0.0,0.0,0.0,0.0,0.0,0.0,0.0,0.0,0.0,0.0,0.0,0.0,0.0,0.0,0.0,0.0,0.0,0.0,0.0,0.0,0.0,0.0,0.0,0.0,0.0,0.0,0.0,0.0,0.0,0.0,0.0,0.0,0.0,0.0,0.0,0.0,0.0,0.0,0.0,0.0,0.0,0.0,0.0,0.0,0.0,0.0,0.0,0.0,0.0,0.0,0.0,0.0,0.0,0.0,0.0,0.0,0.0,0.0,0.0,0.0,0.0,0.0,0.0,0.0,0.0,0.0,0.0,0.0,0.0,0.0,0.0,0.0,0.0,0.0,0.0,0.0,0.0,0.0,0.0,0.0,0.0,0.0,0.0,0.0,0.0,0.0,0.0,0.0,0.0,0.0,0.0,0.0,0.0,0.0,0.0,0.0,0.0,0.0,0.0,0.0,0.0,0.0,0.0,0.0,0.0,0.0,0.0,0.0,0.0,0.0,0.0,0.0,0.0,0.0,0.0,0.0,0.0,0.0,0.0,0.0,0.0,0.0,0.0,0.0,0.0,0.0,0.0,0.0,0.0,0.0,0.0,0.0,0.0,0.0,0.0,0.0,0.0,0.0,0.0,0.0,0.0,0.0,0.0,0.0,0.0,0.0,0.0,0.0,0.0,0.0,0.0,0.0,0.0,0.0,0.0,0.0,0.0,0.0,0.0,0.0,0.0,0.0,0.0,0.0,0.0,0.0,0.0,0.0,0.0,0.0,0.0,0.0,0.0,0.0,0.0,0.0,0.0,0.0,0.0,0.0,0.0,0.0,0.0,0.0,0.0,0.0,0.0,0.0,0.0,0.0,0.0,0.0,0.0,0.0,0.0,0.0,0.0,0.0,0.0,0.0,0.0,0.0,0.3606,0.0,0.0,0.0,0.0,0.0,0.0,0.0,0.0,0.0,0.0,0.0,0.0,0.0,0.0,0.0,0.0,0.0,0.0,0.0,0.0,0.0,0.0,0.0,0.0,0.0,0.0,0.0,0.0,0.0,0.0,0.0,0.0,0.0,0.0,0.0,0.0,0.0,0.0,0.0,0.0,0.0,0.0,0.0,0.0,0.0,0.0,0.0,0.0,0.0,0.0,0.0,0.0,0.0,0.0,0.0,0.0,0.0,0.0,0.0,0.0,0.0,0.0,0.0,0.0,0.0,0.0,0.0,0.0,0.0,0.0,0.0,0.0,0.0,0.0,0.0,0.0,0.0,0.0,0.0,0.0,0.0,0.0,0.0,0.0,0.0,0.0,0.0,0.0,0.0,0.0,0.0,0.0,0.0,0.0,0.0,0.0,0.0,0.0,0.0,0.0,0.0,0.0,0.0,0.0,0.0,0.0,0.0,0.0,0.0,0.0,0.4261,0.4328,0.4178,0.4095,0.4056,0.0,0.0,0.0,0.0,0.0,0.0,0.0,0.0,0.0,0.0,0.0,0.0,0.0,0.0,0.0,0.0,0.0,0.0,0.0,0.0,0.0,0.0,0.0,0.0,0.0,0.0,0.0,0.0,0.0,0.0,0.0,0.0,0.0,0.0,0.0,0.0,0.0,0.0,0.0,0.0,0.0,0.0,0.0,0.0,0.0,0.0,0.0,0.0,0.0,0.0,0.0,0.0,0.0,0.0,0.0,0.0,0.0,0.0,0.0,0.0,0.0,0.0,0.0,0.0,0.0,0.0,0.0,0.0,0.0,0.0,0.0,0.0,0.0,0.0,0.0,0.0,0.0,0.0,0.0,0.0,0.0,0.0,0.0,0.0,0.0,0.0,0.0,0.0,0.0,0.0,0.0,0.0,0.0,0.0,0.0,0.0,0.0,0.0,0.0,0.0,0.0,0.0,0.0,0.0,0.0,0.0,0.0,0.0,0.0,0.0,0.0,0.0,0.4694,0.4605,0.4522,0.0,0.0,0.0,0.0,0.0,0.0,0.0,0.0,0.0,0.0,0.0,0.0,0.0,0.0,0.0,0.0,0.0,0.0,0.0,0.0,0.0,0.0,0.0,0.0,0.0,0.0,0.0,0.0,0.0,0.0,0.0,0.0,0.0,0.0,0.0,0.0,0.0,0.0,0.0,0.0,0.0,0.0,0.0,0.0,0.0,0.0,0.0,0.0,0.0,0.0,0.0,0.0,0.0,0.0,0.0,0.0,0.0,0.0,0.0,0.0,0.0,0.0,0.0,0.0,0.0,0.0,0.0,0.0,0.0,0.0,0.0,0.0,0.0,0.0,0.0,0.0,0.0,0.0,0.0,0.0,0.0,0.0,0.0,0.0,0.0,0.0,0.0,0.0,0.0,0.0,0.0,0.0,0.0,0.0,0.0,0.0,0.0,0.0,0.0,0.0,0.0,0.0,0.0,0.0,0.0,0.0,0.0,0.0,0.0,0.0,0.4778,0.4794,0.4794,0.0,0.5243,0.0,0.0,0.0,0.0,0.0,0.0,0.0,0.0,0.0,0.0,0.0,0.0,0.0,0.0,0.0,0.0,0.0,0.0,0.0,0.0,0.0,0.0,0.0,0.0,0.0,0.0,0.0,0.0,0.0,0.0,0.0,0.0,0.0,0.0,0.0,0.0,0.0,0.0,0.0,0.0,0.0,0.0,0.0,0.0,0.0,0.0,0.0,0.0,0.0,0.0,0.0,0.0,0.0,0.0,0.0,0.0,0.0,0.0,0.0,0.0,0.0,0.0,0.0,0.0,0.0,0.0,0.0,0.0,0.0,0.0,0.0,0.0,0.0,0.0,0.0,0.0,0.0,0.0,0.0,0.0,0.0,0.0,0.0,0.0,0.0,0.0,0.0,0.0,0.0,0.0,0.0,0.0,0.0,0.0,0.0,0.0,0.0,0.0,0.0,0.0,0.0,0.0,0.0,0.0,0.0,0.0,0.0,0.0,0.0,0.0,0.528,0.5273,0.5341,0.5589,0.0,0.0,0.0,0.0,0.0,0.0,0.0,0.0,0.0,0.0,0.0,0.0,0.0,0.0,0.0,0.0,0.0,0.0,0.0,0.0,0.0,0.0,0.0,0.0,0.0,0.0,0.0,0.0,0.0,0.0,0.0,0.0,0.0,0.0,0.0,0.0,0.0,0.0,0.0,0.0,0.0,0.0,0.0,0.0,0.0,0.0,0.0,0.0,0.0,0.0,0.0,0.0,0.0,0.0,0.0,0.0,0.0,0.0,0.0,0.0,0.0,0.0,0.0,0.0,0.0,0.0,0.0,0.0,0.0,0.0,0.0,0.0,0.0,0.0,0.0,0.0,0.0,0.0,0.0,0.0,0.0,0.0,0.0,0.0,0.0,0.0,0.0,0.0,0.0,0.0,0.0,0.0,0.0,0.0,0.0,0.0,0.0,0.0,0.0,0.0,0.0,0.0,0.0,0.0,0.0,0.0,0.0,0.0,0.0,0.0,0.5779,0.5808,0.5825,0.5923,0.6092,0.6331,0.0,0.0,0.0,0.0,0.0,0.0,0.0,0.0,0.0,0.0,0.0,0.0,0.0,0.0,0.0,0.0,0.0,0.0,0.0,0.0,0.0,0.0,0.0,0.0,0.0,0.0,0.0,0.0,0.0,0.0,0.0,0.0,0.0,0.0,0.0,0.0,0.0,0.0,0.0,0.0,0.0,0.0,0.0,0.0,0.0,0.0,0.0,0.0,0.0,0.0,0.0,0.0,0.0,0.0,0.0,0.0,0.0,0.0,0.0,0.0,0.0,0.0,0.0,0.0,0.0,0.0,0.0,0.0,0.0,0.0,0.0,0.0,0.0,0.0,0.0,0.0,0.0,0.0,0.0,0.0,0.0,0.0,0.0,0.0,0.0,0.0,0.0,0.0,0.0,0.0,0.0,0.0,0.0,0.0,0.0,0.0,0.0,0.0,0.0,0.0,0.0,0.0,0.0,0.0,0.0,0.0,0.0,0.0,0.635,0.6358,0.6365,0.6373,0.6383,0.6334,0.0,0.0,0.0,0.0,0.0,0.0,0.0,0.0,0.0,0.0,0.0,0.0,0.0,0.0,0.0,0.0,0.0,0.0,0.0,0.0,0.0,0.0,0.0,0.0,0.0,0.0,0.0,0.0,0.0,0.0,0.0,0.0,0.0,0.0,0.0,0.0,0.0,0.0,0.0,0.0,0.0,0.0,0.0,0.0,0.0,0.0,0.0,0.0,0.0,0.0,0.0,0.0,0.0,0.0,0.0,0.0,0.0,0.0,0.0,0.0,0.0,0.0,0.0,0.0,0.0,0.0,0.0,0.0,0.0,0.0,0.0,0.0,0.0,0.0,0.0,0.0,0.0,0.0,0.0,0.0,0.0,0.0,0.0,0.0,0.0,0.0,0.0,0.0,0.0,0.0,0.0,0.0,0.0,0.0,0.0,0.0,0.0,0.0,0.0,0.0,0.0,0.0,0.0,0.0,0.0,0.0,0.0,0.0,0.0,0.6398,0.6477,0.6644,0.6892,0.6774,0.6762,0.0,0.0,0.0,0.0,0.0,0.0,0.0,0.0,0.0,0.0,0.0,0.0,0.0,0.0,0.0,0.0,0.0,0.0,0.0,0.0,0.0,0.0,0.0,0.0,0.0,0.0,0.0,0.0,0.0,0.0,0.0,0.0,0.0,0.0,0.0,0.0,0.0,0.0,0.0,0.0,0.0,0.0,0.0,0.0,0.0,0.0,0.0,0.0,0.0,0.0,0.0,0.0,0.0,0.0,0.0,0.0,0.0,0.0,0.0,0.0,0.0,0.0,0.0,0.0,0.0,0.0,0.0,0.0,0.0,0.0,0.0,0.0,0.0,0.0,0.0,0.0,0.0,0.0,0.0,0.0,0.0,0.0,0.0,0.0,0.0,0.0,0.0,0.0,0.0,0.0,0.0,0.0,0.0,0.0,0.0,0.0,0.0,0.0,0.0,0.0,0.0,0.0,0.0,0.0,0.0,0.0,0.0,0.0,0.0,0.6841,0.0,0.7049,0.7367,0.7209,0.7127,0.0,0.0,0.0,0.0,0.0,0.0,0.0,0.0,0.0,0.0,0.0,0.0,0.0,0.0,0.0,0.0,0.0,0.0,0.0,0.0,0.0,0.0,0.0,0.0,0.0,0.0,0.0,0.0,0.0,0.0,0.0,0.0,0.0,0.0,0.0,0.0,0.0,0.0,0.0,0.0,0.0,0.0,0.0,0.0,0.0,0.0,0.0,0.0,0.0,0.0,0.0,0.0,0.0,0.0,0.0,0.0,0.0,0.0,0.0,0.0,0.0,0.0,0.0,0.0,0.0,0.0,0.0,0.0,0.0,0.0,0.0,0.0,0.0,0.0,0.0,0.0,0.0,0.0,0.0,0.0,0.0,0.0,0.0,0.0,0.0,0.0,0.0,0.0,0.0,0.0,0.0,0.0,0.0,0.0,0.0,0.0,0.0,0.0,0.0,0.0,0.0,0.0,0.0,0.0,0.0,0.0,0.0,0.0,0.7597,0.776,0.7586,0.7577,0.7788,0.7577,0.7407,0.0,0.0,0.0,0.0,0.0,0.0,0.0,0.0,0.0,0.0,0.0,0.0,0.0,0.0,0.0,0.0,0.0,0.0,0.0,0.0,0.0,0.0,0.0,0.0,0.0,0.0,0.0,0.0,0.0,0.0,0.0,0.0,0.0,0.0,0.0,0.0,0.0,0.0,0.0,0.0,0.0,0.0,0.0,0.0,0.0,0.0,0.0,0.0,0.0,0.0,0.0,0.0,0.0,0.0,0.0,0.0,0.0,0.0,0.0,0.0,0.0,0.0,0.0,0.0,0.0,0.0,0.0,0.0,0.0,0.0,0.0,0.0,0.0,0.0,0.0,0.0,0.0,0.0,0.0,0.0,0.0,0.0,0.0,0.0,0.0,0.0,0.0,0.0,0.0,0.0,0.0,0.0,0.0,0.0,0.0,0.0,0.0,0.0,0.0,0.0,0.0,0.0,0.0,0.0,0.0,0.0,0.0,0.0,0.0,0.7935,0.7878,0.7898,0.7947,0.7784,0.767,0.0,0.0,0.0,0.0,0.0,0.0,0.0,0.0,0.0,0.0,0.0,0.0,0.0,0.0,0.0,0.0,0.0,0.0,0.0,0.0,0.0,0.0,0.0,0.0,0.0,0.0,0.0,0.0,0.0,0.0,0.0,0.0,0.0,0.0,0.0,0.0,0.0,0.0,0.0,0.0,0.0,0.0,0.0,0.0,0.0,0.0,0.0,0.0,0.0,0.0,0.0,0.0,0.0,0.0,0.0,0.0,0.0,0.0,0.0,0.0,0.0,0.0,0.0,0.0,0.0,0.0,0.0,0.0,0.0,0.0,0.0,0.0,0.0,0.0,0.0,0.0,0.0,0.0,0.0,0.0,0.0,0.0,0.0,0.0,0.0,0.0,0.0,0.0,0.0,0.0,0.0,0.0,0.0,0.0,0.0,0.0,0.0,0.0,0.0,0.0,0.0,0.0,0.0,0.0,0.0,0.0,0.0,0.0,0.0,0.8503,0.8325,0.8219,0.824,0.8069,0.7914,0.7804,0.0,0.0,0.0,0.0,0.0,0.0,0.0,0.0,0.0,0.0,0.0,0.0,0.0,0.0,0.0,0.0,0.0,0.0,0.0,0.0,0.0,0.0,0.0,0.0,0.0,0.0,0.0,0.0,0.0,0.0,0.0,0.0,0.0,0.0,0.0,0.0,0.0,0.0,0.0,0.0,0.0,0.0,0.0,0.0,0.0,0.0,0.0,0.0,0.0,0.0,0.0,0.0,0.0,0.0,0.0,0.0,0.0,0.0,0.0,0.0,0.0,0.0,0.0,0.0,0.0,0.0,0.0,0.0,0.0,0.0,0.0,0.0,0.0,0.0,0.0,0.0,0.0,0.0,0.0,0.0,0.0,0.0,0.0,0.0,0.0,0.0,0.0,0.0,0.0,0.0,0.0,0.0,0.0,0.0,0.0,0.0,0.0,0.0,0.0,0.0,0.0,0.0,0.0,0.0,0.0,0.0,0.0,0.0,0.9388,0.8947,0.8694,0.8653,0.8435,0.8167,0.0,0.0,0.0,0.0,0.0,0.0,0.0,0.0,0.0,0.0,0.0,0.0,0.0,0.0,0.0,0.0,0.0,0.0,0.0,0.0,0.0,0.0,0.0,0.0,0.0,0.0,0.0,0.0,0.0,0.0,0.0,0.0,0.0,0.0,0.0,0.0,0.0,0.0,0.0,0.0,0.0,0.0,0.0,0.0,0.0,0.0,0.0,0.0,0.0,0.0,0.0,0.0,0.0,0.0,0.0,0.0,0.0,0.0,0.0,0.0,0.0,0.0,0.0,0.0,0.0,0.0,0.0,0.0,0.0,0.0,0.0,0.0,0.0,0.0,0.0,0.0,0.0,0.0,0.0,0.0,0.0,0.0,0.0,0.0,0.0,0.0,0.0,0.0,0.0,0.0,0.0,0.0,0.0,0.0,0.0,0.0,0.0,0.0,0.0,0.0,0.0,0.0,0.0,0.0,0.0,0.0,0.0,0.0,0.0,0.9551,0.9698,0.96,0.9208,0.8745,0.8476,0.0,0.0,0.0,0.0,0.0,0.0,0.0,0.0,0.0,0.0,0.0,0.0,0.0,0.0,0.0,0.0,0.0,0.0,0.0,0.0,0.0,0.0,0.0,0.0,0.0,0.0,0.0,0.0,0.0,0.0,0.0,0.0,0.0,0.0,0.0,0.0,0.0,0.0,0.0,0.0,0.0,0.0,0.0,0.0,0.0,0.0,0.0,0.0,0.0,0.0,0.0,0.0,0.0,0.0,0.0,0.0,0.0,0.0,0.0,0.0,0.0,0.0,0.0,0.0,0.0,0.0,0.0,0.0,0.0,0.0,0.0,0.0,0.0,0.0,0.0,0.0,0.0,0.0,0.0,0.0,0.0,0.0,0.0,0.0,0.0,0.0,0.0,0.0,0.0,0.0,0.0,0.0,0.0,0.0,0.0,0.0,0.0,0.0,0.0,0.0,0.0,0.0,0.0,0.0,0.0,0.0,0.0,0.0,0.973,0.994,1.0168,1.0128,0.9811,0.9291,0.8901,0.0,0.0,0.0,0.0,0.0,0.0,0.0,0.0,0.0,0.0,0.0,0.0,0.0,0.0,0.0,0.0,0.0,0.0,0.0,0.0,0.0,0.0,0.0,0.0,0.0,0.0,0.0,0.0,0.0,0.0,0.0,0.0,0.0,0.0,0.0,0.0,0.0,0.0,0.0,0.0,0.0,0.0,0.0,0.0,0.0,0.0,0.0,0.0,0.0,0.0,0.0,0.0,0.0,0.0,0.0,0.0,0.0,0.0,0.0,0.0,0.0,0.0,0.0,0.0,0.0,0.0,0.0,0.0,0.0,0.0,0.0,0.0,0.0,0.0,0.0,0.0,0.0,0.0,0.0,0.0,0.0,0.0,0.0,0.0,0.0,0.0,0.0,0.0,0.0,0.0,0.0,0.0,0.0,0.0,0.0,0.0,0.0,0.0,0.0,0.0,0.0,0.0,0.0,0.0,0.0,0.0,0.0,0.0,1.0103,1.0458,1.0482,1.049,1.0474,0.9915,0.9372,0.0,0.0,0.0,0.0,0.0,0.0,0.0,0.0,0.0,0.0,0.0,0.0,0.0,0.0,0.0,0.0,0.0,0.0,0.0,0.0,0.0,0.0,0.0,0.0,0.0,0.0,0.0,0.0,0.0,0.0,0.0,0.0,0.0,0.0,0.0,0.0,0.0,0.0,0.0,0.0,0.0,0.0,0.0,0.0,0.0,0.0,0.0,0.0,0.0,0.0,0.0,0.0,0.0,0.0,0.0,0.0,0.0,0.0,0.0,0.0,0.0,0.0,0.0,0.0,0.0,0.0,0.0,0.0,0.0,0.0,0.0,0.0,0.0,0.0,0.0,0.0,0.0,0.0,0.0,0.0,0.0,0.0,0.0,0.0,0.0,0.0,0.0,0.0,0.0,0.0,0.0,0.0,0.0,0.0,0.0,0.0,0.0,0.0,0.0,0.0,0.0,0.0,0.0,0.0,0.0,0.0,0.0,0.0,1.0373,1.087,1.098,1.1025,1.1017,1.0102,0.9551,0.0,0.0,0.0,0.0,0.0,0.0,0.0,0.0,0.0,0.0,0.0,0.0,0.0,0.0,0.0,0.0,0.0,0.0,0.0,0.0,0.0,0.0,0.0,0.0,0.0,0.0,0.0,0.0,0.0,0.0,0.0,0.0,0.0,0.0,0.0,0.0,0.0,0.0,0.0,0.0,0.0,0.0,0.0,0.0,0.0,0.0,0.0,0.0,1.2132,0.0,0.0,0.0,0.0,0.0,0.0,0.0,0.0,0.0,0.0,0.0,0.0,0.0,0.0,0.0,0.0,0.0,0.0,0.0,0.0,0.0,0.0,0.0,0.0,0.0,0.0,0.0,0.0,0.0,0.0,0.0,0.0,0.0,0.0,0.0,0.0,0.0,0.0,0.0,0.0,0.0,0.0,0.0,0.0,0.0,0.0,0.0,0.0,0.0,0.0,0.0,0.0,0.0,0.0,0.0,0.0,0.0,0.0,0.0,1.0658,1.1098,1.1175,1.1195,1.1171,1.0599,1.0136,0.0,0.0,0.0,0.0,0.0,0.0,0.0,0.0,0.0,0.0,0.0,0.0,0.0,0.0,0.0,0.0,0.0,0.0,0.0,0.0,0.0,0.0,0.0,0.0,0.0,0.0,0.0,0.0,0.0,0.0,0.0,0.0,0.0,0.0,0.0,0.0,0.0,0.0,0.0,0.0,0.0,0.0,0.0,0.0,0.0,0.0,0.0,0.0,0.0,0.0,0.0,0.0,0.0,0.0,0.0,0.0,0.0,0.0,0.0,0.0,0.0,0.0,0.0,0.0,0.0,0.0,0.0,0.0,0.0,0.0,0.0,0.0,0.0,0.0,0.0,0.0,0.0,0.0,0.0,0.0,0.0,0.0,0.0,0.0,0.0,0.0,0.0,0.0,0.0,0.0,0.0,0.0,0.0,0.0,0.0,0.0,0.0,0.0,0.0,0.0,0.0,0.0,0.0,0.0,0.0,0.0,0.0,1.0577,1.0923,1.126,1.1305,1.1276,1.1305,1.1135,1.0821,1.0284,0.0,0.0,0.0,0.0,0.0,0.0,0.0,0.0,0.0,0.0,0.0,0.0,0.0,0.0,0.0,0.0,0.0,0.0,0.0,0.0,0.0,0.0,0.0,0.0,0.0,0.0,0.0,0.0,0.0,0.0,0.0,0.0,0.0,0.0,0.0,0.0,0.0,0.0,0.9731,0.9877,0.0,0.0,0.0,0.0,0.0,0.0,0.0,0.0,1.0895,0.0,0.0,0.0,0.0,0.0,0.0,0.0,0.0,0.0,0.0,0.0,0.0,0.0,0.0,0.0,0.0,0.0,0.0,0.0,0.0,0.0,0.0,0.0,0.0,0.0,0.0,0.0,0.0,0.0,0.0,0.0,0.0,0.0,0.0,0.0,0.0,0.0,0.0,0.0,0.0,0.0,0.0,0.0,0.0,0.0,0.0,0.0,0.0,0.0,0.0,0.0,0.0,0.0,0.0,0.0,0.0,1.0379,1.0737,1.1204,1.1701,1.1687,1.1687,1.1709,1.1508,1.1159,1.0615,0.0,0.0,0.0,0.0,0.0,0.0,0.0,0.0,0.0,0.0,0.0,0.0,0.0,0.0,0.0,0.0,0.0,0.0,0.0,0.0,0.0,0.0,0.0,0.0,0.0,0.0,0.0,0.0,0.0,0.0,0.0,0.0,0.0,0.0,0.0,0.0,0.0,0.0,0.0,1.0129,0.9912,0.0,0.0,0.0,0.0,0.0,0.0,0.0,0.0,1.0631,0.0,0.0,0.0,0.0,0.0,0.0,0.0,0.0,0.0,0.0,0.0,0.0,0.0,0.0,0.0,0.0,0.0,0.0,0.0,0.0,0.0,0.0,0.0,0.0,0.0,0.0,0.0,0.0,0.0,0.0,0.0,0.0,0.0,0.0,0.0,0.0,0.0,0.0,0.0,0.0,0.0,0.0,0.0,0.0,0.0,0.0,0.0,0.0,0.0,0.0,0.0,0.0,0.0,0.0,0.0,1.0531,1.1013,1.1448,1.179,1.1806,1.1806,1.1798,1.1598,1.1248,0.0,0.0,0.0,0.0,0.0,0.0,0.0,0.0,0.0,0.0,0.0,0.0,0.0,0.0,0.0,0.0,0.0,0.0,0.0,0.0,0.0,0.0,0.0,0.0,0.0,0.0,0.0,0.0,0.0,0.0,0.0,0.0,0.0,0.0,0.0,0.0,0.0,0.0,0.0,0.0,1.0314,1.0052,0.9871,0.0,0.0,0.0,0.0,0.0,0.0,1.0552,1.0724,0.0,0.0,0.0,0.0,0.0,0.0,0.0,0.0,0.0,0.0,0.0,0.0,0.0,0.0,0.0,0.0,0.0,0.0,0.0,0.0,0.0,0.0,0.0,0.0,0.0,0.0,0.0,0.0,0.0,0.0,0.0,0.0,0.0,0.0,0.0,0.0,0.0,0.0,0.0,0.0,0.0,0.0,0.0,0.0,0.0,0.0,0.0,0.0,0.0,0.0,0.0,0.0,0.0,0.0,0.0,1.0688,1.1224,1.1619,1.1798,1.1806,1.1806,1.1798,1.1557,1.1208,0.0,0.0,0.0,0.0,0.0,0.0,0.0,0.0,0.0,0.0,0.0,0.0,0.0,0.0,0.0,0.0,0.0,0.0,0.0,0.0,0.0,0.0,0.0,0.0,0.0,0.0,0.0,0.0,0.0,0.0,0.0,0.0,0.0,0.0,0.0,0.0,0.0,0.0,0.0,0.0,0.0,1.025,0.98,0.973,0.0,0.0,0.0,0.0,0.961,1.029,0.0,0.0,0.0,0.0,0.0,0.0,0.0,0.0,0.0,0.0,0.0,0.0,0.0,0.0,0.0,0.0,0.0,0.0,0.0,0.0,0.0,0.0,0.0,0.0,0.0,0.0,0.0,0.0,0.0,0.0,0.0,0.0,0.0,0.0,0.0,0.0,0.0,0.0,0.0,0.0,0.0,0.0,0.0,0.0,0.0,0.0,0.0,0.0,0.0,0.0,0.0,0.0,0.0,0.0,0.0,0.0,1.0696,1.1224,1.1589,1.1798,1.1806,1.1806,1.1798,1.1435,1.1049,0.0,0.0,0.0,0.0,0.0,0.0,0.0,0.0,0.0,0.0,0.0,0.0,0.0,0.0,0.0,0.0,0.0,0.0,0.0,0.0,0.0,0.0,0.0,0.0,0.0,0.0,0.0,0.0,0.0,0.0,0.0,0.0,0.0,0.0,0.0,0.0,0.0,0.0,0.0,0.0,0.0,1.0587,0.988,0.9642,0.959,0.0,0.0,0.9513,0.9567,0.9701,0.0,0.0,0.0,0.0,0.0,0.0,0.0,0.0,0.0,0.0,0.0,0.0,0.0,0.0,0.0,0.0,0.0,0.0,0.0,0.0,0.0,0.0,0.0,0.0,0.0,0.0,0.0,0.0,0.0,0.0,0.0,0.0,0.0,0.0,0.0,0.0,0.0,0.0,0.0,0.0,0.0,0.0,0.0,0.0,0.0,0.0,0.0,0.0,0.0,0.0,0.0,0.0,0.0,0.0,0.0,1.0493,1.0878,1.1407,1.1725,1.1806,1.1806,1.1806,1.1806,1.1419,1.1025,0.0,0.0,0.0,0.0,0.0,0.0,0.0,0.0,0.0,0.0,0.0,0.0,0.0,0.0,0.0,0.0,0.0,0.0,0.0,0.0,0.0,0.0,0.0,0.0,0.0,0.0,0.0,0.0,0.0,0.0,0.0,0.0,0.0,0.0,0.0,0.0,0.0,0.0,0.0,0.0,0.0,0.0,0.9866,0.9718,0.0,0.0,0.0,0.9853,0.9551,0.0,0.0,0.0,0.0,0.0,0.0,0.0,0.0,0.0,0.0,0.0,0.0,0.0,0.0,0.0,0.0,0.0,0.0,0.0,0.0,0.0,0.0,0.0,0.0,0.0,0.0,0.0,0.0,0.0,0.0,0.0,0.0,0.0,0.0,0.0,0.0,0.0,0.0,0.0,0.0,0.0,0.0,0.0,0.0,0.0,0.0,0.0,0.0,0.0,0.0,0.0,0.0,0.0,0.0,0.0,0.0,0.0,1.1,1.153,1.1806,1.1806,1.1806,1.1806,1.1798,1.1419,0.0,0.0,0.0,0.0,0.0,0.0,0.0,0.0,0.0,0.0,0.0,0.0,0.0,0.0,0.0,0.0,0.0,0.0,0.0,0.0,0.0,0.0,0.0,0.0,0.0,0.0,0.0,0.9883,0.0,0.0,0.0,0.0,0.0,0.0,0.0,0.0,0.0,0.0,0.0,0.0,0.0,0.0,1.0307,0.9954,0.9838,0.9683,0.0,0.0,1.0081,0.9591,0.997,1.0252,0.0,0.0,0.0,0.0,0.0,0.0,0.0,0.0,0.0,0.0,0.0,0.0,0.0,0.0,0.0,0.0,0.0,0.0,0.0,0.0,0.0,0.0,0.0,0.0,0.0,0.0,0.0,0.0,0.0,0.0,0.0,0.0,0.0,0.0,0.0,0.0,0.0,0.0,0.0,0.0,0.0,0.0,0.0,0.0,0.0,0.0,0.0,0.0,0.0,0.0,0.0,0.0,0.0,0.0,0.0,1.1008,1.153,1.1806,1.1806,1.1806,1.1806,1.1798,1.1411,1.1135,0.0,0.0,0.0,0.0,0.0,0.0,0.0,0.0,0.0,0.0,0.0,0.0,0.0,0.0,0.0,0.0,0.0,0.0,0.0,0.0,0.0,0.0,0.0,0.0,0.0,0.0,0.0,0.0,0.0,0.0,0.0,0.0,0.0,0.0,0.0,0.0,0.0,0.0,0.0,0.0,0.0,1.0634,1.0306,0.9871,0.9639,0.0,0.0,0.9675,0.9744,0.9825,0.982,0.983,0.0,0.0,0.0,0.0,0.0,0.0,0.0,0.0,0.0,0.0,0.0,0.0,0.0,0.0,0.0,0.0,0.0,0.0,0.0,0.0,0.0,0.0,0.0,0.0,0.0,0.0,0.0,0.0,0.0,0.0,0.0,0.0,0.0,0.0,0.0,0.0,0.0,0.0,0.0,0.0,0.0,0.0,0.0,0.0,0.0,0.0,0.0,0.0,0.0,0.0,0.0,0.0,0.0,1.0834,1.1126,1.1587,1.1806,1.1806,1.1806,1.1806,1.1806,1.1524,1.1265,0.0,0.0,0.0,0.0,0.0,0.0,0.0,0.0,0.0,0.0,0.0,0.0,0.0,0.0,0.0,0.0,0.0,0.0,0.0,0.0,0.0,0.0,0.0,0.0,0.0,0.0,0.0,0.0,1.0885,1.156,1.1994,0.0,0.0,0.0,0.0,0.0,0.0,0.0,0.0,0.0,0.0,1.0444,1.0157,0.9884,0.0,0.0,0.9774,0.9761,0.9785,0.9792,0.9814,0.9905,0.9925,0.0,0.0,0.0,0.0,0.0,0.0,0.0,0.0,0.0,0.0,0.0,0.0,0.0,0.0,0.0,0.0,0.0,0.0,0.0,0.0,0.0,0.0,0.0,0.0,0.0,0.0,0.0,0.0,0.0,0.0,0.0,0.0,0.0,0.0,0.0,0.0,0.0,0.0,0.0,0.0,0.0,0.0,0.0,0.0,0.0,0.0,0.0,0.0,0.0,0.0,0.0,0.0,1.0923,1.1195,1.1589,1.1806,1.1806,1.1806,1.1806,1.1798,1.1598,1.1386,0.0,0.0,0.0,0.0,0.0,0.0,0.0,0.0,0.0,0.0,0.0,0.0,0.0,0.0,0.0,0.0,0.0,0.0,0.0,0.0,0.0,0.0,0.0,0.0,0.0,0.0,0.0,0.0,1.0909,1.1567,1.1766,0.0,0.0,0.0,0.0,0.0,0.0,0.0,0.0,0.0,0.0,1.0207,1.0015,0.9877,0.9792,0.9792,0.9792,0.9792,0.9792,0.9792,0.9835,0.987,0.0,0.0,0.0,0.0,0.0,0.0,0.0,0.0,0.0,0.0,0.0,0.0,0.0,0.0,0.0,0.0,0.0,0.0,0.0,0.0,0.0,0.0,0.0,0.0,0.0,0.0,0.0,0.0,0.0,0.0,0.8797,0.0,0.0,0.0,0.0,0.0,0.0,0.0,0.0,0.0,0.0,0.0,0.0,0.0,0.0,0.0,0.0,0.0,0.0,0.0,0.0,0.0,0.0,1.1074,1.1195,1.1589,1.1806,1.1806,1.1806,1.1806,1.1798,1.1627,1.15,1.1476,0.0,0.0,0.0,0.0,0.0,0.0,0.0,0.0,0.0,0.0,0.0,0.0,0.0,0.0,0.0,0.0,0.0,0.0,0.0,0.0,0.0,0.0,0.0,0.0,0.0,0.0,1.0011,1.1583,1.2522,0.0,0.0,0.0,0.0,0.0,0.0,0.0,0.0,0.0,0.0,1.0262,1.0013,0.9991,0.9877,0.9792,0.9792,0.9792,0.9792,0.9792,0.9792,0.9744,0.0,0.0,0.0,0.0,0.0,0.0,0.0,0.0,0.0,0.0,0.0,0.0,0.0,0.0,0.0,0.0,0.0,0.0,0.0,0.0,0.0,0.0,0.0,0.0,0.0,0.0,0.0,0.9079,0.9453,0.0,0.0,0.0,0.0,0.0,0.0,0.0,0.0,0.0,0.0,0.0,1.1126,1.0899,0.0,0.0,0.0,0.0,0.0,0.0,0.0,0.0,0.0,0.0,0.0,0.0,1.1139,1.1403,1.1684,1.1806,1.1806,1.1806,1.1806,1.1806,1.1711,1.1565,1.1321,0.0,0.0,0.0,0.0,0.0,0.0,0.0,0.0,0.0,0.0,0.0,0.0,0.0,0.0,0.0,0.0,0.0,0.0,0.0,0.0,0.0,0.0,0.0,0.0,0.0,0.9995,0.0,0.0,0.0,0.0,0.0,0.0,0.0,0.0,0.0,0.0,0.0,1.0339,1.0213,1.0098,0.9967,0.9884,0.9818,0.9825,0.0,0.0,0.0,0.0,0.0,0.0,0.0,0.0,0.0,0.0,0.0,0.0,0.0,0.0,0.951,0.9395,0.9433,0.9481,0.9507,0.0,0.0,0.0,0.0,0.0,0.0,0.0,0.0,0.0,0.0,0.0,0.0,0.0,0.0,0.0,0.0,1.0322,0.0,0.0,0.0,0.0,0.0,0.0,0.0,0.0,1.1411,1.1557,1.1768,1.1476,1.1395,0.0,1.1208,1.0834,0.0,0.0,0.0,0.0,0.0,0.0,0.0,0.0,1.1293,1.15,1.1736,1.1841,1.1815,1.1833,1.1863,1.1806,1.1806,1.163,1.133,1.1151,1.0894,0.0,0.0,0.0,0.0,0.0,0.0,0.0,0.0,0.0,0.0,0.0,0.0,0.0,0.0,0.0,0.0,0.0,0.0,0.0,0.0,0.0,0.0,0.0,0.999,0.0,0.0,0.0,0.0,0.0,0.0,0.0,0.0,0.0,1.0398,1.0318,1.0215,1.0123,1.0058,0.9956,0.9815,0.0,0.0,0.0,0.0,0.0,0.0,0.0,0.9866,0.9866,0.9869,0.9856,0.9866,0.9866,0.9852,0.9798,0.0,0.0,0.961,0.9681,0.9724,0.9724,0.9838,0.9924,0.9924,0.9981,1.0045,0.0,0.0,0.0,0.0,0.0,0.0,0.0,0.0,1.1,1.1,0.0,1.1138,0.0,0.0,0.0,0.0,0.0,0.0,0.0,0.0,1.2215,1.232,1.2312,1.2142,1.2021,1.2044,1.1882,1.1815,1.1766,1.1078,0.0,0.0,0.0,0.0,0.0,0.0,1.1516,1.1549,1.1866,1.1963,1.1839,1.1955,1.1955,1.1823,1.1815,1.1695,1.1508,1.1309,1.1138,1.1017,1.0539,0.0,0.0,0.0,0.0,0.0,0.0,0.0,0.0,0.0,0.0,0.0,0.0,0.0,0.0,0.0,0.0,0.0,0.0,0.0,0.0,0.9235,0.0,0.0,0.0,0.0,0.0,0.0,0.0,0.0,0.0,0.0,0.9972,0.9989,1.0077,1.0249,0.0,0.0,0.0,0.0,0.9967,0.9839,0.9812,0.9812,0.9849,0.9934,0.9997,0.999,0.0,0.0,1.0055,1.0004,1.0001,0.9852,0.9961,0.9963,0.9761,0.9768,0.9822,0.9822,1.0058,1.0284,1.0315,1.0445,1.0611,1.1302,0.0,0.0,0.0,0.0,1.0461,1.0802,1.1346,1.1346,1.1492,1.1727,1.1746,0.0,0.0,0.0,0.0,0.0,0.0,1.2069,1.241,1.2499,1.2661,1.2856,1.2653,1.2572,1.2564,1.2426,1.2303,1.215,1.1947,1.1654,1.1273,0.0,0.0,0.0,0.0,1.1825,1.206,1.2174,1.2207,1.2158,1.2207,1.2111,1.1963,1.1841,1.1782,1.1695,1.1646,1.1533,1.1354,1.107,0.0,0.0,0.0,0.0,0.0,0.0,0.0,0.0,0.0,0.0,0.0,0.0,0.0,0.0,0.0,0.0,0.0,0.0,0.0,0.9646,0.9915,0.9942,0.0,0.0,0.0,0.0,0.0,0.0,0.0,0.0,0.0,0.9979,0.9926,0.9895,0.0,0.0,0.9879,0.9947,0.9988,1.0076,1.0276,0.0,0.0,0.0,1.0249,1.0215,1.0215,1.0369,1.0444,1.0371,1.042,1.0481,1.0434,1.0461,1.0182,0.9198,0.9614,1.0074,1.0179,1.0242,1.0304,1.0304,1.0374,1.0399,1.2328,1.1614,1.1273,1.1269,1.1456,1.1464,1.1744,1.2279,1.2247,1.232,1.2426,1.2499,1.2426,1.2199,1.2199,0.0,0.0,0.0,1.2605,1.2914,1.2914,1.3003,1.3189,1.31,1.3051,1.3043,1.2898,1.2718,1.2621,1.2475,1.2247,1.1922,0.0,0.0,1.1979,1.1987,1.2093,1.2264,1.2377,1.2377,1.2312,1.2304,1.2255,1.2111,1.2036,1.1955,1.1882,1.1874,1.1792,1.1614,1.1427,1.1122,0.0,0.0,0.0,0.0,0.0,0.0,0.0,0.0,0.0,0.0,0.0,0.907,0.8772,0.0,0.0,0.0,0.9227,0.9553,0.9816,1.0017,0.0,0.0,0.0,0.0,0.0,0.0,0.0,0.967,0.987,1.0022,1.0107,1.0059,1.0025,1.008,1.0086,1.01,1.0134,0.0,1.027,1.0392,1.0337,1.031,1.0392,1.0417,1.0417,1.0446,1.0521,1.0582,1.0588,1.0663,1.0717,1.0658,1.0232,0.96,0.8783,0.8739,0.8782,0.8794,0.8799,0.8788,0.8776,0.8797,0.878,1.3124,1.3068,1.2247,1.2214,1.2653,1.2661,1.2938,1.3402,1.3394,1.3313,1.3166,1.3329,1.3189,1.2848,1.2848,0.0,1.2856,1.3043,1.3214,1.3392,1.3392,1.3401,1.3417,1.3451,1.3435,1.3419,1.3222,1.3133,1.3092,1.28,1.2637,1.2637,1.2434,1.2345,1.2328,1.232,1.2337,1.2353,1.2539,1.2539,1.2353,1.2305,1.2265,1.2265,1.2249,1.2129,1.1999,1.199,1.1949,1.1855,1.1654,1.1476,1.1252,0.0,0.0,0.0,0.0,0.0,0.0,0.0,0.0,0.0,0.0,0.0,0.0,0.0,0.0,0.0,0.925,0.0,0.9681,0.9831,0.0,0.0,0.0,0.9464,0.9435,0.9571,0.9713,0.9812,0.0,0.0,1.0297,0.0,1.0385,1.0527,1.0546,1.0485,1.0351,1.0446,1.0487,1.0432,1.0385,1.0417,1.0487,1.0548,1.0636,1.0738,1.0718,1.0698,1.0492,1.0465,1.0525,1.0198,0.9272,0.834,0.8264,0.7152,0.6306,0.6202,0.6403,0.6574,0.6685,0.6698,0.6703,1.3384,1.3447,1.3133,1.3101,1.3215,1.3215,1.3288,1.3402,1.3402,1.3378,1.3345,1.3386,1.3353,1.328,1.328,1.3246,1.3246,1.3321,1.3409,1.3544,1.3544,1.3652,1.3774,1.3774,1.3709,1.3544,1.3496,1.3407,1.3329,1.3076,1.297,1.2995,1.2791,1.2637,1.2539,1.2531,1.2572,1.2678,1.2718,1.2751,1.2678,1.2282,1.2082,1.205,1.167,1.1593,1.1831,1.1831,1.194,1.2182,1.2134,1.2028,1.1811,1.1459,0.0,0.0,0.0,0.0,0.0,0.0,0.0,0.0,0.0,1.0084,0.9737,0.0,1.0156,0.0,1.0252,1.04,1.0303,1.0325,0.0,0.0,0.9792,0.9859,0.9859,1.0025,1.0134,1.0199,1.0297,1.0446,1.0595,1.0684,1.0839,1.1009,1.0744,1.0561,1.0718,1.0786,1.088,1.107,1.1138,1.1172,1.124,1.1226,1.1145,1.1104,1.1056,1.068,0.9474,0.9268,0.8885,0.778,0.7242,0.6615,0.5677,0.511,0.4526,0.3723,0.4955,0.6425,0.6434,0.6401,0.6392,1.3311,1.3366,1.341,1.3402,1.3402,1.3402,1.3417,1.349,1.349,1.3539,1.3612,1.3604,1.3563,1.3498,1.3571,1.3563,1.3498,1.3571,1.366,1.3758,1.3723,1.3779,1.3896,1.3904,1.3855,1.3758,1.365,1.3552,1.349,1.3337,1.3256,1.3214,1.3124,1.2978,1.2841,1.2759,1.2735,1.2799,1.2799,1.2799,1.2799,1.2342,1.2132,1.2124,1.1715,1.1535,1.1652,1.1812,1.194,1.2059,1.2209,1.2223,1.2005,1.1768,1.1459,0.0,0.0,0.0,0.0,0.0,0.0,0.0,0.0,0.0,0.0,0.0,1.0665,1.0723,1.1077,1.1179,1.0971,1.1022,1.0854,1.0279,1.0265,1.0319,1.0319,1.0447,1.0542,1.0575,1.0643,1.0751,1.09,1.0989,1.1124,1.137,1.1206,1.1097,1.1103,1.1164,1.1272,1.1463,1.1491,1.1518,1.1577,1.1552,1.1463,1.1389,1.1404,1.0815,0.927,0.8938,0.8398,0.6856,0.5999,0.5357,0.4526,0.3843,0.3175,0.2759,0.3428,0.4414,0.4538,0.4541,0.4535,1.3092,1.3108,1.3246,1.3353,1.337,1.3345,1.3433,1.3609,1.3633,1.3714,1.3872,1.3888,1.3807,1.3617,1.3823,1.3823,1.3658,1.3831,1.3904,1.3904,1.3904,1.3904,1.3904,1.3904,1.3904,1.3896,1.3714,1.3642,1.3633,1.349,1.3435,1.3443,1.3384,1.3321,1.3133,1.2978,1.2848,1.2807,1.2799,1.2766,1.2733,1.2412,1.2213,1.214,1.185,1.1611,1.147,1.1755,1.188,1.1813,1.2059,1.213,1.1954,1.1847,1.1627,0.0,1.111,0.0,0.0,0.0,0.0,0.0,0.0,0.0,0.0,1.0808,1.1012,1.1394,1.1682,1.1771,1.151,1.1636,1.1453,1.0811,1.0751,1.0744,1.0724,1.0819,1.088,1.088,1.0928,1.1002,1.1234,1.1268,1.1397,1.1626,1.1739,1.1719,1.1579,1.1606,1.1674,1.1701,1.1721,1.1746,1.1676,1.1504,1.1303,1.1283,1.0945,1.0426,0.8632,0.8362,0.7896,0.623,0.4882,0.4144,0.4123,0.3096,0.2358,0.226,0.2373,0.2417,0.2405,0.2464,0.2185,1.3092,1.3084,1.2945,1.3019,1.3133,1.2994,1.3172,1.3617,1.3755,1.3755,1.3666,1.3804,1.3807,1.3625,1.3823,1.388,1.3855,1.3888,1.3904,1.3904,1.3904,1.3904,1.3904,1.3904,1.3904,1.3896,1.3863,1.3855,1.3847,1.3642,1.3561,1.3552,1.3441,1.3386,1.3353,0.0,0.0,0.0,1.2799,1.2675,1.2379,1.2074,1.1743,1.1413,1.1082,0.0,1.1238,1.1336,1.1487,1.1793,1.1851,0.0,0.0,0.0,0.0,0.0,0.0,0.0,0.0,0.0,0.0,0.0,1.1271,1.121,1.1892,1.1971,1.2014,1.211,1.1878,1.1655,1.145,1.1338,1.1204,1.0921,1.0874,1.0826,1.0711,1.0826,1.088,1.088,1.105,1.1233,1.1491,1.1633,1.1769,1.1945,1.2108,1.2176,1.2084,1.1989,1.2064,1.2135,1.2072,1.2233,1.2176,1.097,1.0084,0.9878,0.876,0.748,0.6087,0.5674,0.5057,0.3604,0.2944,0.2789,0.2755,0.2467,0.2316,0.2288,0.2277,0.2259,0.221,0.2181,0.2196,1.3264,0.0,1.3141,1.3149,0.0,1.3141,1.3254,1.3471,1.3506,1.3506,1.3514,1.3604,1.3636,1.3609,1.3698,1.3823,1.3904,1.4002,1.4034,1.4042,1.4123,1.4128,1.4128,1.4164,1.4164,1.4164,1.4164,1.4115,1.4034,1.3953,1.3863,1.3739,1.3677,1.3595,1.3506,1.3417,1.3279,1.31,1.2844,1.2629,1.2429,1.1854,1.1413,1.1181,0.0,0.0,0.0,0.0,0.0,0.0,0.0,0.0,0.0,0.0,0.0,1.1361,1.1246,1.1294,1.1449,1.1082,1.1101,1.1688,1.1586,1.1649,1.2004,1.2129,1.2252,1.2503,1.2275,1.2063,1.1847,1.1627,1.1341,1.1077,1.1056,1.1023,1.0968,1.1077,1.1199,1.1239,1.1341,1.1504,1.1803,1.1898,1.2006,1.2155,1.2298,1.2041,1.1427,1.1829,1.2121,1.1344,1.1207,1.0916,1.0053,0.93,0.8664,0.8425,0.7876,0.667,0.5114,0.4842,0.433,0.2821,0.2401,0.239,0.2363,0.2354,0.2346,0.2281,0.212,0.1998,0.1967,0.1967,0.1938,1.3435,1.3402,1.3402,1.3402,1.3402,1.3402,1.3402,1.3394,0.0,0.0,0.0,1.3467,1.353,1.3609,1.3642,1.3731,1.3904,1.4058,1.4123,1.4168,1.427,1.4298,1.4335,1.4298,1.4306,1.4298,1.4306,1.427,1.4168,1.4131,1.405,1.3912,1.3904,1.3831,1.365,1.3539,1.35,1.3457,1.3008,1.2668,1.2525,1.1799,1.1333,1.1199,1.0932,1.0785,1.0725,1.0991,1.1143,1.1122,1.1413,1.1538,1.1344,1.1361,1.1342,1.1185,1.117,1.1185,1.1278,1.1081,1.1081,1.134,1.1681,1.1862,1.1865,1.194,1.2144,1.2549,1.2456,1.2289,1.2116,1.1792,1.1434,1.1193,1.1138,1.1125,1.1159,1.1233,1.1243,1.1174,1.108,1.1138,1.1057,1.1064,1.1283,1.1378,1.1237,1.1176,1.0064,1.0539,1.0877,0.9798,0.9537,0.9071,0.7937,0.7212,0.7104,0.7042,0.6724,0.6087,0.4962,0.4563,0.3971,0.2678,0.2414,0.2363,0.2302,0.2254,0.2251,0.2119,0.1845,0.1616,0.1612,0.1549,0.1524,1.3514,1.3402,1.3402,1.3402,1.3402,1.3402,1.3402,1.3419,1.3506,1.3498,1.3427,1.3693,1.3758,1.3617,1.3798,1.388,1.3904,1.3928,1.3937,0.0,1.3961,1.3977,1.3977,1.3977,1.3977,1.3977,1.3977,1.3961,1.3945,1.3945,1.3928,1.3904,1.3904,1.3888,1.3863,1.3839,1.3831,1.3823,1.3463,1.2993,1.2368,1.2209,1.1817,1.1234,1.1166,1.1043,1.0887,1.0914,1.0887,1.0764,1.0817,1.0781,1.067,1.0922,1.1063,1.1049,1.1009,1.1236,1.1669,1.1106,1.0756,1.0822,1.1122,1.1562,1.2146,1.1945,1.1761,1.1852,1.1612,1.1379,1.1331,1.1152,1.1009,1.0934,1.0833,1.0799,1.0867,1.0886,1.0524,0.9588,0.9452,0.9057,0.8357,0.8137,0.8253,0.8182,0.8469,0.8082,0.7924,0.7996,0.8128,0.7903,0.7829,0.7747,0.71,0.6164,0.5479,0.5358,0.4211,0.3431,0.3117,0.3002,0.2839,0.2467,0.2391,0.2266,0.1982,0.1901,0.1756,0.1496,0.1346,0.1272,0.1271,0.1041,0.0851,1.3734,1.3695,1.366,1.366,1.3652,1.3555,1.3457,1.3392,1.3528,1.3504,1.3427,1.3581,1.3628,1.3617,1.369,1.3779,1.3904,1.4002,1.405,1.4058,1.4148,1.4188,1.4188,1.4188,1.4188,1.4152,1.4188,1.414,1.4058,1.405,1.4002,1.3912,1.3904,1.3904,1.3868,1.369,1.3575,1.3575,1.3364,1.2959,1.2403,1.214,1.1717,1.1234,1.12,1.1166,1.1063,1.1063,1.1029,1.0962,1.0962,1.0928,1.0893,1.1021,1.1088,1.1088,1.1121,1.1223,1.1463,1.1165,1.0962,1.0995,1.1097,1.1322,1.1668,1.1519,1.1495,1.1731,1.1427,1.1191,1.1191,1.0961,1.0792,1.0792,1.0799,1.0497,0.9817,0.9819,0.9404,0.8245,0.8035,0.7874,0.7389,0.7294,0.734,0.7315,0.6713,0.6074,0.5995,0.5296,0.511,0.5874,0.6065,0.5644,0.4957,0.4173,0.3623,0.3585,0.2964,0.2462,0.2424,0.2385,0.2379,0.2369,0.2252,0.2017,0.1808,0.1584,0.1396,0.1278,0.0985,0.0912,0.0838,0.0545,0.0359,1.3969,1.3961,1.392,1.3904,1.3888,1.3758,1.362,1.3549,1.3609,1.362,1.3541,1.3524,1.3571,1.3658,1.3666,1.3739,1.3912,1.4086,1.4151,1.4168,1.4217,1.4273,1.4273,1.4273,1.431,1.4282,1.4314,1.4286,1.414,1.4196,1.4164,1.4034,1.4018,1.4002,1.3961,1.3674,1.3435,1.3325,1.32,1.2962,1.2567,1.2091,1.1685,1.1441,1.1336,1.1281,1.1254,1.1247,1.1234,1.12,1.12,1.12,1.12,1.12,1.12,1.12,1.12,1.12,1.12,1.12,1.12,1.12,1.12,1.1193,1.1214,1.1192,1.1321,1.1555,1.1349,1.1208,1.1182,1.0967,1.0819,1.0826,1.0549,0.9946,0.8954,0.8648,0.8048,0.6777,0.6597,0.6548,0.6344,0.625,0.6094,0.5829,0.5092,0.4382,0.4157,0.315,0.3075,0.3827,0.4326,0.3973,0.2612,0.2493,0.2452,0.23,0.2255,0.2174,0.2136,0.2102,0.2102,0.2022,0.1875,0.1604,0.152,0.1294,0.1031,0.0877,0.062,0.0474,0.0438,0.0255,0.0,1.4148,1.4123,1.3985,1.3904,1.3912,1.3888,1.3872,1.3855,1.3872,1.3872,1.3831,1.3847,1.3847,1.388,1.3872,1.388,1.3904,1.392,1.3928,1.3937,1.3945,1.3953,1.3969,1.3961,1.3953,1.3985,1.4123,1.4115,1.3985,1.4217,1.4363,1.4346,1.4346,1.4294,1.4172,1.412,1.385,1.3333,1.3274,1.3123,1.2766,1.2366,1.2151,1.2116,1.1751,1.1511,1.1375,1.1369,1.1307,1.1213,1.1206,1.12,1.1206,1.12,1.12,1.1206,1.1206,1.12,1.12,1.12,1.1206,1.12,1.1213,1.1213,1.1213,1.1214,1.1193,1.1255,1.1262,1.12,1.1193,1.107,1.0919,1.0631,0.9699,0.8994,0.869,0.7747,0.6412,0.5084,0.492,0.4415,0.3443,0.3189,0.304,0.3302,0.3121,0.2864,0.2791,0.2607,0.2314,0.2575,0.2645,0.2641,0.2378,0.2398,0.2198,0.1934,0.1844,0.1727,0.1544,0.1433,0.1319,0.1513,0.1322,0.1175,0.0916,0.0658,0.0548,0.0,0.0,0.0,0.0,0.0,0.0,1.4326,1.4326,1.4245,1.4213,1.4176,1.4213,1.4156,1.4066,1.4066,1.4002,1.3904,1.3904,1.3904,1.3904,1.3904,1.3904,1.3904,1.3904,1.3904,1.3904,1.3904,1.3904,1.3904,1.3904,1.3904,1.3904,1.3977,1.4034,1.4107,1.4273,1.4395,1.4395,1.4395,1.4399,1.429,1.4106,1.3772,1.3278,1.3051,1.2816,1.2576,1.2309,1.2086,1.1835,1.1691,1.1556,1.1531,1.1525,1.1497,1.1436,1.143,1.1436,1.143,1.1436,1.1436,1.143,1.1436,1.143,1.1436,1.143,1.143,1.143,1.1436,1.1436,1.1436,1.1436,1.1436,1.1416,1.1308,1.0882,0.9983,0.9769,0.9417,0.8591,0.7909,0.7296,0.637,0.5851,0.4957,0.3567,0.3278,0.3096,0.2478,0.2296,0.2296,0.2296,0.2296,0.226,0.2296,0.2296,0.2223,0.2043,0.2025,0.2071,0.2036,0.2029,0.1838,0.1579,0.1428,0.1314,0.1242,0.1204,0.1204,0.1168,0.0987,0.0804,0.0694,0.0365,0.0,0.0,0.0,0.0,0.0,0.0,0.0,1.4468,1.446,1.4419,1.4395,1.4395,1.4395,1.4322,1.4253,1.4245,1.4172,1.4058,1.405,1.4018,1.3977,1.3928,1.3904,1.3904,1.3904,1.3904,1.3904,1.3904,1.3904,1.3904,1.3904,1.3904,1.3912,1.3961,1.4099,1.4302,1.4383,1.4435,1.4562,1.4578,1.4516,1.4476,1.4244,1.3893,1.3438,1.3029,1.2711,1.2479,1.2228,1.1985,1.177,1.1655,1.1584,1.1584,1.1584,1.1584,1.1584,1.1584,1.1584,1.1584,1.1584,1.1584,1.1584,1.1584,1.1584,1.1584,1.1584,1.1584,1.1584,1.1584,1.1584,1.1548,1.1217,1.1002,1.0868,1.0414,0.9532,0.9176,0.8539,0.7797,0.6782,0.6484,0.5697,0.474,0.431,0.3603,0.2515,0.2442,0.2296,0.2296,0.2296,0.2296,0.2296,0.2223,0.215,0.2153,0.2047,0.187,0.1685,0.1617,0.1654,0.1644,0.1643,0.1423,0.1173,0.1028,0.0993,0.092,0.0848,0.0848,0.0594,0.0517,0.0442,0.0368,0.0147,0.0,0.0,0.0,0.0,0.0,0.0,0.0,1.4692,1.4676,1.4505,1.4419,1.4403,1.4411,1.4395,1.4387,1.4387,1.4371,1.4346,1.4354,1.431,1.4156,1.401,1.3904,1.3904,1.3904,1.3904,1.3904,1.3904,1.3904,1.3904,1.3904,1.3904,1.3912,1.4042,1.4294,1.4611,1.4513,1.4611,1.4949,1.4903,1.4846,1.4708,1.4654,1.4386,1.3841,1.3379,1.3029,1.2628,1.2118,1.193,1.2079,1.1799,1.1584,1.1584,1.1584,1.1584,1.1584,1.1584,1.1584,1.1584,1.1584,1.1584,1.1584,1.1584,1.1584,1.1584,1.1584,1.1584,1.1584,1.1476,1.1512,1.1289,1.0161,0.9435,0.9399,0.8143,0.7729,0.8601,0.7684,0.6933,0.6577,0.5509,0.4794,0.4615,0.3308,0.2515,0.2296,0.2296,0.2296,0.2296,0.2296,0.226,0.2223,0.2041,0.1824,0.1755,0.151,0.1333,0.1264,0.1233,0.1237,0.1212,0.1211,0.1031,0.0777,0.0595,0.0,0.0,0.0038,0.0,0.0,0.0,0.0,0.0,0.0,0.0,0.0,0.0,0.0,0.0,0.0,0.0,1.4909,1.4909,1.4806,1.4773,1.4773,1.4773,1.4708,1.4573,1.4611,1.45,1.4403,1.4395,1.4399,1.4298,1.427,1.4115,1.3912,1.3904,1.3904,1.3904,1.3904,1.3904,1.3904,1.3904,1.3904,1.3912,1.3969,1.4123,1.4367,1.4521,1.4667,1.4797,1.4949,1.4879,1.4757,1.4822,1.4591,1.4063,1.3627,1.3213,1.2815,1.2144,1.1839,1.1937,1.1703,1.1584,1.1584,1.1584,1.1584,1.1584,1.1584,1.1584,1.1584,1.1584,1.1584,1.1584,1.1584,1.1584,1.1584,1.1584,1.1584,1.1548,1.0671,1.0161,0.9873,0.8745,0.7837,0.7548,0.6427,0.5924,0.6069,0.5815,0.5126,0.4112,0.353,0.3241,0.3096,0.2624,0.2296,0.2296,0.2296,0.2296,0.2262,0.2296,0.2223,0.2005,0.1859,0.1684,0.1474,0.126,0.1081,0.0901,0.083,0.0717,0.045,0.0673,0.0674,0.0375,0.0,0.0,0.0,0.0,0.0,0.0,0.0,0.0,-0.0226,0.0,0.0,0.0,0.0,0.0,0.0,0.0,0.0,1.5006,1.5006,1.5006,1.5006,1.5006,1.5006,1.4941,1.4797,1.4789,1.4716,1.4619,1.4603,1.4541,1.4492,1.4484,1.4322,1.4083,1.4026,1.3993,1.3985,1.3928,1.3904,1.3904,1.3904,1.3904,1.3904,1.3904,1.4037,1.418,1.4416,1.4594,1.4716,1.483,1.4892,1.4814,1.4949,1.478,1.4349,1.3839,1.3391,1.3052,1.2294,1.1877,1.178,1.1694,1.1584,1.1584,1.1584,1.1584,1.1584,1.1584,1.1584,1.1584,1.1584,1.1584,1.1584,1.1584,1.1584,1.1584,1.1584,1.1584,1.1512,1.0197,0.9291,0.9177,0.7444,0.6427,0.5956,0.4872,0.3894,0.3932,0.3932,0.3459,0.2478,0.2296,0.2296,0.2296,0.2296,0.2296,0.2261,0.216,0.2126,0.2129,0.1989,0.1846,0.1623,0.1513,0.1297,0.1082,0.0863,0.0754,0.0456,0.0421,0.0307,0.0,0.0,0.0,0.0,0.0,0.0,0.0,0.0,0.0,0.0,0.0,0.0,-0.0683,-0.1163,-0.1373,-0.1396,0.0,0.0,0.0,0.0,0.0,1.5006,1.5006,1.5006,1.5006,1.5006,1.5006,1.4998,1.4982,1.499,1.4966,1.4933,1.4974,1.483,1.4732,1.4708,1.4603,1.4432,1.4286,1.4233,1.4164,1.4018,1.3937,1.3928,1.3937,1.392,1.3904,1.3904,1.3993,1.4184,1.4213,1.4375,1.4635,1.4684,1.4749,1.4919,1.4865,1.4897,1.4619,1.3961,1.3556,1.3377,1.252,1.2002,1.1807,1.1701,1.1584,1.1584,1.1584,1.1584,1.1584,1.1584,1.1584,1.1584,1.1584,1.1584,1.1584,1.1584,1.1584,1.1584,1.1584,1.1584,1.1145,1.0053,0.8961,0.8312,0.6286,0.4693,0.4439,0.3459,0.2442,0.2478,0.2515,0.2478,0.2296,0.2296,0.2296,0.2296,0.2297,0.2297,0.223,0.1991,0.1782,0.1713,0.1535,0.1318,0.1168,0.0942,0.0716,0.0605,0.0381,0.0077,0.0,0.0,0.0,0.0,0.0,0.0,0.0,0.0,0.0,0.0,0.0,0.0,0.0,0.0,-0.1703,-0.2412,-0.2914,-0.3474,-0.3662,-0.4077,-0.3973,-0.3603,-0.3348,-0.3748,1.5006,1.5006,1.5006,1.5006,1.5006,1.5006,1.5006,1.5006,1.5006,1.5006,1.5006,1.5006,1.4974,1.4933,1.4879,1.4892,1.4781,1.4619,1.4481,1.4367,1.4286,1.4196,1.4107,1.4127,1.4026,1.392,1.3904,1.3928,1.401,1.416,1.4282,1.4343,1.4435,1.4324,1.4109,1.423,1.4156,1.3655,1.3302,1.3155,1.3007,1.2294,1.1932,1.1959,1.1748,1.1584,1.1584,1.1584,1.1584,1.1584,1.1584,1.1584,1.1584,1.1584,1.1584,1.1584,1.1584,1.1584,1.1584,1.1548,1.1074,1.0053,0.86,0.7259,0.6141,0.433,0.3168,0.3097,0.2551,0.2296,0.2296,0.2296,0.2262,0.2296,0.2296,0.2262,0.2194,0.2096,0.1993,0.1923,0.1606,0.1429,0.1355,0.1211,0.1024,0.0834,0.0645,0.0494,0.023,0.0,0.0,0.0,0.0,0.0,0.0,0.0,0.0,0.0,0.0,0.0,0.0,0.0,0.0,-0.1647,-0.2548,-0.3355,-0.4092,-0.4771,-0.5353,-0.5221,-0.4997,-0.4887,-0.474,-0.4989,-0.5471,1.5006,1.5006,1.5006,1.5006,1.5006,1.5006,1.5006,1.5006,1.5006,1.5006,1.5006,1.5006,1.5006,1.5006,1.5006,1.5006,1.499,1.4846,1.4741,1.4611,1.4435,1.433,1.4278,1.4278,1.4221,1.4123,1.4099,1.4099,1.4099,1.4213,1.431,1.4391,1.4332,1.4202,1.3886,1.3922,1.3695,1.3297,1.3105,1.2942,1.278,1.2281,1.202,1.207,1.1877,1.1789,1.1782,1.1728,1.1638,1.1597,1.1584,1.1584,1.1584,1.1584,1.1584,1.1584,1.1584,1.1584,1.1548,1.1002,1.0383,0.9183,0.7368,0.5851,0.462,0.3205,0.2372,0.2311,0.235,0.2318,0.2328,0.2182,0.2145,0.2108,0.2099,0.2061,0.1922,0.1713,0.1608,0.1501,0.1211,0.1027,0.0953,0.0804,0.069,0.0422,0.0384,0.0346,0.0,0.0,0.0,0.0,0.0,0.0,0.0,0.0,0.0,0.0,0.0,0.0,0.0,0.0,-0.1646,-0.3292,-0.4466,-0.5285,-0.6013,-0.6815,-0.7393,-0.6751,-0.6351,-0.6866,-0.7231,-0.7015,-0.723,1.5039,1.5031,1.5039,1.5063,1.5063,1.5047,1.5039,1.5031,1.5006,1.5006,1.5006,1.5006,1.5006,1.5006,1.5006,1.5006,1.4998,1.499,1.4974,1.4876,1.4659,1.4452,1.4456,1.4379,1.4346,1.4354,1.4354,1.4363,1.433,1.4354,1.4521,1.4573,1.4251,1.4143,1.4037,1.3853,1.3547,1.3373,1.3147,1.2957,1.2816,1.2498,1.2254,1.2132,1.2091,1.2064,1.2036,1.1904,1.1739,1.1604,1.1584,1.1584,1.1584,1.1584,1.1584,1.1604,1.1597,1.1473,1.1214,1.0305,0.92,0.8438,0.6363,0.4595,0.4211,0.3082,0.2322,0.2378,0.238,0.2391,0.2336,0.2076,0.1851,0.1702,0.1723,0.1608,0.1284,0.1211,0.1175,0.1101,0.0842,0.0579,0.054,0.0273,0.0,0.0,0.0,0.0,0.0,0.0,0.0,0.0,0.0,0.0,0.0,0.0,0.0,0.0,0.0,0.0,0.0,0.0,-0.3329,-0.4972,-0.6264,-0.7123,-0.7808,-0.8408,-0.8856,-0.8631,-0.8785,-0.951,-0.9292,-0.8723,-0.8411,1.5366,1.5366,1.5374,1.5374,1.535,1.5189,1.5163,1.5147,1.5025,1.5031,1.5006,1.5006,1.5015,1.5006,1.5006,1.5006,1.5006,1.5006,1.5006,1.499,1.4925,1.4749,1.4619,1.446,1.4411,1.4411,1.4427,1.4395,1.4395,1.439,1.4444,1.446,1.4068,1.3731,1.3507,1.3255,1.2877,1.2608,1.2682,1.2587,1.2471,1.2374,1.2315,1.2268,1.2166,1.2111,1.2098,1.2057,1.1877,1.164,1.1584,1.1584,1.1633,1.1604,1.1644,1.1726,1.1636,1.1201,1.0312,0.9658,0.8397,0.6205,0.5186,0.4195,0.3074,0.266,0.2403,0.2412,0.2412,0.2378,0.2309,0.2009,0.1559,0.1033,0.114,0.1246,0.1138,0.0916,0.0767,0.0692,0.0388,0.0,0.0,0.0,0.0,0.0,0.0,0.0,0.0,0.0,0.0,0.0,0.0,0.0,0.0,0.0,0.0,0.0,0.0,0.0,0.0,0.0,-0.5558,-0.6967,-0.7868,-0.8725,-0.9114,-0.9594,-0.985,-0.9834,-0.9786,-0.9753,-0.9682,-0.9271,-0.9144,1.5512,1.5512,1.5512,1.5512,1.5504,1.5359,1.5318,1.5294,1.5252,1.5147,1.5098,1.5082,1.5072,1.5015,1.5006,1.5006,1.5006,1.5006,1.5006,1.5006,1.4998,1.4941,1.4806,1.4692,1.4651,1.4659,1.4651,1.4659,1.463,1.4471,1.4404,1.4269,1.3801,1.3385,1.3188,1.2889,1.2599,1.2374,1.242,1.2461,1.2386,1.2379,1.2379,1.2366,1.2322,1.2261,1.2213,1.2193,1.2077,1.1864,1.1809,1.1839,1.1809,1.1803,1.1843,1.1888,1.1297,1.0439,0.9521,0.845,0.6721,0.4988,0.4235,0.3328,0.2648,0.2424,0.2425,0.244,0.2289,0.2181,0.2075,0.1653,0.1042,0.0543,0.054,0.0,0.0,0.0464,0.035,0.0,0.0,0.0,0.0,0.0,0.0,0.0,0.0,0.0,0.0,0.0,0.0,0.0,0.0,0.0,0.0,0.0,0.0,0.0,0.0,0.0,-0.346,-0.573,-0.7162,-0.8297,-0.9353,-1.0019,-1.0019,-1.0019,-0.9953,-0.9905,-0.9883,-0.9829,-0.9758,-0.9666,-0.9612,1.5569,1.5569,1.5569,1.5529,1.5585,1.5553,1.5545,1.5497,1.5456,1.5359,1.5254,1.5229,1.5195,1.5063,1.5088,1.5039,1.5039,1.5023,1.5006,1.5006,1.5006,1.499,1.4974,1.4949,1.4941,1.4949,1.4998,1.4897,1.4758,1.4514,1.4345,1.4122,1.3476,1.3144,1.3038,1.2772,1.2554,1.2481,1.2515,1.2522,1.2488,1.2474,1.2474,1.2467,1.2467,1.2406,1.2338,1.2305,1.2244,1.2152,1.2125,1.207,1.2077,1.2084,1.188,1.1551,1.0496,0.9639,0.8714,0.6387,0.4788,0.4226,0.3123,0.2432,0.2402,0.2443,0.2451,0.2472,0.2048,0.1863,0.1601,0.1019,0.0549,0.0,0.0,0.0,0.0,0.0,0.0,0.0,0.0,0.0,0.0,0.0,0.0,0.0,0.0,0.0,0.0,0.0,0.0,0.0,0.0,0.0,0.0,0.0,0.0,0.0,0.0,-0.4146,-0.4591,-0.6387,-0.812,-0.9353,-0.9825,-1.0019,-1.0019,-1.0014,-0.9975,-0.997,-0.9932,-0.9932,-0.9878,-0.9802,-0.9693,1.5894,1.5894,1.5894,1.5894,1.5869,1.578,1.5715,1.5707,1.5577,1.5472,1.5424,1.5416,1.5423,1.5374,1.5236,1.514,1.5163,1.5057,1.5006,1.5006,1.5006,1.5006,1.5006,1.4968,1.5006,1.5006,1.5006,1.4814,1.4553,1.4399,1.4207,1.3783,1.3351,1.3081,1.3018,1.2791,1.261,1.2549,1.2571,1.2596,1.2515,1.2501,1.2501,1.2501,1.2508,1.2494,1.2467,1.2454,1.244,1.2366,1.2203,1.2132,1.2132,1.2013,1.149,1.0533,0.9905,0.8564,0.6467,0.5352,0.4316,0.3187,0.2797,0.2456,0.2495,0.2491,0.2495,0.2426,0.2113,0.1605,0.0981,0.0746,0.0393,0.0,0.0,0.0,0.0,0.0,0.0,0.0,0.0,0.0,0.0,0.0,0.0,0.0,0.0,0.0,0.0,0.0,0.0,0.0,0.0,0.0,0.0,0.0,0.0,0.0,0.0,-0.5088,-0.5574,-0.7224,-0.9007,-0.9711,-0.9903,-1.0019,-1.0019,-1.0019,-1.0014,-1.0019,-1.0019,-0.9987,-0.9943,-0.9856,-0.9818,1.6007,1.6007,1.6007,1.6007,1.5991,1.5943,1.5902,1.5886,1.5813,1.5715,1.565,1.5634,1.5593,1.5512,1.5375,1.5327,1.5325,1.5179,1.5088,1.5031,1.5006,1.5006,1.493,1.4814,1.4776,1.493,1.4814,1.4592,1.4361,1.3975,1.3628,1.3436,1.3042,1.2811,1.2811,1.2706,1.2569,1.2528,1.2576,1.2576,1.2515,1.2501,1.2501,1.2522,1.2562,1.2583,1.2501,1.2501,1.2501,1.2461,1.2314,1.2264,1.2074,1.1536,1.0697,0.9971,0.8134,0.7069,0.5318,0.4234,0.3411,0.2632,0.2514,0.2514,0.2514,0.2514,0.2396,0.22,0.1806,0.1256,0.0432,0.0314,0.0,0.0,0.0,0.0,0.0,0.0,0.0,0.0,0.0,0.0,0.0,0.0,0.0,0.0,0.0,0.0,0.0,0.0,0.0,0.0,0.0,0.0,0.0,0.0,0.0,0.0,0.0,-0.4538,-0.534,-0.7573,-1.0035,-1.0144,-1.009,-1.0025,-1.0019,-1.0019,-1.0019,-1.0019,-1.0019,-1.0019,-1.0003,-0.9921,-0.9905,1.6007,1.6007,1.6007,1.6007,1.6007,1.5999,1.5991,1.5999,1.6007,1.5926,1.5837,1.5813,1.5748,1.5586,1.5569,1.5545,1.5463,1.5317,1.5139,1.5049,1.5023,1.4938,1.4814,1.463,1.4515,1.4776,1.443,1.4245,1.3975,1.3505,1.3197,1.3004,1.2695,1.2579,1.254,1.2535,1.2549,1.2515,1.2556,1.2576,1.2542,1.2528,1.2501,1.2522,1.2583,1.2284,1.2011,1.1876,1.1876,1.176,1.176,1.1721,1.145,1.0901,0.9498,0.926,0.6644,0.5243,0.4349,0.3376,0.2632,0.2514,0.2396,0.2396,0.2357,0.2239,0.2043,0.1768,0.1413,0.0903,0.0,0.0,0.0,0.0,0.0,0.0,0.0,0.0,0.0,0.0,0.0,0.0,0.0,0.0,0.0,0.0,0.0,0.0,0.0,0.0,0.0,0.0,0.0,0.0,0.0,0.0,0.0,0.0,-0.2854,-0.4257,-0.5448,-0.8047,-1.0094,-1.0192,-1.0166,-1.0106,-1.0047,-1.0036,-1.0036,-1.0025,-1.0019,-1.0019,-1.0019,-1.0019,-0.997,1.6007,1.6007,1.6007,1.6007,1.6007,1.6007,1.6007,1.6007,1.6007,1.5991,1.5958,1.595,1.5926,1.5869,1.578,1.5658,1.5528,1.5374,1.5213,1.5132,1.5035,1.4838,1.4508,1.433,1.4214,1.3975,1.3775,1.3621,1.3428,1.3158,1.2888,1.2656,1.254,1.2501,1.2535,1.261,1.2589,1.2528,1.2589,1.2605,1.2584,1.2576,1.2508,1.2476,1.2407,1.1726,1.0763,1.0397,0.977,0.853,0.837,0.8409,0.8643,0.9265,0.8404,0.6612,0.5405,0.4273,0.3297,0.2789,0.2514,0.2435,0.2241,0.2007,0.1928,0.1731,0.1578,0.1339,0.0984,0.0,0.0,0.0,0.0,0.0,0.0,0.0,0.0,0.0,0.0,0.0,0.0,0.0,0.0,0.0,0.0,0.0,0.0,0.0,0.0,0.0,0.0,0.0,0.0,0.0,0.0,0.0,0.0,0.0,-0.2423,-0.4422,-0.6033,-0.8601,-1.0039,-1.0238,-1.0246,-1.0193,-1.0139,-1.009,-1.0047,-1.003,-1.0025,-0.998,-1.0019,-0.998,-0.9747,1.6007,1.6007,1.6007,1.6007,1.6007,1.6007,1.6007,1.6007,1.6007,1.6007,1.6007,1.6007,1.6007,1.5983,1.5967,1.5821,1.5658,1.5569,1.5305,1.509,1.4852,1.4563,1.4167,1.3912,1.3628,1.339,1.3197,1.312,1.3081,1.2888,1.2695,1.2579,1.2501,1.2501,1.2508,1.2562,1.2569,1.2528,1.2576,1.2617,1.2591,1.2551,1.2551,1.2335,1.1668,1.0849,1.013,0.8993,0.8409,0.7708,0.7556,0.7006,0.6733,0.6655,0.6729,0.517,0.4194,0.3452,0.2671,0.2476,0.2403,0.2179,0.1982,0.1791,0.1638,0.1402,0.1199,0.0919,0.056,0.024,0.0,0.0,0.0,0.0,0.0,0.0,0.0,0.0,0.0,0.0,0.0,0.0,0.0,0.0,0.0,0.0,0.0,0.0,0.0,0.0,0.0,0.0,0.0,0.0,0.0,0.0,0.0,0.0,-0.2096,-0.4061,-0.5971,-0.8202,-0.97,-1.0426,-1.0384,-1.0115,-1.0215,-1.0155,-1.0095,-1.0002,-0.988,-0.9841,-0.9947,-0.9942,-0.9353,1.6007,1.6007,1.6007,1.6007,1.6007,1.6007,1.6007,1.6007,1.6007,1.6007,1.6007,1.6007,1.6007,1.6007,1.5983,1.5918,1.574,1.5675,1.5272,1.4834,1.4592,1.431,1.3872,1.3457,1.3145,1.2997,1.2779,1.2656,1.2811,1.2695,1.254,1.2501,1.2501,1.2501,1.2508,1.2522,1.2501,1.2501,1.2501,1.2501,1.2496,1.2285,1.2142,1.1856,1.0493,0.9424,0.853,0.763,0.6733,0.6307,0.6111,0.5796,0.474,0.4505,0.4505,0.4273,0.3179,0.2671,0.2514,0.2514,0.2329,0.1993,0.1838,0.1569,0.1215,0.0973,0.0812,0.0488,0.0244,0.0,0.0,0.0,0.0,0.0,0.0,0.0,0.0,0.0,0.0,0.0,0.0,0.0,0.0,0.0,0.0,0.0,0.0,0.0,0.0,0.0,0.0,0.0,0.0,0.0,0.0,0.0,0.0,0.0,-0.2001,-0.387,-0.5609,-0.7455,-0.8783,-1.0245,-1.0003,-0.9798,-1.003,-1.0192,-1.0193,-1.0066,-0.9771,-0.9417,-0.909,-0.8379,-0.763,1.6007,1.6007,1.6007,1.6007,1.6007,1.6007,1.6007,1.6007,1.6007,1.6007,1.6007,1.6007,1.6007,1.6007,1.5966,1.5785,1.5516,1.525,1.4977,1.4551,1.4321,1.4039,1.3659,1.3404,1.3044,1.2821,1.2608,1.2508,1.2617,1.254,1.2501,1.2501,1.2501,1.2501,1.2501,1.2501,1.2501,1.2501,1.2463,1.2385,1.2173,1.1143,1.0493,0.9891,0.8735,0.7338,0.6303,0.56,0.4821,0.3572,0.3297,0.3062,0.2789,0.2789,0.2789,0.2789,0.2592,0.2514,0.2477,0.2366,0.2182,0.1763,0.1524,0.1168,0.0773,0.0,0.0,0.0122,0.0,0.0,0.0,0.0,0.0,0.0,0.0,0.0,0.0,0.0,0.0,0.0,0.0,0.0,0.0,0.0,0.0,0.0,0.0,0.0,0.0,0.0,0.0,0.0,0.0,0.0,0.0,0.0,0.0,0.0,-0.1739,-0.351,-0.5026,-0.6653,-0.8743,-0.9769,-0.9446,-0.9259,-0.9325,-0.9577,-1.0057,-0.9506,-0.8479,-0.8037,-0.7759,-0.6975,-0.6111,1.6007,1.6007,1.6007,1.6007,1.6007,1.6007,1.6007,1.6007,1.6007,1.6007,1.6007,1.6007,1.6007,1.5966,1.5793,1.5546,1.5365,1.5057,1.4657,1.43,1.4054,1.3765,1.34,1.3208,1.2953,1.2778,1.2625,1.2576,1.2542,1.2508,1.2501,1.2501,1.2501,1.2501,1.2501,1.2501,1.2501,1.2231,1.1682,1.1095,1.0686,0.9623,0.8655,0.853,0.6928,0.5756,0.5014,0.392,0.3376,0.2514,0.2514,0.2514,0.2514,0.2515,0.2441,0.2183,0.2183,0.2144,0.2106,0.1956,0.1651,0.13,0.0979,0.0698,0.0331,0.0,0.0,0.0,0.0,0.0,0.0,0.0,0.0,0.0,0.0,0.0,0.0,0.0,0.0,0.0,0.0,0.0,0.0,0.0,0.0,0.0,0.0,0.0,0.0,0.0,0.0,0.0,0.0,0.0,0.0,0.0,0.0,-0.0864,-0.1025,-0.2698,-0.4117,-0.5888,-0.7677,-0.837,-0.7819,-0.7884,-0.8368,-0.8257,-0.8067,-0.7457,-0.6814,-0.6501,-0.623,-0.5886,-0.4944,1.6007,1.6007,1.6007,1.6007,1.6007,1.6007,1.6007,1.6007,1.6007,1.6007,1.6007,1.6007,1.5966,1.5793,1.5546,1.5298,1.501,1.4721,1.4307,1.3975,1.3754,1.3527,1.3349,1.3125,1.2996,1.2834,1.2813,1.2712,1.2571,1.2562,1.2556,1.2508,1.2501,1.2501,1.2501,1.2463,1.2347,1.1566,1.0668,0.997,0.9192,0.7747,0.7049,0.6381,0.5444,0.4351,0.4155,0.3376,0.2592,0.2514,0.2367,0.2292,0.2292,0.2144,0.1994,0.1727,0.1611,0.1495,0.1495,0.1379,0.1023,0.0742,0.0457,0.0,0.0,0.0,0.0,0.0,0.0,0.0,0.0,0.0,0.0,0.0,0.0,0.0,0.0,0.0,0.0,0.0,0.0,0.0,0.0,0.0,0.0,0.0,0.0,0.0,0.0,0.0,0.0,0.0,0.0,-0.0419,-0.0666,-0.0868,-0.1067,-0.1265,-0.1383,-0.2263,-0.3944,-0.4856,-0.5995,-0.6217,-0.6291,-0.6384,-0.6763,-0.6318,-0.5981,-0.6177,-0.6098,-0.5104,-0.4609,-0.4342,-0.3691,1.6007,1.6007,1.6007,1.6007,1.6007,1.6007,1.6007,1.6007,1.6007,1.5966,1.5925,1.5966,1.5752,1.5463,1.5265,1.4893,1.4232,1.4149,1.3901,1.3604,1.3431,1.3445,1.3308,1.3268,1.318,1.3125,1.2996,1.2861,1.2745,1.2718,1.263,1.2522,1.2515,1.2501,1.2385,1.2192,1.1527,1.063,0.9654,0.872,0.7552,0.6186,0.5209,0.4821,0.3689,0.2671,0.271,0.2481,0.2404,0.2405,0.2107,0.1956,0.1879,0.1729,0.1537,0.1301,0.1064,0.0903,0.0823,0.0984,0.0984,0.0621,0.0,0.0,0.0,0.0,0.0,0.0,0.0,0.0,0.0,0.0,0.0,0.0,0.0,0.0,0.0,0.0,0.0,0.0,0.0,0.0,0.0,0.0,0.0,0.0,0.0,0.0,0.0,0.0,0.0,0.0,0.0,-0.0838,-0.1163,-0.1362,-0.1479,-0.167,-0.1862,-0.2845,-0.4207,-0.4791,-0.4695,-0.5195,-0.541,-0.5255,-0.5083,-0.5013,-0.5083,-0.5633,-0.5342,-0.3984,-0.2984,-0.2532,-0.1851,1.6007,1.6007,1.6007,1.6007,1.6007,1.6007,1.6007,1.6007,1.6007,1.5834,1.5628,1.5628,1.5381,1.501,1.4687,1.4439,1.4066,1.3735,1.3569,1.3486,1.3397,1.3397,1.337,1.3336,1.3309,1.3227,1.3146,1.3057,1.2888,1.2874,1.2773,1.2671,1.2407,1.2508,1.2347,1.1605,1.0597,0.9542,0.8059,0.6538,0.5913,0.4432,0.3454,0.3336,0.2813,0.2292,0.2405,0.1995,0.1995,0.1956,0.1729,0.1574,0.1496,0.1342,0.1104,0.0904,0.0662,0.0499,0.0,0.0,0.0375,0.0292,0.0,0.0,0.0,0.0,0.0,0.0,0.0,0.0,0.0,0.0,0.0,0.0,0.0,0.0,0.0,0.0,0.0,0.0,0.0,0.0,0.0,0.0,0.0,0.0,0.0,-0.0084,-0.0251,-0.0462,-0.0672,-0.0925,-0.1052,-0.1298,-0.1618,-0.1775,-0.1891,-0.2077,-0.23,-0.3008,-0.3783,-0.3421,-0.3508,-0.408,-0.434,-0.399,-0.3836,-0.3882,-0.4009,-0.4137,-0.3503,-0.2387,-0.1549,-0.1109,-0.075,1.6007,1.6007,1.6007,1.6007,1.6007,1.6007,1.6007,1.5966,1.5834,1.5587,1.5175,1.5167,1.4968,1.4514,1.4273,1.4025,1.3818,1.3569,1.3438,1.3397,1.3397,1.3397,1.3397,1.3383,1.3336,1.3254,1.3268,1.3207,1.3071,1.3064,1.2482,1.2034,1.1939,1.1908,1.2108,1.0901,0.9591,0.8054,0.6609,0.4621,0.4275,0.3283,0.2499,0.246,0.2076,0.1957,0.1957,0.1652,0.1536,0.1496,0.1381,0.1144,0.1065,0.0944,0.0743,0.0,0.0,0.0,0.0,0.0,0.0,0.0,0.0,0.0,0.0,0.0,0.0,0.0,0.0,0.0,0.0,0.0,0.0,0.0,0.0,0.0,0.0,0.0,0.0,0.0,0.0,0.0,0.0,0.0,0.0,0.0,0.0,-0.0377,-0.0504,-0.0756,-0.109,-0.1302,-0.1514,-0.1796,-0.2073,-0.2152,-0.2229,-0.2284,-0.2471,-0.2515,-0.2827,-0.2579,-0.2614,-0.313,-0.3198,-0.2664,-0.2788,-0.3205,-0.2874,-0.2423,-0.1989,-0.1833,-0.1625,-0.1344,-0.1066,1.6007,1.6007,1.6007,1.6007,1.5966,1.6007,1.6007,1.5875,1.5546,1.5175,1.4762,1.4721,1.4514,1.4149,1.4025,1.3818,1.3569,1.3438,1.3397,1.3397,1.3397,1.3397,1.3397,1.339,1.3383,1.3397,1.3356,1.3281,1.3173,1.2759,1.1978,1.0879,1.056,1.0712,1.2089,1.0746,0.8337,0.5725,0.5212,0.4077,0.3215,0.268,0.2284,0.205,0.1773,0.1574,0.1537,0.1223,0.1103,0.1183,0.0864,0.0662,0.0621,0.0334,0.0,0.0,0.0,0.0,0.0,0.0,0.0,0.0,0.0,0.0,0.0,0.0,0.0,0.0,0.0,0.0,0.0,0.0,0.0,0.0,0.0,0.0,0.0,0.0,0.0,0.0,0.0,0.0,0.0,0.0,0.0,0.0,0.0,-0.0674,-0.0884,-0.1135,-0.1469,-0.1766,-0.198,-0.2106,-0.2387,-0.25,-0.2567,-0.262,-0.2619,-0.2639,-0.2632,-0.262,-0.2613,-0.2604,-0.2587,-0.2572,-0.2583,-0.2639,-0.2458,-0.2322,-0.2157,-0.1955,-0.1784,-0.1618,-0.1379,1.6007,1.6007,1.6007,1.5834,1.5669,1.5883,1.5883,1.5546,1.5133,1.4679,1.4356,1.4273,1.4025,1.3735,1.3652,1.3569,1.3438,1.3397,1.3397,1.3397,1.3397,1.3397,1.3397,1.3397,1.3397,1.3397,1.3397,1.3259,1.3322,1.2183,1.1329,1.0395,0.8853,0.8728,0.8568,0.7595,0.5827,0.5045,0.4128,0.3055,0.261,0.2328,0.2047,0.1856,0.1383,0.1143,0.1184,0.0783,0.0662,0.0784,0.0458,0.0,0.0,0.0,0.0,0.0,0.0,0.0,0.0,0.0,0.0,0.0,0.0,0.0,0.0,0.0,0.0,0.0,0.0,0.0,0.0,0.0,0.0,0.0,0.0,0.0,0.0,0.0,0.0,0.0,0.0,0.0,0.0,-0.0295,-0.0379,-0.0548,-0.0844,-0.1181,-0.1433,-0.1643,-0.1934,-0.2235,-0.2495,-0.2543,-0.2625,-0.2664,-0.2713,-0.2703,-0.2706,-0.2724,-0.2707,-0.2671,-0.2653,-0.2643,-0.2622,-0.2601,-0.2612,-0.2616,-0.2598,-0.2503,-0.234,-0.225,-0.2197,-0.2022,-0.1731,1.6007,1.5966,1.5834,1.5628,1.5463,1.5669,1.5505,1.4968,1.4597,1.4266,1.3901,1.3859,1.3735,1.3486,1.3397,1.3397,1.3397,1.3397,1.3397,1.3397,1.3397,1.3397,1.3397,1.3355,1.3397,1.3272,1.2692,1.2388,1.2169,1.0596,0.9321,0.8155,0.6914,0.5941,0.5587,0.5172,0.4835,0.415,0.3108,0.2628,0.236,0.2075,0.1787,0.1389,0.0987,0.0702,0.0621,0.0,0.0,0.0,0.0,0.0,0.0,0.0,0.0,0.0,0.0,0.0,0.0,0.0,0.0,0.0,0.0,0.0,0.0,0.0,0.0,0.0,0.0,0.0,0.0,0.0,0.0,0.0,0.0,0.0,0.0,0.0,0.0,0.0,0.0,0.0,-0.0253,-0.0505,-0.0716,-0.097,-0.1225,-0.1606,-0.1947,-0.212,-0.2248,-0.2511,-0.2733,-0.27,-0.2709,-0.2715,-0.2766,-0.2781,-0.2782,-0.2781,-0.2757,-0.2717,-0.2699,-0.2638,-0.2661,-0.2645,-0.2639,-0.2634,-0.2631,-0.2623,-0.2574,-0.2559,-0.2579,-0.2398,-0.2101,1.5966,1.5925,1.5546,1.5381,1.534,1.5257,1.4803,1.4108,1.4108,1.3818,1.3438,1.3486,1.3445,1.3397,1.3397,1.3397,1.3397,1.3397,1.3397,1.3397,1.3397,1.3397,1.3272,1.3148,1.2851,1.2436,1.1683,1.0596,1.0429,0.8799,0.713,0.5526,0.4277,0.3671,0.3733,0.3933,0.3815,0.3037,0.2658,0.2258,0.1982,0.1819,0.1405,0.0996,0.0624,0.0376,0.0,0.0,0.0,0.0,0.0,0.0,0.0,0.0,0.0,0.0,0.0,0.0,0.0,0.0,0.0,0.0,0.0,0.0,0.0,0.0,0.0,0.0,0.0,0.0,0.0,0.0,0.0,0.0,0.0,0.0,0.0,0.0,0.0,0.0,0.0,-0.0253,-0.0631,-0.0884,-0.1179,-0.1476,-0.1736,-0.1963,-0.231,-0.2497,-0.2586,-0.2633,-0.2772,-0.2781,-0.2789,-0.2797,-0.2807,-0.2818,-0.2808,-0.2803,-0.2781,-0.2763,-0.2742,-0.2721,-0.2703,-0.2687,-0.2669,-0.2671,-0.2679,-0.2669,-0.2649,-0.2631,-0.2611,-0.2594,-0.2418,1.5381,1.5092,1.5298,1.5051,1.4439,1.4149,1.4025,1.4025,1.3776,1.3486,1.3397,1.3397,1.3397,1.3397,1.3397,1.3397,1.3397,1.3397,1.3397,1.3397,1.3397,1.3397,1.2941,1.2229,1.1724,1.0893,0.9888,0.8771,0.839,0.7007,0.5237,0.3555,0.296,0.271,0.2761,0.2897,0.2566,0.2331,0.2108,0.1867,0.1501,0.1291,0.0918,0.0626,0.0336,0.0,0.0,0.0,0.0,0.0,0.0,0.0,0.0,0.0,0.0,0.0,0.0,0.0,0.0,0.0,0.0,0.0,0.0,0.0,0.0,0.0,0.0,0.0,0.0,0.0,0.0,0.0,0.0,0.0,0.0,0.0,0.0,0.0,0.0,0.0,0.0,-0.0674,-0.1052,-0.1388,-0.1684,-0.1983,-0.2207,-0.2398,-0.2548,-0.2693,-0.2796,-0.28,-0.2807,-0.2814,-0.2825,-0.2833,-0.2842,-0.2851,-0.284,-0.2829,-0.2816,-0.2755,-0.2735,-0.2752,-0.2722,-0.2705,-0.269,-0.2692,-0.2692,-0.2692,-0.2676,-0.266,-0.2602,-0.2628,-0.2615,1.4961,1.4713,1.4844,1.4473,1.3859,1.3528,1.3569,1.3735,1.3528,1.3397,1.3397,1.3397,1.3397,1.3397,1.3397,1.3397,1.3397,1.3397,1.3397,1.3397,1.3314,1.2768,1.2098,1.1184,1.0429,0.9351,0.8081,0.6976,0.6551,0.5312,0.3594,0.3009,0.2626,0.2507,0.2425,0.2118,0.1718,0.1613,0.1515,0.1386,0.1093,0.0759,0.0633,0.0,0.0,0.0,0.0,0.0,0.0,0.0,0.0,0.0,0.0,0.0,0.0,0.0,0.0,0.0,0.0,0.0,0.0,0.0,0.0,0.0,0.0,0.0,0.0,0.0,0.0,0.0,0.0,0.0,0.0,0.0,0.0,0.0,0.0,0.0,0.0,0.0,-0.0799,-0.1136,-0.1473,-0.1808,-0.2105,-0.2321,-0.2464,-0.2575,-0.2686,-0.2752,-0.2818,-0.2834,-0.284,-0.2846,-0.2856,-0.2859,-0.2861,-0.2864,-0.2863,-0.2853,-0.2846,-0.2782,-0.28,-0.2767,-0.2735,-0.272,-0.271,-0.2695,-0.2692,-0.2692,-0.2692,-0.2679,-0.2668,-0.2662,-0.265,1.4631,1.4548,1.4183,1.3859,1.3438,1.3397,1.3397,1.3397,1.3397,1.3397,1.3397,1.3397,1.3397,1.3397,1.3397,1.3397,1.3397,1.3397,1.3397,1.3314,1.2816,1.2187,1.1225,1.0237,0.8797,0.747,0.6277,0.5173,0.4758,0.3831,0.3028,0.2698,0.2263,0.2052,0.1971,0.1534,0.1179,0.1045,0.0997,0.0953,0.0735,0.0564,0.0,0.0,0.0,0.0,0.0,0.0,0.0,0.0,0.0,0.0,0.0,0.0,0.0,0.0,0.0,0.0,0.0,0.0,0.0,0.0,0.0,0.0,0.0,0.0,0.0,0.0,0.0,0.0,0.0,0.0,0.0,0.0,0.0,0.0,0.0,-0.0505,-0.0842,-0.1052,-0.1304,-0.1598,-0.1934,-0.2271,-0.2313,-0.2571,-0.2668,-0.274,-0.277,-0.2797,-0.2829,-0.2853,-0.286,-0.2863,-0.2866,-0.2868,-0.2916,-0.2919,-0.2919,-0.2917,-0.2861,-0.2841,-0.2819,-0.2791,-0.2762,-0.2744,-0.2689,-0.2717,-0.2702,-0.2692,-0.2692,-0.2692,-0.2688,-0.2683,-0.2679,1.4018,1.3687,1.3611,1.3486,1.3397,1.3397,1.3397,1.3397,1.3397,1.3397,1.3397,1.3397,1.3397,1.3397,1.3397,1.3397,1.3397,1.3397,1.3397,1.274,1.2152,1.1129,1.0002,0.8163,0.6789,0.5671,0.451,0.3551,0.3429,0.2787,0.2273,0.2199,0.1805,0.1588,0.1554,0.1066,0.0755,0.0621,0.0488,0.0,0.0,0.0,0.0,0.0,0.0,0.0,0.0,0.0,0.0,0.0,0.0,0.0,0.0,0.0,0.0,0.0,0.0,0.0,0.0,0.0,0.0,0.0,0.0,0.0,0.0,0.0,0.0,0.0,0.0,0.0,0.0,0.0,0.0,0.0,0.0,0.0,-0.0505,-0.0926,-0.1346,-0.1598,-0.1808,-0.2061,-0.2397,-0.2524,-0.2608,-0.265,-0.2652,-0.2714,-0.2747,-0.2777,-0.2821,-0.2846,-0.2867,-0.2917,-0.2919,-0.2919,-0.2919,-0.2919,-0.2919,-0.2919,-0.2919,-0.2855,-0.2833,-0.2816,-0.2796,-0.2777,-0.2713,-0.2693,-0.2721,-0.2706,-0.2692,-0.2692,-0.2692,-0.2688,-0.269,1.3652,1.3397,1.3397,1.3397,1.3397,1.3397,1.3397,1.3397,1.3397,1.3397,1.3397,1.3397,1.3397,1.3397,1.3397,1.3397,1.3397,1.3397,1.2685,1.1944,1.1037,0.9622,0.8057,0.6364,0.5279,0.4185,0.3223,0.2544,0.2465,0.2075,0.1773,0.169,0.138,0.1071,0.1032,0.0673,0.0,0.0359,0.0,0.0,0.0,0.0,0.0,0.0,0.0,0.0,0.0,0.0,0.0,0.0,0.0,0.0,0.0,0.0,0.0,0.0,0.0,0.0,0.0,0.0,0.0,0.0,0.0,0.0,0.0,0.0,0.0,0.0,0.0,0.0,0.0,0.0,0.0,0.0,0.0,0.0,-0.1052,-0.1515,-0.1892,-0.2188,-0.2313,-0.2397,-0.2608,-0.2608,-0.265,-0.265,-0.2692,-0.2703,-0.2732,-0.2758,-0.2801,-0.2837,-0.2856,-0.2916,-0.2919,-0.2919,-0.2919,-0.2919,-0.2919,-0.2919,-0.2917,-0.2861,-0.2846,-0.2837,-0.2825,-0.2762,-0.2742,-0.272,-0.2697,-0.2681,-0.2706,-0.2692,-0.2692,-0.2692,-0.2692,1.3397,1.3397,1.3397,1.3397,1.3397,1.3397,1.3397,1.3397,1.3397,1.3397,1.3397,1.3397,1.3397,1.3397,1.3397,1.3397,1.3203,1.2743,1.1891,1.1043,1.0071,0.8357,0.6692,0.5143,0.4046,0.3152,0.2338,0.2134,0.2057,0.161,0.1297,0.1211,0.0943,0.0628,0.0,0.0,0.0,0.0,0.0,0.0,0.0,0.0,0.0,0.0,0.0,0.0,0.0,0.0,0.0,0.0,0.0,0.0,0.0,0.0,0.0,0.0,0.0,0.0,0.0,0.0,0.0,0.0,0.0,0.0,0.0,0.0,0.0,0.0,0.0,0.0,0.0,0.0,0.0,0.0,0.0,-0.1054,-0.1559,-0.2021,-0.2355,-0.265,-0.265,-0.2692,-0.2692,-0.2692,-0.2692,-0.2692,-0.2698,-0.2668,-0.2684,-0.2748,-0.278,-0.2814,-0.284,-0.2853,-0.2914,-0.2919,-0.2919,-0.2919,-0.2919,-0.2919,-0.2917,-0.2866,-0.2863,-0.2909,-0.2851,-0.2831,-0.2767,-0.2746,-0.2723,-0.2699,-0.2681,-0.2665,-0.2692,-0.2692,-0.2692,1.3397,1.3397,1.3397,1.3397,1.3397,1.3397,1.3397,1.3397,1.3397,1.3397,1.3403,1.3403,1.3397,1.3403,1.3397,1.3244,1.2778,1.1999,1.1373,1.072,0.8162,0.6474,0.5163,0.3939,0.3007,0.2312,0.1829,0.1612,0.1481,0.1122,0.0853,0.0808,0.0404,0.0,0.0,0.0,0.0,0.0,0.0,0.0,0.0,0.0,0.0,0.0,0.0,0.0,0.0,0.0,0.0,0.0,0.0,0.0,0.0,0.0,0.0,0.0,0.0,0.0,0.0,0.0,0.0,0.0,0.0,0.0,0.0,0.0,0.0,0.0,0.0,0.0,0.0,0.0,0.0,0.0,0.0,-0.1565,-0.2035,-0.2321,-0.2566,-0.2692,-0.2692,-0.2692,-0.2692,-0.2692,-0.2692,-0.2692,-0.2692,-0.2703,-0.2665,-0.2732,-0.2762,-0.2792,-0.2825,-0.2848,-0.2913,-0.2919,-0.2919,-0.2919,-0.2919,-0.2919,-0.2919,-0.2919,-0.2919,-0.2917,-0.2868,-0.2853,-0.2834,-0.2814,-0.2744,-0.272,-0.2701,-0.2684,-0.2707,-0.2695,-0.2699]},{"header":{"parameterUnit":"m.s-1","parameterCategory":1,"la1":31.0,"la2":29.5877,"lo1":-88.7671,"lo2":-86.6584,"dy":0.0162,"dx":0.0185,"nx":115,"ny":88,"refTime":"2024-02-11T12:00:00:Z","depth":0,"parameterNumber":3,"parameterNumberName":"V-component_of_WINDS"},"data":[0.0,0.0,0.0,0.0,0.0,0.0,0.0,0.0,0.0,0.0,0.0,0.0,0.0,0.0,0.0,0.0,0.0,0.0,0.0,0.0,0.0,0.0,0.0,0.0,0.0,0.0,0.0,0.0,0.0,0.0,0.0,0.0,0.0,0.0,0.0,0.0,0.0,0.0,0.0,0.0,0.0,0.0,0.0,0.0,0.0,0.0,0.0,0.0,0.0,0.0,0.0,0.0,0.0,0.0,0.0,0.0,0.0,0.0,0.0,0.0,0.0,0.0,0.0,0.0,0.0,0.0,0.0,0.0,0.0,0.0,0.0,0.0,0.0,0.0,0.0,0.0,0.0,0.0,0.0,0.0,0.0,0.0,0.0,0.0,0.0,0.0,0.0,0.0,0.0,0.0,0.0,0.0,0.0,0.0,0.0,0.0,0.0,0.0,0.0,0.0,0.0,0.0,0.0,0.0,0.0,0.0,0.0,0.0,0.0,0.0,0.0,0.0,0.0,0.0,0.0,0.0,0.0,0.0,0.0,0.0,0.0,0.0,0.0,0.0,0.0,0.0,0.0,0.0,0.0,0.0,0.0,0.0,0.0,0.0,0.0,0.0,0.0,0.0,0.0,0.0,0.0,0.0,0.0,0.0,0.0,0.0,0.0,0.0,0.0,0.0,0.0,0.0,0.0,0.0,0.0,0.0,0.0,0.0,0.0,0.0,0.0,0.0,0.0,0.0,0.0,0.0,0.0,0.0,0.0,0.0,0.0,0.0,0.0,0.0,0.0,0.0,0.0,0.0,0.0,0.0,0.0,0.0,0.0,0.0,0.0,0.0,0.0,0.0,0.0,0.0,0.0,0.0,0.0,0.0,0.0,0.0,0.0,0.0,0.0,0.0,0.0,0.0,0.0,0.0,0.0,0.0,0.0,0.0,0.0,0.0,0.0,0.0,0.0,0.0,0.0,0.0,0.0,0.0,0.0,0.0,0.0,0.0,0.0,0.0,0.0,0.0,0.0,0.0,0.0,0.0,0.0,0.0,0.0,0.0,0.0,0.0,0.0,0.0,0.0,0.0,0.0,0.0,0.0,0.0,0.0,0.0,0.0,0.0,0.0,0.0,0.0,0.0,0.0,0.0,0.0,0.0,0.0,0.0,0.0,0.0,0.0,0.0,0.0,0.0,0.0,0.0,0.0,0.0,0.0,0.0,0.0,0.0,0.0,0.0,0.0,0.0,0.0,0.0,0.0,0.0,0.0,0.0,0.0,0.0,0.0,0.0,0.0,0.0,0.0,0.0,0.0,0.0,0.0,0.0,0.0,0.0,0.0,0.0,0.0,0.0,0.0,0.0,0.0,0.0,0.0,0.0,0.0,0.0,0.0,0.0,0.0,0.0,0.0,0.0,0.0,0.0,0.0,0.0,0.0,0.0,0.0,0.0,0.0,0.0,0.0,0.0,0.0,0.0,0.0,0.0,0.0,0.0,0.0,0.0,0.0,0.0,0.0,0.0,0.0,0.0,0.0,0.0,0.0,0.0,0.0,0.0,0.0,0.0,0.0,0.0,0.0,0.0,0.0,0.0,0.0,0.0,0.0,0.0,0.0,0.0,0.0,0.0,0.0,0.0,0.0,0.0,0.0,0.0,0.0,0.0,0.0,0.0,0.0,0.0,0.0,0.0,0.0,0.0,0.0,0.0,0.0,0.0,0.0,0.0,0.0,0.0,0.0,0.0,0.0,0.0,0.0,0.0,0.0,0.0,0.0,0.0,0.0,0.0,0.0,0.0,0.0,0.0,0.0,0.0,0.0,0.0,0.0,0.0,0.0,0.0,0.0,0.0,0.0,0.0,0.0,0.0,0.0,0.0,0.0,0.0,0.0,0.0,0.0,0.0,0.0,0.0,0.0,0.0,0.0,0.0,0.0,0.0,0.0,0.0,0.0,0.0,0.0,0.0,0.0,0.0,0.0,0.0,0.0,0.0,0.0,0.0,0.0,0.0,0.0,0.0,0.0,0.0,0.0,0.0,0.0,0.0,0.0,0.0,0.0,0.0,0.0,0.0,0.0,0.0,0.0,0.0,0.0,0.0,0.0,0.0,0.0,0.0,0.0,0.0,0.0,0.0,0.0,0.0,0.0,0.0,0.0,0.0,0.0,0.0,0.0,0.0,0.0,0.0,0.0,0.0,0.0,0.0,0.0,0.0,0.0,0.0,0.0,0.0,0.0,0.0,0.0,0.0,0.0,0.0,0.0,0.0,0.0,0.0,0.0,0.0,0.0,0.0,0.0,0.0,0.0,0.0,0.0,0.0,0.0,0.0,0.0,0.0,0.0,0.0,0.0,0.0,0.0,0.0,0.0,0.0,0.0,0.0,0.0,0.0,0.0,0.0,0.0,0.0,0.0,0.0,0.0,0.0,0.0,0.0,0.0,0.0,0.0,0.0,0.0,0.0,0.0,0.0,0.0,0.0,0.0,0.0,0.0,0.0,0.0,0.0,0.0,0.0,0.0,0.0,0.0,0.0,0.0,0.0,0.0,0.0,0.0,0.0,0.0,0.0,0.0,0.0,0.0,0.0,0.0,0.0,0.0,0.0,0.0,0.0,0.0,0.0,0.0,0.0,0.0,0.0,0.0,0.0,0.0,0.0,0.0,0.0,0.0,0.0,0.0,0.0,0.0,0.0,0.0,0.0,0.0,0.0,0.0,0.0,0.0,0.0,0.0,0.0,0.0,0.0,0.0,0.0,0.0,0.0,0.0,0.0,0.0,0.0,0.0,0.0,0.0,0.0,0.0,0.0,0.0,0.0,0.0,0.0,0.0,0.0,0.0,0.0,0.0,0.0,0.0,0.0,0.0,0.0,0.0,0.0,0.0,0.0,0.0,0.0,0.0,0.0,0.0,0.0,0.0,0.0,0.0,0.0,0.0,0.0,0.0,0.0,0.0,0.0,0.0,0.0,0.0,0.0,0.0,0.0,0.0,0.0,0.0,0.0,0.0,0.0,0.0,0.0,0.0,0.0,0.0,0.0,0.0,0.0,0.0,0.0,0.0,0.0,0.0,0.0,0.0,0.0,0.0,0.0,0.0,0.0,0.0,0.0,0.0,0.0,0.0,0.0,0.0,0.0,0.0,0.0,0.0,0.0,0.0,0.0,0.0,0.0,0.0,0.0,0.0,0.0,0.0,0.0,0.0,0.0,0.0,0.0,0.0,0.0,0.0,0.0,0.0,0.0,0.0,0.0,0.0,0.0,0.0,0.0,0.0,0.0,0.0,0.0,0.0,0.0,0.0,0.0,0.0,0.0,0.0,0.0,0.0,0.0,0.0,0.0,0.0,0.0,0.0,0.0,0.0,0.0,0.0,0.0,0.0,0.0,0.0,0.0,0.0,0.0,0.0,0.0,0.0,0.0,0.0,0.0,0.0,0.0,0.0,0.0,0.0,0.0,0.0,0.0,0.0,0.0,0.0,0.0,0.0,0.0,0.0,0.0,0.0,0.0,0.0,0.0,0.0,0.0,0.0,0.0,0.0,0.0,0.0,0.0,0.0,0.0,0.0,0.0,0.0,0.0,0.0,0.0,0.0,0.0,0.0,0.0,0.0,0.0,0.0,0.0,0.0,0.0,0.0,0.0,0.0,0.0,0.0,0.0,0.0,0.0,0.0,0.0,0.0,0.0,0.0,0.0,0.0,0.0,0.0,0.0,0.0,0.0,0.0,0.0,0.0,0.0,0.0,0.0,0.0,0.0,0.0,0.0,0.0,0.0,0.0,0.0,0.0,0.0,0.0,0.0,0.0,0.0,0.0,0.0,0.0,0.0,0.0,0.0,0.0,0.0,0.0,0.0,0.0,0.0,0.0,0.0,0.0,0.0,0.0,0.0,0.0,0.0,0.0,0.0,0.0,0.0,0.0,0.0,0.0,0.0,0.0,0.0,0.0,0.0,0.0,0.0,0.0,0.0,0.0,0.0,0.0,0.0,0.0,0.0,0.0,0.0,0.0,0.0,0.0,0.0,0.0,0.0,0.0,0.0,0.0,0.0,0.0,0.0,0.0,0.0,0.0,0.0,0.0,0.0,0.0,0.0,0.0,0.0,0.0,0.0,0.0,0.0,0.0,0.0,0.0,0.0,0.0,0.0,0.0,0.0,0.0,0.0,0.0,0.0,0.0,0.0,0.0,0.0,0.0,0.0,0.0,0.0,0.0,0.0,0.0,0.0,0.0,0.0,0.0,0.0,0.0,0.0,0.0,0.0,0.0,0.0,0.0,0.0,0.0,0.0,0.0,0.0,0.0,0.0,3.0609,0.0,0.0,0.0,0.0,0.0,0.0,0.0,0.0,0.0,0.0,0.0,0.0,0.0,0.0,0.0,0.0,0.0,0.0,0.0,0.0,0.0,0.0,0.0,0.0,0.0,0.0,0.0,0.0,0.0,0.0,0.0,0.0,0.0,0.0,0.0,0.0,0.0,0.0,0.0,0.0,0.0,0.0,0.0,0.0,0.0,0.0,0.0,0.0,0.0,0.0,0.0,0.0,0.0,0.0,0.0,0.0,0.0,0.0,0.0,0.0,0.0,0.0,0.0,0.0,0.0,0.0,0.0,0.0,0.0,0.0,0.0,0.0,0.0,0.0,0.0,0.0,0.0,0.0,0.0,0.0,0.0,0.0,0.0,0.0,0.0,0.0,0.0,0.0,0.0,0.0,0.0,0.0,0.0,0.0,0.0,0.0,0.0,0.0,0.0,0.0,0.0,0.0,0.0,0.0,0.0,0.0,0.0,0.0,0.0,0.0,3.0564,3.0554,3.0575,3.0586,3.0552,0.0,0.0,0.0,0.0,0.0,0.0,0.0,0.0,0.0,0.0,0.0,0.0,0.0,0.0,0.0,0.0,0.0,0.0,0.0,0.0,0.0,0.0,0.0,0.0,0.0,0.0,0.0,0.0,0.0,0.0,0.0,0.0,0.0,0.0,0.0,0.0,0.0,0.0,0.0,0.0,0.0,0.0,0.0,0.0,0.0,0.0,0.0,0.0,0.0,0.0,0.0,0.0,0.0,0.0,0.0,0.0,0.0,0.0,0.0,0.0,0.0,0.0,0.0,0.0,0.0,0.0,0.0,0.0,0.0,0.0,0.0,0.0,0.0,0.0,0.0,0.0,0.0,0.0,0.0,0.0,0.0,0.0,0.0,0.0,0.0,0.0,0.0,0.0,0.0,0.0,0.0,0.0,0.0,0.0,0.0,0.0,0.0,0.0,0.0,0.0,0.0,0.0,0.0,0.0,0.0,0.0,0.0,0.0,0.0,0.0,0.0,0.0,3.05,3.0474,3.0487,0.0,0.0,0.0,0.0,0.0,0.0,0.0,0.0,0.0,0.0,0.0,0.0,0.0,0.0,0.0,0.0,0.0,0.0,0.0,0.0,0.0,0.0,0.0,0.0,0.0,0.0,0.0,0.0,0.0,0.0,0.0,0.0,0.0,0.0,0.0,0.0,0.0,0.0,0.0,0.0,0.0,0.0,0.0,0.0,0.0,0.0,0.0,0.0,0.0,0.0,0.0,0.0,0.0,0.0,0.0,0.0,0.0,0.0,0.0,0.0,0.0,0.0,0.0,0.0,0.0,0.0,0.0,0.0,0.0,0.0,0.0,0.0,0.0,0.0,0.0,0.0,0.0,0.0,0.0,0.0,0.0,0.0,0.0,0.0,0.0,0.0,0.0,0.0,0.0,0.0,0.0,0.0,0.0,0.0,0.0,0.0,0.0,0.0,0.0,0.0,0.0,0.0,0.0,0.0,0.0,0.0,0.0,0.0,0.0,0.0,3.0487,3.0485,3.0485,0.0,3.0411,0.0,0.0,0.0,0.0,0.0,0.0,0.0,0.0,0.0,0.0,0.0,0.0,0.0,0.0,0.0,0.0,0.0,0.0,0.0,0.0,0.0,0.0,0.0,0.0,0.0,0.0,0.0,0.0,0.0,0.0,0.0,0.0,0.0,0.0,0.0,0.0,0.0,0.0,0.0,0.0,0.0,0.0,0.0,0.0,0.0,0.0,0.0,0.0,0.0,0.0,0.0,0.0,0.0,0.0,0.0,0.0,0.0,0.0,0.0,0.0,0.0,0.0,0.0,0.0,0.0,0.0,0.0,0.0,0.0,0.0,0.0,0.0,0.0,0.0,0.0,0.0,0.0,0.0,0.0,0.0,0.0,0.0,0.0,0.0,0.0,0.0,0.0,0.0,0.0,0.0,0.0,0.0,0.0,0.0,0.0,0.0,0.0,0.0,0.0,0.0,0.0,0.0,0.0,0.0,0.0,0.0,0.0,0.0,0.0,0.0,3.1237,3.1198,3.1186,3.1103,0.0,0.0,0.0,0.0,0.0,0.0,0.0,0.0,0.0,0.0,0.0,0.0,0.0,0.0,0.0,0.0,0.0,0.0,0.0,0.0,0.0,0.0,0.0,0.0,0.0,0.0,0.0,0.0,0.0,0.0,0.0,0.0,0.0,0.0,0.0,0.0,0.0,0.0,0.0,0.0,0.0,0.0,0.0,0.0,0.0,0.0,0.0,0.0,0.0,0.0,0.0,0.0,0.0,0.0,0.0,0.0,0.0,0.0,0.0,0.0,0.0,0.0,0.0,0.0,0.0,0.0,0.0,0.0,0.0,0.0,0.0,0.0,0.0,0.0,0.0,0.0,0.0,0.0,0.0,0.0,0.0,0.0,0.0,0.0,0.0,0.0,0.0,0.0,0.0,0.0,0.0,0.0,0.0,0.0,0.0,0.0,0.0,0.0,0.0,0.0,0.0,0.0,0.0,0.0,0.0,0.0,0.0,0.0,0.0,0.0,3.1664,3.2017,3.2013,3.1956,3.1805,3.1559,0.0,0.0,0.0,0.0,0.0,0.0,0.0,0.0,0.0,0.0,0.0,0.0,0.0,0.0,0.0,0.0,0.0,0.0,0.0,0.0,0.0,0.0,0.0,0.0,0.0,0.0,0.0,0.0,0.0,0.0,0.0,0.0,0.0,0.0,0.0,0.0,0.0,0.0,0.0,0.0,0.0,0.0,0.0,0.0,0.0,0.0,0.0,0.0,0.0,0.0,0.0,0.0,0.0,0.0,0.0,0.0,0.0,0.0,0.0,0.0,0.0,0.0,0.0,0.0,0.0,0.0,0.0,0.0,0.0,0.0,0.0,0.0,0.0,0.0,0.0,0.0,0.0,0.0,0.0,0.0,0.0,0.0,0.0,0.0,0.0,0.0,0.0,0.0,0.0,0.0,0.0,0.0,0.0,0.0,0.0,0.0,0.0,0.0,0.0,0.0,0.0,0.0,0.0,0.0,0.0,0.0,0.0,0.0,3.267,3.2708,3.2746,3.2785,3.2743,3.2394,0.0,0.0,0.0,0.0,0.0,0.0,0.0,0.0,0.0,0.0,0.0,0.0,0.0,0.0,0.0,0.0,0.0,0.0,0.0,0.0,0.0,0.0,0.0,0.0,0.0,0.0,0.0,0.0,0.0,0.0,0.0,0.0,0.0,0.0,0.0,0.0,0.0,0.0,0.0,0.0,0.0,0.0,0.0,0.0,0.0,0.0,0.0,0.0,0.0,0.0,0.0,0.0,0.0,0.0,0.0,0.0,0.0,0.0,0.0,0.0,0.0,0.0,0.0,0.0,0.0,0.0,0.0,0.0,0.0,0.0,0.0,0.0,0.0,0.0,0.0,0.0,0.0,0.0,0.0,0.0,0.0,0.0,0.0,0.0,0.0,0.0,0.0,0.0,0.0,0.0,0.0,0.0,0.0,0.0,0.0,0.0,0.0,0.0,0.0,0.0,0.0,0.0,0.0,0.0,0.0,0.0,0.0,0.0,0.0,3.282,3.3322,3.3886,3.4354,3.386,3.3424,0.0,0.0,0.0,0.0,0.0,0.0,0.0,0.0,0.0,0.0,0.0,0.0,0.0,0.0,0.0,0.0,0.0,0.0,0.0,0.0,0.0,0.0,0.0,0.0,0.0,0.0,0.0,0.0,0.0,0.0,0.0,0.0,0.0,0.0,0.0,0.0,0.0,0.0,0.0,0.0,0.0,0.0,0.0,0.0,0.0,0.0,0.0,0.0,0.0,0.0,0.0,0.0,0.0,0.0,0.0,0.0,0.0,0.0,0.0,0.0,0.0,0.0,0.0,0.0,0.0,0.0,0.0,0.0,0.0,0.0,0.0,0.0,0.0,0.0,0.0,0.0,0.0,0.0,0.0,0.0,0.0,0.0,0.0,0.0,0.0,0.0,0.0,0.0,0.0,0.0,0.0,0.0,0.0,0.0,0.0,0.0,0.0,0.0,0.0,0.0,0.0,0.0,0.0,0.0,0.0,0.0,0.0,0.0,0.0,3.4006,0.0,3.4841,3.5613,3.4848,3.4267,0.0,0.0,0.0,0.0,0.0,0.0,0.0,0.0,0.0,0.0,0.0,0.0,0.0,0.0,0.0,0.0,0.0,0.0,0.0,0.0,0.0,0.0,0.0,0.0,0.0,0.0,0.0,0.0,0.0,0.0,0.0,0.0,0.0,0.0,0.0,0.0,0.0,0.0,0.0,0.0,0.0,0.0,0.0,0.0,0.0,0.0,0.0,0.0,0.0,0.0,0.0,0.0,0.0,0.0,0.0,0.0,0.0,0.0,0.0,0.0,0.0,0.0,0.0,0.0,0.0,0.0,0.0,0.0,0.0,0.0,0.0,0.0,0.0,0.0,0.0,0.0,0.0,0.0,0.0,0.0,0.0,0.0,0.0,0.0,0.0,0.0,0.0,0.0,0.0,0.0,0.0,0.0,0.0,0.0,0.0,0.0,0.0,0.0,0.0,0.0,0.0,0.0,0.0,0.0,0.0,0.0,0.0,0.0,3.5645,3.6409,3.5687,3.5649,3.6443,3.5649,3.4846,0.0,0.0,0.0,0.0,0.0,0.0,0.0,0.0,0.0,0.0,0.0,0.0,0.0,0.0,0.0,0.0,0.0,0.0,0.0,0.0,0.0,0.0,0.0,0.0,0.0,0.0,0.0,0.0,0.0,0.0,0.0,0.0,0.0,0.0,0.0,0.0,0.0,0.0,0.0,0.0,0.0,0.0,0.0,0.0,0.0,0.0,0.0,0.0,0.0,0.0,0.0,0.0,0.0,0.0,0.0,0.0,0.0,0.0,0.0,0.0,0.0,0.0,0.0,0.0,0.0,0.0,0.0,0.0,0.0,0.0,0.0,0.0,0.0,0.0,0.0,0.0,0.0,0.0,0.0,0.0,0.0,0.0,0.0,0.0,0.0,0.0,0.0,0.0,0.0,0.0,0.0,0.0,0.0,0.0,0.0,0.0,0.0,0.0,0.0,0.0,0.0,0.0,0.0,0.0,0.0,0.0,0.0,0.0,0.0,3.733,3.7063,3.7058,3.7287,3.6523,3.5989,0.0,0.0,0.0,0.0,0.0,0.0,0.0,0.0,0.0,0.0,0.0,0.0,0.0,0.0,0.0,0.0,0.0,0.0,0.0,0.0,0.0,0.0,0.0,0.0,0.0,0.0,0.0,0.0,0.0,0.0,0.0,0.0,0.0,0.0,0.0,0.0,0.0,0.0,0.0,0.0,0.0,0.0,0.0,0.0,0.0,0.0,0.0,0.0,0.0,0.0,0.0,0.0,0.0,0.0,0.0,0.0,0.0,0.0,0.0,0.0,0.0,0.0,0.0,0.0,0.0,0.0,0.0,0.0,0.0,0.0,0.0,0.0,0.0,0.0,0.0,0.0,0.0,0.0,0.0,0.0,0.0,0.0,0.0,0.0,0.0,0.0,0.0,0.0,0.0,0.0,0.0,0.0,0.0,0.0,0.0,0.0,0.0,0.0,0.0,0.0,0.0,0.0,0.0,0.0,0.0,0.0,0.0,0.0,0.0,4.0005,3.9164,3.8667,3.8663,3.7861,3.7135,3.6519,0.0,0.0,0.0,0.0,0.0,0.0,0.0,0.0,0.0,0.0,0.0,0.0,0.0,0.0,0.0,0.0,0.0,0.0,0.0,0.0,0.0,0.0,0.0,0.0,0.0,0.0,0.0,0.0,0.0,0.0,0.0,0.0,0.0,0.0,0.0,0.0,0.0,0.0,0.0,0.0,0.0,0.0,0.0,0.0,0.0,0.0,0.0,0.0,0.0,0.0,0.0,0.0,0.0,0.0,0.0,0.0,0.0,0.0,0.0,0.0,0.0,0.0,0.0,0.0,0.0,0.0,0.0,0.0,0.0,0.0,0.0,0.0,0.0,0.0,0.0,0.0,0.0,0.0,0.0,0.0,0.0,0.0,0.0,0.0,0.0,0.0,0.0,0.0,0.0,0.0,0.0,0.0,0.0,0.0,0.0,0.0,0.0,0.0,0.0,0.0,0.0,0.0,0.0,0.0,0.0,0.0,0.0,0.0,4.405,4.1867,4.0683,4.0492,3.958,3.8319,0.0,0.0,0.0,0.0,0.0,0.0,0.0,0.0,0.0,0.0,0.0,0.0,0.0,0.0,0.0,0.0,0.0,0.0,0.0,0.0,0.0,0.0,0.0,0.0,0.0,0.0,0.0,0.0,0.0,0.0,0.0,0.0,0.0,0.0,0.0,0.0,0.0,0.0,0.0,0.0,0.0,0.0,0.0,0.0,0.0,0.0,0.0,0.0,0.0,0.0,0.0,0.0,0.0,0.0,0.0,0.0,0.0,0.0,0.0,0.0,0.0,0.0,0.0,0.0,0.0,0.0,0.0,0.0,0.0,0.0,0.0,0.0,0.0,0.0,0.0,0.0,0.0,0.0,0.0,0.0,0.0,0.0,0.0,0.0,0.0,0.0,0.0,0.0,0.0,0.0,0.0,0.0,0.0,0.0,0.0,0.0,0.0,0.0,0.0,0.0,0.0,0.0,0.0,0.0,0.0,0.0,0.0,0.0,0.0,4.4934,4.5501,4.4923,4.309,4.1031,3.9771,0.0,0.0,0.0,0.0,0.0,0.0,0.0,0.0,0.0,0.0,0.0,0.0,0.0,0.0,0.0,0.0,0.0,0.0,0.0,0.0,0.0,0.0,0.0,0.0,0.0,0.0,0.0,0.0,0.0,0.0,0.0,0.0,0.0,0.0,0.0,0.0,0.0,0.0,0.0,0.0,0.0,0.0,0.0,0.0,0.0,0.0,0.0,0.0,0.0,0.0,0.0,0.0,0.0,0.0,0.0,0.0,0.0,0.0,0.0,0.0,0.0,0.0,0.0,0.0,0.0,0.0,0.0,0.0,0.0,0.0,0.0,0.0,0.0,0.0,0.0,0.0,0.0,0.0,0.0,0.0,0.0,0.0,0.0,0.0,0.0,0.0,0.0,0.0,0.0,0.0,0.0,0.0,0.0,0.0,0.0,0.0,0.0,0.0,0.0,0.0,0.0,0.0,0.0,0.0,0.0,0.0,0.0,0.0,4.5654,4.6888,4.7837,4.7646,4.6156,4.3711,4.1877,0.0,0.0,0.0,0.0,0.0,0.0,0.0,0.0,0.0,0.0,0.0,0.0,0.0,0.0,0.0,0.0,0.0,0.0,0.0,0.0,0.0,0.0,0.0,0.0,0.0,0.0,0.0,0.0,0.0,0.0,0.0,0.0,0.0,0.0,0.0,0.0,0.0,0.0,0.0,0.0,0.0,0.0,0.0,0.0,0.0,0.0,0.0,0.0,0.0,0.0,0.0,0.0,0.0,0.0,0.0,0.0,0.0,0.0,0.0,0.0,0.0,0.0,0.0,0.0,0.0,0.0,0.0,0.0,0.0,0.0,0.0,0.0,0.0,0.0,0.0,0.0,0.0,0.0,0.0,0.0,0.0,0.0,0.0,0.0,0.0,0.0,0.0,0.0,0.0,0.0,0.0,0.0,0.0,0.0,0.0,0.0,0.0,0.0,0.0,0.0,0.0,0.0,0.0,0.0,0.0,0.0,0.0,0.0,4.7532,4.9333,4.9448,4.9486,4.941,4.6773,4.4213,0.0,0.0,0.0,0.0,0.0,0.0,0.0,0.0,0.0,0.0,0.0,0.0,0.0,0.0,0.0,0.0,0.0,0.0,0.0,0.0,0.0,0.0,0.0,0.0,0.0,0.0,0.0,0.0,0.0,0.0,0.0,0.0,0.0,0.0,0.0,0.0,0.0,0.0,0.0,0.0,0.0,0.0,0.0,0.0,0.0,0.0,0.0,0.0,0.0,0.0,0.0,0.0,0.0,0.0,0.0,0.0,0.0,0.0,0.0,0.0,0.0,0.0,0.0,0.0,0.0,0.0,0.0,0.0,0.0,0.0,0.0,0.0,0.0,0.0,0.0,0.0,0.0,0.0,0.0,0.0,0.0,0.0,0.0,0.0,0.0,0.0,0.0,0.0,0.0,0.0,0.0,0.0,0.0,0.0,0.0,0.0,0.0,0.0,0.0,0.0,0.0,0.0,0.0,0.0,0.0,0.0,0.0,0.0,4.8672,5.1003,5.1658,5.2008,5.197,4.7652,4.5053,0.0,0.0,0.0,0.0,0.0,0.0,0.0,0.0,0.0,0.0,0.0,0.0,0.0,0.0,0.0,0.0,0.0,0.0,0.0,0.0,0.0,0.0,0.0,0.0,0.0,0.0,0.0,0.0,0.0,0.0,0.0,0.0,0.0,0.0,0.0,0.0,0.0,0.0,0.0,0.0,0.0,0.0,0.0,0.0,0.0,0.0,0.0,0.0,3.639,0.0,0.0,0.0,0.0,0.0,0.0,0.0,0.0,0.0,0.0,0.0,0.0,0.0,0.0,0.0,0.0,0.0,0.0,0.0,0.0,0.0,0.0,0.0,0.0,0.0,0.0,0.0,0.0,0.0,0.0,0.0,0.0,0.0,0.0,0.0,0.0,0.0,0.0,0.0,0.0,0.0,0.0,0.0,0.0,0.0,0.0,0.0,0.0,0.0,0.0,0.0,0.0,0.0,0.0,0.0,0.0,0.0,0.0,0.0,5.001,5.2073,5.2575,5.2811,5.2696,4.9862,4.7685,0.0,0.0,0.0,0.0,0.0,0.0,0.0,0.0,0.0,0.0,0.0,0.0,0.0,0.0,0.0,0.0,0.0,0.0,0.0,0.0,0.0,0.0,0.0,0.0,0.0,0.0,0.0,0.0,0.0,0.0,0.0,0.0,0.0,0.0,0.0,0.0,0.0,0.0,0.0,0.0,0.0,0.0,0.0,0.0,0.0,0.0,0.0,0.0,0.0,0.0,0.0,0.0,0.0,0.0,0.0,0.0,0.0,0.0,0.0,0.0,0.0,0.0,0.0,0.0,0.0,0.0,0.0,0.0,0.0,0.0,0.0,0.0,0.0,0.0,0.0,0.0,0.0,0.0,0.0,0.0,0.0,0.0,0.0,0.0,0.0,0.0,0.0,0.0,0.0,0.0,0.0,0.0,0.0,0.0,0.0,0.0,0.0,0.0,0.0,0.0,0.0,0.0,0.0,0.0,0.0,0.0,0.0,4.9627,5.1391,5.3116,5.3187,5.3193,5.3187,5.2384,5.0774,4.8252,0.0,0.0,0.0,0.0,0.0,0.0,0.0,0.0,0.0,0.0,0.0,0.0,0.0,0.0,0.0,0.0,0.0,0.0,0.0,0.0,0.0,0.0,0.0,0.0,0.0,0.0,0.0,0.0,0.0,0.0,0.0,0.0,0.0,0.0,0.0,0.0,0.0,0.0,3.5163,3.7349,0.0,0.0,0.0,0.0,0.0,0.0,0.0,0.0,4.0837,0.0,0.0,0.0,0.0,0.0,0.0,0.0,0.0,0.0,0.0,0.0,0.0,0.0,0.0,0.0,0.0,0.0,0.0,0.0,0.0,0.0,0.0,0.0,0.0,0.0,0.0,0.0,0.0,0.0,0.0,0.0,0.0,0.0,0.0,0.0,0.0,0.0,0.0,0.0,0.0,0.0,0.0,0.0,0.0,0.0,0.0,0.0,0.0,0.0,0.0,0.0,0.0,0.0,0.0,0.0,0.0,4.8831,5.0512,5.2569,5.49,5.4982,5.4982,5.4938,5.4142,5.2499,4.9939,0.0,0.0,0.0,0.0,0.0,0.0,0.0,0.0,0.0,0.0,0.0,0.0,0.0,0.0,0.0,0.0,0.0,0.0,0.0,0.0,0.0,0.0,0.0,0.0,0.0,0.0,0.0,0.0,0.0,0.0,0.0,0.0,0.0,0.0,0.0,0.0,0.0,0.0,0.0,3.9342,4.0604,0.0,0.0,0.0,0.0,0.0,0.0,0.0,0.0,4.264,0.0,0.0,0.0,0.0,0.0,0.0,0.0,0.0,0.0,0.0,0.0,0.0,0.0,0.0,0.0,0.0,0.0,0.0,0.0,0.0,0.0,0.0,0.0,0.0,0.0,0.0,0.0,0.0,0.0,0.0,0.0,0.0,0.0,0.0,0.0,0.0,0.0,0.0,0.0,0.0,0.0,0.0,0.0,0.0,0.0,0.0,0.0,0.0,0.0,0.0,0.0,0.0,0.0,0.0,0.0,4.9677,5.1811,5.3715,5.532,5.5396,5.5396,5.5358,5.4562,5.2919,0.0,0.0,0.0,0.0,0.0,0.0,0.0,0.0,0.0,0.0,0.0,0.0,0.0,0.0,0.0,0.0,0.0,0.0,0.0,0.0,0.0,0.0,0.0,0.0,0.0,0.0,0.0,0.0,0.0,0.0,0.0,0.0,0.0,0.0,0.0,0.0,0.0,0.0,0.0,0.0,4.127,4.29,4.5584,0.0,0.0,0.0,0.0,0.0,0.0,4.6754,4.5993,0.0,0.0,0.0,0.0,0.0,0.0,0.0,0.0,0.0,0.0,0.0,0.0,0.0,0.0,0.0,0.0,0.0,0.0,0.0,0.0,0.0,0.0,0.0,0.0,0.0,0.0,0.0,0.0,0.0,0.0,0.0,0.0,0.0,0.0,0.0,0.0,0.0,0.0,0.0,0.0,0.0,0.0,0.0,0.0,0.0,0.0,0.0,0.0,0.0,0.0,0.0,0.0,0.0,0.0,0.0,5.0283,5.2805,5.4518,5.5358,5.5396,5.5396,5.5358,5.4371,5.2728,0.0,0.0,0.0,0.0,0.0,0.0,0.0,0.0,0.0,0.0,0.0,0.0,0.0,0.0,0.0,0.0,0.0,0.0,0.0,0.0,0.0,0.0,0.0,0.0,0.0,0.0,0.0,0.0,0.0,0.0,0.0,0.0,0.0,0.0,0.0,0.0,0.0,0.0,0.0,0.0,0.0,4.53,4.8034,4.7689,0.0,0.0,0.0,0.0,4.9585,4.9608,0.0,0.0,0.0,0.0,0.0,0.0,0.0,0.0,0.0,0.0,0.0,0.0,0.0,0.0,0.0,0.0,0.0,0.0,0.0,0.0,0.0,0.0,0.0,0.0,0.0,0.0,0.0,0.0,0.0,0.0,0.0,0.0,0.0,0.0,0.0,0.0,0.0,0.0,0.0,0.0,0.0,0.0,0.0,0.0,0.0,0.0,0.0,0.0,0.0,0.0,0.0,0.0,0.0,0.0,0.0,0.0,5.0321,5.2805,5.4524,5.5358,5.5396,5.5396,5.5358,5.3798,5.2123,0.0,0.0,0.0,0.0,0.0,0.0,0.0,0.0,0.0,0.0,0.0,0.0,0.0,0.0,0.0,0.0,0.0,0.0,0.0,0.0,0.0,0.0,0.0,0.0,0.0,0.0,0.0,0.0,0.0,0.0,0.0,0.0,0.0,0.0,0.0,0.0,0.0,0.0,0.0,0.0,0.0,4.7026,4.9811,4.9459,4.9191,0.0,0.0,5.0558,5.1462,5.1556,0.0,0.0,0.0,0.0,0.0,0.0,0.0,0.0,0.0,0.0,0.0,0.0,0.0,0.0,0.0,0.0,0.0,0.0,0.0,0.0,0.0,0.0,0.0,0.0,0.0,0.0,0.0,0.0,0.0,0.0,0.0,0.0,0.0,0.0,0.0,0.0,0.0,0.0,0.0,0.0,0.0,0.0,0.0,0.0,0.0,0.0,0.0,0.0,0.0,0.0,0.0,0.0,0.0,0.0,0.0,4.9366,5.1041,5.3524,5.5014,5.5396,5.5396,5.5396,5.5396,5.3722,5.2008,0.0,0.0,0.0,0.0,0.0,0.0,0.0,0.0,0.0,0.0,0.0,0.0,0.0,0.0,0.0,0.0,0.0,0.0,0.0,0.0,0.0,0.0,0.0,0.0,0.0,0.0,0.0,0.0,0.0,0.0,0.0,0.0,0.0,0.0,0.0,0.0,0.0,0.0,0.0,0.0,0.0,0.0,5.0172,5.1036,0.0,0.0,0.0,5.268,5.2656,0.0,0.0,0.0,0.0,0.0,0.0,0.0,0.0,0.0,0.0,0.0,0.0,0.0,0.0,0.0,0.0,0.0,0.0,0.0,0.0,0.0,0.0,0.0,0.0,0.0,0.0,0.0,0.0,0.0,0.0,0.0,0.0,0.0,0.0,0.0,0.0,0.0,0.0,0.0,0.0,0.0,0.0,0.0,0.0,0.0,0.0,0.0,0.0,0.0,0.0,0.0,0.0,0.0,0.0,0.0,0.0,0.0,5.1614,5.4097,5.5396,5.5396,5.5396,5.5396,5.5358,5.3722,0.0,0.0,0.0,0.0,0.0,0.0,0.0,0.0,0.0,0.0,0.0,0.0,0.0,0.0,0.0,0.0,0.0,0.0,0.0,0.0,0.0,0.0,0.0,0.0,0.0,0.0,0.0,3.6174,0.0,0.0,0.0,0.0,0.0,0.0,0.0,0.0,0.0,0.0,0.0,0.0,0.0,0.0,4.9285,5.0911,5.2444,5.3546,0.0,0.0,5.4227,5.3879,5.4287,5.3837,0.0,0.0,0.0,0.0,0.0,0.0,0.0,0.0,0.0,0.0,0.0,0.0,0.0,0.0,0.0,0.0,0.0,0.0,0.0,0.0,0.0,0.0,0.0,0.0,0.0,0.0,0.0,0.0,0.0,0.0,0.0,0.0,0.0,0.0,0.0,0.0,0.0,0.0,0.0,0.0,0.0,0.0,0.0,0.0,0.0,0.0,0.0,0.0,0.0,0.0,0.0,0.0,0.0,0.0,0.0,5.1652,5.4097,5.5396,5.5396,5.5396,5.5396,5.5358,5.3683,5.2384,0.0,0.0,0.0,0.0,0.0,0.0,0.0,0.0,0.0,0.0,0.0,0.0,0.0,0.0,0.0,0.0,0.0,0.0,0.0,0.0,0.0,0.0,0.0,0.0,0.0,0.0,0.0,0.0,0.0,0.0,0.0,0.0,0.0,0.0,0.0,0.0,0.0,0.0,0.0,0.0,0.0,5.1691,5.2713,5.3749,5.4664,0.0,0.0,5.4698,5.5439,5.5544,5.4989,5.3201,0.0,0.0,0.0,0.0,0.0,0.0,0.0,0.0,0.0,0.0,0.0,0.0,0.0,0.0,0.0,0.0,0.0,0.0,0.0,0.0,0.0,0.0,0.0,0.0,0.0,0.0,0.0,0.0,0.0,0.0,0.0,0.0,0.0,0.0,0.0,0.0,0.0,0.0,0.0,0.0,0.0,0.0,0.0,0.0,0.0,0.0,0.0,0.0,0.0,0.0,0.0,0.0,0.0,5.0971,5.2346,5.4365,5.5396,5.5396,5.5396,5.5396,5.5396,5.4218,5.2996,0.0,0.0,0.0,0.0,0.0,0.0,0.0,0.0,0.0,0.0,0.0,0.0,0.0,0.0,0.0,0.0,0.0,0.0,0.0,0.0,0.0,0.0,0.0,0.0,0.0,0.0,0.0,0.0,4.4066,4.4499,4.4182,0.0,0.0,0.0,0.0,0.0,0.0,0.0,0.0,0.0,0.0,5.2208,5.3656,5.466,0.0,0.0,5.5434,5.5357,5.567,5.5708,5.5308,5.4101,5.2746,0.0,0.0,0.0,0.0,0.0,0.0,0.0,0.0,0.0,0.0,0.0,0.0,0.0,0.0,0.0,0.0,0.0,0.0,0.0,0.0,0.0,0.0,0.0,0.0,0.0,0.0,0.0,0.0,0.0,0.0,0.0,0.0,0.0,0.0,0.0,0.0,0.0,0.0,0.0,0.0,0.0,0.0,0.0,0.0,0.0,0.0,0.0,0.0,0.0,0.0,0.0,0.0,5.1391,5.2811,5.4524,5.5396,5.5396,5.5396,5.5396,5.5358,5.4562,5.3569,0.0,0.0,0.0,0.0,0.0,0.0,0.0,0.0,0.0,0.0,0.0,0.0,0.0,0.0,0.0,0.0,0.0,0.0,0.0,0.0,0.0,0.0,0.0,0.0,0.0,0.0,0.0,0.0,4.5989,4.607,4.489,0.0,0.0,0.0,0.0,0.0,0.0,0.0,0.0,0.0,0.0,5.2971,5.42,5.5138,5.5708,5.5708,5.5708,5.5708,5.5708,5.5708,5.5423,5.4583,0.0,0.0,0.0,0.0,0.0,0.0,0.0,0.0,0.0,0.0,0.0,0.0,0.0,0.0,0.0,0.0,0.0,0.0,0.0,0.0,0.0,0.0,0.0,0.0,0.0,0.0,0.0,0.0,0.0,0.0,4.15,0.0,0.0,0.0,0.0,0.0,0.0,0.0,0.0,0.0,0.0,0.0,0.0,0.0,0.0,0.0,0.0,0.0,0.0,0.0,0.0,0.0,0.0,5.1958,5.2811,5.4524,5.5396,5.5396,5.5396,5.5396,5.5358,5.4556,5.4104,5.3989,0.0,0.0,0.0,0.0,0.0,0.0,0.0,0.0,0.0,0.0,0.0,0.0,0.0,0.0,0.0,0.0,0.0,0.0,0.0,0.0,0.0,0.0,0.0,0.0,0.0,0.0,4.5273,4.6348,4.6427,0.0,0.0,0.0,0.0,0.0,0.0,0.0,0.0,0.0,0.0,5.2642,5.4359,5.4403,5.5138,5.5708,5.5708,5.5708,5.5708,5.5708,5.5708,5.5439,0.0,0.0,0.0,0.0,0.0,0.0,0.0,0.0,0.0,0.0,0.0,0.0,0.0,0.0,0.0,0.0,0.0,0.0,0.0,0.0,0.0,0.0,0.0,0.0,0.0,0.0,0.0,4.2598,4.4355,0.0,0.0,0.0,0.0,0.0,0.0,0.0,0.0,0.0,0.0,0.0,5.2346,5.1276,0.0,0.0,0.0,0.0,0.0,0.0,0.0,0.0,0.0,0.0,0.0,0.0,5.2264,5.3645,5.4823,5.5396,5.5396,5.5396,5.5396,5.5396,5.5097,5.4409,5.3263,0.0,0.0,0.0,0.0,0.0,0.0,0.0,0.0,0.0,0.0,0.0,0.0,0.0,0.0,0.0,0.0,0.0,0.0,0.0,0.0,0.0,0.0,0.0,0.0,0.0,4.6277,0.0,0.0,0.0,0.0,0.0,0.0,0.0,0.0,0.0,0.0,0.0,5.1392,5.285,5.3827,5.4606,5.5176,5.5505,5.5901,0.0,0.0,0.0,0.0,0.0,0.0,0.0,0.0,0.0,0.0,0.0,0.0,0.0,0.0,5.1313,4.8473,4.8386,4.8774,4.8769,0.0,0.0,0.0,0.0,0.0,0.0,0.0,0.0,0.0,0.0,0.0,0.0,0.0,0.0,0.0,0.0,4.8563,0.0,0.0,0.0,0.0,0.0,0.0,0.0,0.0,5.3683,5.4371,5.5365,5.3989,5.3607,0.0,5.2728,5.0971,0.0,0.0,0.0,0.0,0.0,0.0,0.0,0.0,5.2989,5.4104,5.5212,5.5708,5.5435,5.567,5.5664,5.5396,5.5396,5.4715,5.3301,5.2461,5.1117,0.0,0.0,0.0,0.0,0.0,0.0,0.0,0.0,0.0,0.0,0.0,0.0,0.0,0.0,0.0,0.0,0.0,0.0,0.0,0.0,0.0,0.0,0.0,4.7636,0.0,0.0,0.0,0.0,0.0,0.0,0.0,0.0,0.0,5.0822,5.1874,5.3168,5.4617,5.5105,5.5401,5.5665,0.0,0.0,0.0,0.0,0.0,0.0,0.0,5.6132,5.6132,5.5972,5.5895,5.6132,5.6132,5.6055,5.5747,0.0,0.0,5.201,5.1918,5.2307,5.2307,5.2285,5.2269,5.2269,5.2258,5.2286,0.0,0.0,0.0,0.0,0.0,0.0,0.0,0.0,5.1614,5.1614,0.0,5.2543,0.0,0.0,0.0,0.0,0.0,0.0,0.0,0.0,5.7466,5.7963,5.7925,5.7122,5.6708,5.6664,5.5899,5.5435,5.5205,5.2117,0.0,0.0,0.0,0.0,0.0,0.0,5.418,5.4333,5.5823,5.6282,5.5549,5.6243,5.6243,5.5473,5.5435,5.5021,5.4142,5.3346,5.2543,5.1691,4.9316,0.0,0.0,0.0,0.0,0.0,0.0,0.0,0.0,0.0,0.0,0.0,0.0,0.0,0.0,0.0,0.0,0.0,0.0,0.0,0.0,4.7788,0.0,0.0,0.0,0.0,0.0,0.0,0.0,0.0,0.0,0.0,5.2061,5.341,5.4704,5.5467,0.0,0.0,0.0,0.0,5.6709,5.5978,5.5824,5.5824,5.5857,5.6516,5.706,5.7022,0.0,0.0,5.7209,5.7099,5.6901,5.6055,5.667,5.6868,5.6071,5.5752,5.5703,5.5703,5.5621,5.5659,5.5654,5.551,5.5558,5.3028,0.0,0.0,0.0,0.0,4.9213,5.0818,5.3378,5.3378,5.4065,5.5174,5.5409,0.0,0.0,0.0,0.0,0.0,0.0,5.6778,5.8383,5.8644,5.9408,6.0485,5.9689,5.9307,5.9269,5.8459,5.7727,5.716,5.6205,5.483,5.3034,0.0,0.0,0.0,0.0,5.5632,5.674,5.7275,5.7428,5.7199,5.7428,5.7129,5.6282,5.5708,5.5282,5.5021,5.4791,5.4256,5.3416,5.2079,0.0,0.0,0.0,0.0,0.0,0.0,0.0,0.0,0.0,0.0,0.0,0.0,0.0,0.0,0.0,0.0,0.0,0.0,0.0,4.7945,4.9286,4.9838,0.0,0.0,0.0,0.0,0.0,0.0,0.0,0.0,0.0,5.5358,5.5407,5.5412,0.0,0.0,5.6209,5.6593,5.6824,5.7324,5.828,0.0,0.0,0.0,5.8127,5.7934,5.7934,5.8621,5.9044,5.8819,5.9286,5.9633,5.9363,5.9517,5.9843,6.02,5.8829,5.7682,5.7544,5.7533,5.7522,5.7522,5.7549,5.7505,5.8001,5.4639,5.3034,5.2875,5.3754,5.3792,5.525,5.7612,5.7619,5.7963,5.8619,5.8963,5.8459,5.739,5.739,0.0,0.0,0.0,5.93,6.0592,6.0592,6.1172,6.2051,6.1631,6.1402,6.1363,6.0516,5.9835,5.9376,5.8689,5.7619,5.6091,0.0,0.0,5.6358,5.6396,5.6893,5.7855,5.823,5.823,5.7925,5.7886,5.7657,5.7129,5.6625,5.6243,5.5899,5.5861,5.5479,5.4639,5.376,5.2467,0.0,0.0,0.0,0.0,0.0,0.0,0.0,0.0,0.0,0.0,0.0,4.5989,4.6206,0.0,0.0,0.0,4.8028,4.8721,5.0062,5.0938,0.0,0.0,0.0,0.0,0.0,0.0,0.0,5.331,5.4583,5.5945,5.7319,5.7049,5.6857,5.7165,5.7203,5.728,5.7473,0.0,5.8242,5.8934,5.8627,5.8473,5.8934,5.889,5.889,5.9242,5.9665,6.0012,6.005,6.0473,6.0781,6.0831,6.1142,6.1481,6.1761,6.0742,6.0104,6.0418,6.0457,6.0379,6.0065,5.9983,5.9867,6.1745,6.1478,5.7619,5.7307,5.937,5.9408,6.0707,6.2884,6.2846,6.2464,6.1776,6.2541,6.2051,6.0606,6.0606,0.0,6.0644,6.1363,6.2166,6.3006,6.3006,6.3045,6.3121,6.3114,6.3037,6.2961,6.2204,6.1784,6.1593,6.0057,5.9293,5.9293,5.8498,5.8077,5.8001,5.7963,5.8039,5.8116,5.8835,5.8835,5.8116,5.8046,5.8014,5.8014,5.7938,5.7524,5.6753,5.6715,5.6365,5.5626,5.483,5.3989,5.3078,0.0,0.0,0.0,0.0,0.0,0.0,0.0,0.0,0.0,0.0,0.0,0.0,0.0,0.0,0.0,5.0368,0.0,5.1918,5.2724,0.0,0.0,0.0,5.3505,5.351,5.428,5.5088,5.5824,0.0,0.0,5.8396,0.0,5.8896,5.9704,5.9621,5.9275,5.8704,5.9242,5.9473,5.9165,5.8896,5.889,5.9473,5.9819,6.0319,6.0896,6.0979,6.1062,6.1058,6.1102,6.1052,6.1147,6.1808,6.2296,6.1478,6.2168,6.2966,6.3683,6.3585,6.3214,6.2298,6.2101,6.1825,6.2968,6.3434,6.1784,6.1471,6.2006,6.2006,6.235,6.2884,6.2884,6.277,6.2617,6.2808,6.2655,6.2311,6.2311,6.2319,6.2319,6.2502,6.3083,6.3893,6.3893,6.4229,6.4802,6.4802,6.4496,6.3893,6.3663,6.3243,6.2541,6.1516,6.1019,6.0974,6.0179,5.9453,5.8835,5.8797,5.9147,5.9804,5.9995,5.9988,5.9804,5.9208,5.889,5.8897,5.8336,5.7953,5.7666,5.7666,5.7564,5.7313,5.7084,5.6587,5.5715,5.3913,0.0,0.0,0.0,0.0,0.0,0.0,0.0,0.0,0.0,5.0407,5.0237,0.0,5.2861,0.0,5.2285,5.2734,5.3629,5.3903,0.0,0.0,5.5708,5.6093,5.6093,5.6857,5.7473,5.7659,5.8396,5.9242,6.0089,6.0787,6.1473,6.2237,6.0737,5.9896,6.0979,6.1364,6.1903,6.2781,6.2968,6.3358,6.3743,6.3666,6.3205,6.2775,6.2704,6.277,6.2923,6.2954,6.297,6.3077,6.3258,6.3602,6.4085,6.4485,6.4725,6.4932,6.34,6.1776,6.1539,6.1543,6.1465,6.2624,6.3052,6.2923,6.2884,6.2884,6.2884,6.3121,6.3465,6.3465,6.3694,6.4038,6.4,6.3809,6.3503,6.3847,6.3809,6.3503,6.3847,6.4267,6.4726,6.4733,6.5001,6.5375,6.5413,6.5184,6.4726,6.4389,6.3931,6.3465,6.2579,6.2197,6.2166,6.1745,6.1058,6.0248,5.9866,5.9911,6.0377,6.0377,6.0377,6.0377,5.9993,5.9797,5.9759,5.9403,5.9,5.8579,5.8547,5.8361,5.7978,5.7906,5.7504,5.6632,5.5365,5.3913,0.0,0.0,0.0,0.0,0.0,0.0,0.0,0.0,0.0,0.0,0.0,5.4235,5.4064,5.475,5.5566,5.6443,5.6871,5.7341,5.7923,5.8401,5.8709,5.8709,5.944,5.9979,5.9973,6.0358,6.0973,6.182,6.232,6.3089,6.4275,6.3551,6.2935,6.3172,6.3518,6.4134,6.5013,6.5166,6.532,6.5865,6.5513,6.5013,6.4589,6.4468,6.4411,6.4178,6.4106,6.4061,6.3891,6.4134,6.4465,6.4725,6.516,6.5352,6.4824,6.3423,6.2148,6.1982,6.2021,6.1943,6.1593,6.1669,6.2319,6.2655,6.2732,6.2617,6.3197,6.4198,6.4313,6.4695,6.5261,6.5337,6.4955,6.4236,6.5031,6.5031,6.4428,6.507,6.5413,6.5413,6.5413,6.5413,6.5413,6.5413,6.5413,6.5375,6.4695,6.4351,6.4313,6.3465,6.3037,6.3075,6.2968,6.2502,6.1784,6.1058,6.0606,6.0415,6.0377,6.0384,6.0391,6.0498,6.0538,6.0513,6.061,6.0259,5.953,5.9435,5.9051,5.8387,5.8297,5.7843,5.7002,5.6186,5.4995,0.0,5.2549,0.0,0.0,0.0,0.0,0.0,0.0,0.0,0.0,5.4963,5.5361,5.6001,5.7417,5.8675,5.9562,6.0214,6.0686,6.0923,6.0973,6.0935,6.0819,6.1556,6.2101,6.2101,6.2172,6.2595,6.3506,6.3698,6.4429,6.5936,6.6789,6.6673,6.5667,6.582,6.6205,6.6359,6.6474,6.6827,6.6641,6.6512,6.6428,6.6312,6.629,6.6057,6.5567,6.5444,6.5187,6.4701,6.5208,6.5416,6.4517,6.52,6.5465,6.4726,6.394,6.3274,6.2962,6.2725,6.2579,6.1593,6.1554,6.1065,6.1249,6.1784,6.1134,6.2135,6.4236,6.4886,6.4886,6.4466,6.5115,6.4955,6.4275,6.5031,6.5299,6.5184,6.5337,6.5413,6.5413,6.5413,6.5413,6.5413,6.5413,6.5413,6.5375,6.5222,6.5184,6.5146,6.4351,6.3969,6.3931,6.3236,6.2808,6.2655,0.0,0.0,0.0,6.0377,6.0443,6.0504,6.0526,6.0591,6.0654,6.0716,0.0,6.0449,6.043,6.0322,6.0144,6.0092,0.0,0.0,0.0,0.0,0.0,0.0,0.0,0.0,0.0,0.0,0.0,5.5866,5.6197,5.7175,5.8514,5.9383,5.9523,5.9888,6.0489,6.1402,6.0986,6.1011,6.1737,6.1864,6.1595,6.0941,6.1595,6.2101,6.2101,6.2666,6.3705,6.5166,6.5974,6.6744,6.7744,6.8667,6.9052,6.8751,6.8212,6.8199,6.8821,6.9348,6.9597,6.9052,6.9016,6.8756,6.8392,6.8268,6.8302,6.8284,6.828,6.8054,6.7364,6.7436,6.7247,6.6427,6.6478,6.6327,6.5507,6.5194,6.4687,6.3282,6.2462,6.1914,6.2235,0.0,6.1822,6.186,0.0,6.1822,6.2357,6.3549,6.3541,6.3541,6.3579,6.4,6.4153,6.4198,6.4619,6.5031,6.5413,6.5872,6.6025,6.6063,6.6445,6.6644,6.6644,6.6636,6.6636,6.6636,6.6636,6.6407,6.6025,6.5643,6.5222,6.481,6.4344,6.3962,6.3541,6.3121,6.2471,6.1631,6.1246,6.1051,6.1092,6.0808,6.0654,6.0697,0.0,0.0,0.0,0.0,0.0,0.0,0.0,0.0,0.0,0.0,0.0,5.7442,5.7026,5.6778,5.6747,5.7178,5.7612,5.7934,5.8751,5.8898,5.8029,5.912,6.0052,6.0439,6.0844,6.1524,6.2401,6.2164,6.2137,6.2621,6.2704,6.2512,6.2204,6.282,6.3512,6.3942,6.432,6.5243,6.6936,6.7475,6.809,6.8936,6.9744,7.0304,7.0407,6.9984,6.9854,7.0381,7.0758,7.0922,7.0695,7.064,7.0564,7.0199,7.0145,7.0074,6.9852,6.9793,6.9553,6.8927,6.8747,6.8435,6.7654,6.742,6.7185,6.6367,6.5864,6.5399,6.4384,6.3251,6.2313,6.3037,6.2884,6.2884,6.2884,6.2884,6.2884,6.2884,6.2846,0.0,0.0,0.0,6.319,6.3656,6.4198,6.4351,6.4771,6.5413,6.6139,6.6445,6.6476,6.7133,6.7446,6.7439,6.7446,6.7485,6.7446,6.7485,6.7133,6.6476,6.6483,6.6101,6.5452,6.5413,6.507,6.4389,6.3694,6.3343,6.3312,6.2369,6.192,6.191,6.1416,6.1146,6.1171,6.1219,6.1166,6.1018,6.097,6.0863,6.0748,6.0654,6.0233,5.9395,5.9312,5.9037,5.8391,5.8315,5.8391,5.8533,5.9246,5.9604,5.9555,6.0802,6.0847,5.8974,5.9517,6.0193,6.0828,6.1565,6.2315,6.3065,6.3047,6.3034,6.3077,6.2968,6.2891,6.3083,6.3705,6.4377,6.5459,6.5554,6.6337,6.7894,6.817,6.857,6.9386,6.9962,7.0566,7.0772,7.0782,7.0928,7.1125,7.1239,7.13,7.1396,7.1237,7.1327,7.1097,7.105,7.0911,7.0411,7.0203,6.9926,6.9128,6.9137,6.8748,6.8047,6.7736,6.7619,6.6959,6.6302,6.5839,6.5683,6.4552,6.3497,6.3579,6.2884,6.2884,6.2884,6.2884,6.2884,6.2884,6.2961,6.3541,6.3503,6.2999,6.442,6.4726,6.4236,6.4917,6.5299,6.5413,6.5528,6.5566,0.0,6.5681,6.5757,6.5757,6.5757,6.5757,6.5757,6.5757,6.5681,6.5605,6.5605,6.5528,6.5413,6.5413,6.5337,6.5222,6.5108,6.507,6.5031,6.351,6.2811,6.2897,6.2809,6.2804,6.2911,6.2923,6.2627,6.1941,6.1897,6.1544,6.0852,6.0763,6.0373,5.956,5.9474,5.9329,5.9252,5.922,5.9535,6.0208,6.0473,6.0615,6.0604,6.0748,6.1262,6.2304,6.2541,6.2695,6.2798,6.2842,6.3123,6.3251,6.2648,6.2237,6.221,6.1633,6.1441,6.2222,6.2536,6.3311,6.4881,6.4941,6.5746,6.7453,6.7795,6.8135,6.8812,6.9289,6.9256,6.955,7.0525,7.1335,7.1439,7.1486,7.1456,7.1288,7.0904,7.0608,7.0539,7.0108,6.9837,6.9657,6.9623,6.9356,6.851,6.8474,6.8087,6.7275,6.7004,6.7047,6.6897,6.6705,6.6628,6.6589,6.5812,6.4994,6.4611,6.426,6.4267,6.4267,6.4229,6.377,6.3312,6.3006,6.3816,6.3701,6.2999,6.3725,6.4114,6.4236,6.458,6.5001,6.5413,6.5872,6.6101,6.6139,6.656,6.6751,6.6751,6.6751,6.6751,6.6759,6.6751,6.6522,6.6139,6.6101,6.5872,6.5452,6.5413,6.5413,6.5421,6.5459,6.5443,6.5443,6.425,6.3695,6.3806,6.3379,6.322,6.3308,6.3314,6.3121,6.2743,6.2743,6.2551,6.2166,6.2166,6.1973,6.1583,6.1521,6.1508,6.1508,6.1502,6.1682,6.2036,6.213,6.2166,6.216,6.2142,6.2419,6.315,6.2343,6.1831,6.1787,6.1844,6.1887,6.1887,6.1571,6.1402,6.1402,6.1441,6.1691,6.2199,6.3108,6.4119,6.538,6.6036,6.6842,6.8155,6.8323,6.8396,6.887,6.8932,6.8991,6.8958,6.9721,7.0322,7.0223,7.0207,7.0242,7.0333,7.011,6.9867,6.9869,6.9624,6.9409,6.9411,6.9373,6.9217,6.8904,6.8791,6.8447,6.7632,6.752,6.7368,6.6941,6.6907,6.6908,6.6831,6.656,6.5858,6.5719,6.5681,6.549,6.5413,6.5337,6.4726,6.4076,6.3572,6.4198,6.4076,6.3534,6.3457,6.3847,6.4428,6.4466,6.481,6.5452,6.6094,6.6399,6.6476,6.7064,6.7332,6.7332,6.7332,6.7324,6.737,6.7523,6.7209,6.6522,6.6789,6.6636,6.6025,6.5948,6.5872,6.5681,6.5741,6.5671,6.5494,6.4882,6.4611,6.4649,6.4064,6.3822,6.3866,6.3885,6.3775,6.3622,6.3583,6.3506,6.3314,6.3314,6.3314,6.3314,6.3314,6.3314,6.3314,6.3314,6.3314,6.3314,6.3314,6.3314,6.3314,6.3314,6.3275,6.3192,6.2085,6.1267,6.1224,6.1421,6.1407,6.1452,6.1411,6.1358,6.1396,6.1999,6.2574,6.296,6.4067,6.5248,6.6216,6.698,6.7613,6.8221,6.8426,6.8362,6.8345,6.8522,6.8571,6.8585,6.8717,6.872,6.8721,6.8888,6.93,6.9365,6.9213,6.9136,6.9102,6.8869,6.8715,6.8678,6.8796,6.8796,6.8642,6.8724,6.8379,6.7952,6.7761,6.7492,6.6986,6.6911,6.6912,6.6873,6.6874,6.6406,6.656,6.6445,6.5796,6.5413,6.5452,6.5337,6.5261,6.5184,6.5261,6.5261,6.507,6.5146,6.5146,6.5299,6.5261,6.5299,6.5413,6.549,6.5528,6.5566,6.5605,6.5643,6.5719,6.5681,6.5643,6.5796,6.6445,6.6407,6.5796,6.7064,6.7752,6.7676,6.7676,6.7247,6.6674,6.6606,6.6223,6.5532,6.5425,6.5415,6.5486,6.5523,6.5563,6.557,6.5596,6.5282,6.4512,6.4474,6.4128,6.3391,6.3352,6.3314,6.3352,6.3314,6.3314,6.3352,6.3352,6.3314,6.3314,6.3314,6.3352,6.3314,6.3391,6.3391,6.3391,6.3192,6.3077,6.3026,6.3065,6.2917,6.3077,6.298,6.2927,6.2897,6.3245,6.3743,6.4377,6.4851,6.5468,6.6446,6.6694,6.6807,6.7099,6.7151,6.7119,6.7223,6.7271,6.7283,6.7286,6.7293,6.7304,6.7412,6.8269,6.9129,6.9178,6.8669,6.8285,6.8176,6.7592,6.7361,6.7404,6.7367,6.7174,6.7639,6.7331,6.7294,6.7181,6.7028,6.7029,6.6992,6.6914,6.6914,6.6914,6.6914,6.6445,6.74,6.74,6.7018,6.6865,6.6873,6.6865,6.6598,6.6178,6.6178,6.5872,6.5413,6.5413,6.5413,6.5413,6.5413,6.5413,6.5413,6.5413,6.5413,6.5413,6.5413,6.5413,6.5413,6.5413,6.5413,6.5413,6.5757,6.6025,6.6369,6.7332,6.7905,6.7905,6.7905,6.7744,6.7408,6.7447,6.7316,6.7137,6.7142,6.6908,6.6437,6.601,6.5813,6.5859,6.5885,6.575,6.5397,6.5359,6.5205,6.4859,6.482,6.4859,6.482,6.4859,6.4859,6.482,6.4859,6.482,6.4859,6.482,6.482,6.482,6.4859,6.4859,6.4859,6.4859,6.4859,6.4743,6.3929,6.333,6.3477,6.3471,6.3485,6.3641,6.4123,6.4668,6.504,6.5638,6.6221,6.6662,6.6716,6.6725,6.679,6.6796,6.6796,6.6796,6.6796,6.6798,6.6796,6.6796,6.6799,6.6883,6.7469,6.7781,6.786,6.7626,6.7397,6.7325,6.7133,6.6901,6.6941,6.6903,6.6903,6.6943,6.7024,6.7026,6.6949,6.6913,6.6914,6.6914,6.6914,6.6914,6.6914,6.6914,6.668,6.8249,6.8211,6.802,6.7905,6.7905,6.7905,6.7561,6.7056,6.7018,6.6674,6.6139,6.6101,6.5948,6.5757,6.5528,6.5413,6.5413,6.5413,6.5413,6.5413,6.5413,6.5413,6.5413,6.5413,6.5413,6.5452,6.5681,6.633,6.7286,6.7668,6.8096,6.8508,6.8585,6.8478,6.8287,6.8296,6.8288,6.8141,6.822,6.7962,6.733,6.6582,6.607,6.591,6.5891,6.5904,6.5904,6.5904,6.5904,6.5904,6.5904,6.5904,6.5904,6.5904,6.5904,6.5904,6.5904,6.5904,6.5904,6.5904,6.5904,6.5904,6.5904,6.5904,6.591,6.5927,6.5964,6.5827,6.4833,6.4258,6.427,6.4318,6.4373,6.4527,6.5107,6.5534,6.5728,6.6305,6.666,6.6788,6.6791,6.6796,6.6796,6.6796,6.6796,6.6796,6.6799,6.6801,6.6879,6.7,6.72,6.7166,6.7363,6.7362,6.6972,6.6933,6.6899,6.7216,6.7336,6.7414,6.7494,6.7612,6.7612,6.8044,6.7693,6.7459,6.746,6.7343,6.707,6.6953,6.6914,6.6914,6.6914,6.6914,6.6914,6.912,6.9043,6.8241,6.802,6.7943,6.7981,6.7905,6.7867,6.7867,6.779,6.7676,6.7714,6.7324,6.6598,6.591,6.5413,6.5413,6.5413,6.5413,6.5413,6.5413,6.5413,6.5413,6.5413,6.5413,6.5452,6.6063,6.7247,6.8738,6.8279,6.8738,7.0143,7.0113,6.9846,6.9196,6.9128,6.8785,6.8219,6.8232,6.822,6.8136,6.7435,6.6596,6.5974,6.5865,6.5904,6.5904,6.5904,6.5904,6.5904,6.5904,6.5904,6.5904,6.5904,6.5904,6.5904,6.5904,6.5904,6.5904,6.5904,6.5904,6.5904,6.5923,6.5916,6.5915,6.6019,6.6088,6.6093,6.6023,6.5915,6.5886,6.5842,6.5965,6.604,6.6295,6.6468,6.652,6.6597,6.6788,6.6796,6.6796,6.6796,6.6796,6.6796,6.6798,6.6799,6.6805,6.685,6.7008,6.7522,6.7877,6.8152,6.8504,6.87,6.7333,6.7294,6.7531,6.7847,6.82,6.8359,6.8945,6.9336,6.9219,6.914,6.8945,6.8672,6.832,6.793,6.7578,6.7305,6.6953,6.6914,6.6914,6.6914,6.6914,6.9952,6.9952,6.9655,6.9502,6.9502,6.9502,6.9196,6.8746,6.8738,6.8402,6.7943,6.7905,6.7744,6.7446,6.7133,6.6407,6.5452,6.5413,6.5413,6.5413,6.5413,6.5413,6.5413,6.5413,6.5413,6.5452,6.5719,6.6445,6.7591,6.8317,6.9005,6.9616,7.0143,6.9999,6.9425,6.9731,6.958,6.8931,6.89,6.898,6.8936,6.7788,6.693,6.6634,6.616,6.5904,6.5904,6.5904,6.5904,6.5904,6.5904,6.5904,6.5904,6.5904,6.5904,6.5904,6.5904,6.5904,6.5904,6.5904,6.5904,6.591,6.5978,6.6019,6.6063,6.6143,6.6217,6.6251,6.6369,6.6455,6.6442,6.6465,6.6521,6.6631,6.6664,6.6718,6.6725,6.6784,6.6796,6.6796,6.6796,6.6796,6.6876,6.6796,6.6799,6.6806,6.681,6.7088,6.7562,6.7957,6.8351,6.8822,6.9175,6.9215,6.8748,6.8512,6.8668,6.8827,6.9062,6.9101,6.9492,6.9609,6.9531,6.9687,6.9687,6.9531,6.9023,6.8281,6.793,6.7305,6.6992,6.6836,6.6914,6.6875,6.6875,7.0411,7.0411,7.0411,7.0411,7.0411,7.0411,7.0105,6.9616,6.9578,6.9234,6.8776,6.8699,6.8593,6.8363,6.8325,6.7561,6.6254,6.5987,6.5834,6.5796,6.5528,6.5413,6.5413,6.5413,6.5413,6.5413,6.5413,6.5864,6.6713,6.7821,6.8661,6.9234,6.9769,6.9876,6.9693,7.0143,7.0099,6.975,6.9773,6.9702,6.9368,6.8198,6.7359,6.7019,6.632,6.5904,6.5904,6.5904,6.5904,6.5904,6.5904,6.5904,6.5904,6.5904,6.5904,6.5904,6.5904,6.5904,6.5904,6.5904,6.5904,6.5916,6.6014,6.6108,6.6084,6.6302,6.6369,6.6413,6.654,6.6644,6.6681,6.6681,6.6707,6.679,6.6796,6.6796,6.6796,6.6796,6.6796,6.6837,6.7114,6.7193,6.7271,6.751,6.767,6.7637,6.7639,6.7917,6.839,6.8823,6.9097,6.9725,7.0155,7.0351,7.0234,7.0234,6.9844,6.9922,6.9883,6.9922,7.0039,7.0078,7.0117,7.0195,7.0195,7.0039,6.9567,6.8779,6.8033,6.7329,6.6914,6.6719,6.6758,6.6797,6.6797,7.0411,7.0411,7.0411,7.0411,7.0411,7.0411,7.0372,7.0296,7.0334,7.022,7.0067,7.0258,6.9769,6.9311,6.9196,6.8699,6.7897,6.7209,6.6781,6.6636,6.5948,6.5566,6.5528,6.5566,6.549,6.5413,6.5413,6.5834,6.6552,6.6865,6.763,6.8852,6.9082,6.9387,7.019,7.0121,7.0274,7.0093,7.0187,7.0147,6.9426,6.8593,6.7853,6.7173,6.6359,6.5904,6.5904,6.5904,6.5904,6.5904,6.5904,6.5904,6.5904,6.5904,6.5904,6.5904,6.5904,6.5904,6.5904,6.5904,6.5904,6.594,6.6036,6.6114,6.6199,6.6422,6.6592,6.661,6.6707,6.6791,6.679,6.6788,6.679,6.6796,6.6796,6.6796,6.6796,6.6835,6.6835,6.6994,6.7588,6.8062,6.826,6.8615,6.9011,6.9052,6.9056,6.9137,6.9372,6.9882,7.0508,7.082,7.1094,7.1328,7.164,7.1914,7.1367,7.0937,7.082,7.082,7.1133,7.1289,7.1172,7.1211,7.1133,7.0956,7.0154,6.9353,6.8427,6.7753,6.7259,6.6757,6.666,6.6674,6.6652,7.0411,7.0411,7.0411,7.0411,7.0411,7.0411,7.0411,7.0411,7.0411,7.0411,7.0411,7.0411,7.0258,7.0067,6.9999,6.9876,6.954,6.8776,6.8126,6.7591,6.7209,6.6789,6.6369,6.6285,6.5987,6.549,6.5413,6.5528,6.591,6.6437,6.701,6.7477,6.8096,6.8119,6.8204,6.8977,6.9192,6.8257,6.9241,6.9707,6.9337,6.8198,6.7667,6.7821,6.6628,6.5904,6.5904,6.5904,6.5904,6.5904,6.5904,6.5904,6.5904,6.5904,6.5904,6.5904,6.5904,6.5904,6.5904,6.591,6.5952,6.6036,6.6162,6.6283,6.6435,6.6617,6.6722,6.6764,6.6787,6.6796,6.6796,6.6796,6.6876,6.6796,6.6796,6.6876,6.7034,6.7389,6.7666,6.7785,6.8458,6.893,6.901,6.9364,6.9524,6.9526,6.9528,6.9647,7.0195,7.0547,7.0976,7.1484,7.1875,7.1992,7.1992,7.1992,7.1758,7.1445,7.1406,7.1367,7.1758,7.1953,7.1914,7.1895,7.183,7.1484,7.0702,6.9876,6.8972,6.8238,6.7745,6.7244,6.6746,6.6649,6.6729,7.0411,7.0411,7.0411,7.0411,7.0411,7.0411,7.0411,7.0411,7.0411,7.0411,7.0411,7.0411,7.0411,7.0411,7.0411,7.0411,7.0334,6.9846,6.9349,6.8738,6.8096,6.7599,6.7171,6.7171,6.6904,6.6445,6.633,6.633,6.633,6.6865,6.7324,6.7706,6.8158,6.8464,6.825,6.9199,6.9244,6.8606,6.9438,6.9826,6.9379,6.8557,6.8167,6.8237,6.7359,6.6859,6.6821,6.6513,6.6211,6.5981,6.5904,6.5904,6.5904,6.5904,6.5904,6.5904,6.5904,6.5904,6.591,6.5964,6.6024,6.6123,6.6271,6.6462,6.6598,6.672,6.6872,6.7226,6.7303,6.7421,6.7733,6.7777,6.7778,6.778,6.7506,6.7468,6.7746,6.826,6.8536,6.8773,6.9364,6.9758,6.9876,7.023,7.0309,7.035,7.035,7.0468,7.1055,7.1211,7.1562,7.1836,7.1914,7.1992,7.1992,7.1992,7.1992,7.1914,7.1875,7.1797,7.1953,7.1914,7.1856,7.1799,7.1736,7.1641,7.0956,7.0374,6.9608,6.8928,6.8299,6.7817,6.7386,6.7095,6.7033,7.0563,7.0525,7.0563,7.0678,7.0678,7.0602,7.0563,7.0525,7.0411,7.0411,7.0411,7.0411,7.0411,7.0411,7.0411,7.0411,7.0372,7.0334,7.0258,6.9799,6.8967,6.8172,6.8012,6.7828,6.7676,6.7714,6.7714,6.7752,6.7599,6.7714,6.8317,6.8746,6.8893,6.9513,6.9774,7.0448,7.0308,7.0023,7.0503,7.034,6.9571,6.955,6.9276,6.8584,6.8353,6.8199,6.8045,6.7513,6.6789,6.6019,6.5904,6.5904,6.5904,6.5904,6.5904,6.6019,6.5981,6.6121,6.6126,6.6471,6.6515,6.6616,6.6846,6.6756,6.7055,6.7234,6.7538,6.8083,6.8161,6.8474,6.9062,6.9187,6.9233,6.9315,6.865,6.8536,6.9207,6.9364,6.9482,6.9601,7.019,7.074,7.0779,7.1406,7.168,7.1758,7.1719,7.1719,7.1758,7.1758,7.1914,7.1992,7.1992,7.1992,7.1992,7.1992,7.1992,7.1992,7.1992,7.1992,7.1914,7.1836,7.1759,7.1664,7.1601,7.1521,7.1292,7.0713,7.0225,6.9663,6.9053,6.8483,6.8001,6.7682,6.7289,7.2291,7.2291,7.2329,7.2329,7.2215,7.165,7.1336,7.1259,7.0686,7.0525,7.0411,7.0411,7.0449,7.0411,7.0411,7.0411,7.0411,7.0411,7.0411,7.0334,7.0029,6.9387,6.8776,6.8211,6.7981,6.7981,6.8058,6.7905,6.7905,6.8066,6.8134,6.8211,6.8572,6.864,6.8883,6.9608,6.9481,6.9292,7.035,7.0486,6.9833,6.9731,6.9622,6.9353,6.8776,6.8468,6.8391,6.816,6.7359,6.6013,6.5904,6.5904,6.5974,6.6019,6.625,6.6712,6.6846,6.7158,6.7735,6.791,6.8078,6.8352,6.828,6.8583,6.8681,6.8659,6.8825,6.9059,6.9059,6.9178,6.9375,6.9463,6.9709,7.0148,6.9639,6.9246,6.9522,6.9955,7.0347,7.0465,7.1132,7.1484,7.164,7.1758,7.1992,7.1992,7.1992,7.1992,7.1992,7.1992,7.1992,7.1992,7.1992,7.1992,7.1992,7.1992,7.1992,7.1992,7.1992,7.1953,7.1875,7.1719,7.162,7.1536,7.1482,7.1383,7.1334,7.1074,7.0645,7.0252,6.9904,6.9396,6.8617,6.8122,6.7745,7.2979,7.2979,7.2979,7.2979,7.2941,7.2452,7.2261,7.2147,7.1756,7.1259,7.103,7.0954,7.0716,7.0449,7.0411,7.0411,7.0411,7.0411,7.0411,7.0411,7.0372,7.0105,6.9655,6.912,6.8929,6.8967,6.8929,6.8967,6.9013,6.9007,6.9061,6.9168,6.9184,6.9265,6.9462,6.9757,6.9889,6.9731,7.0437,7.0667,7.0244,7.0206,7.0206,7.0129,6.9661,6.9314,6.9045,6.893,6.8276,6.7282,6.6974,6.693,6.6974,6.6936,6.7167,6.7635,6.7736,6.8071,6.8561,6.8819,6.9009,6.9156,6.9245,6.9295,6.9324,6.9411,6.945,6.9879,6.9923,7.0122,7.0438,7.0488,7.0734,7.1092,7.0779,7.0508,7.0508,7.0936,7.121,7.1367,7.164,7.1992,7.1992,7.1992,7.1992,7.1992,7.1992,7.1992,7.1992,7.1992,7.2031,7.2109,7.2148,7.2187,7.2226,7.2226,7.2578,7.2539,7.2461,7.2344,7.2026,7.1803,7.1517,7.1434,7.1343,7.1291,7.1291,7.1291,7.1103,7.0755,7.0601,7.0214,6.9435,6.8777,6.839,7.3246,7.3246,7.3246,7.3255,7.3323,7.317,7.3132,7.3102,7.2911,7.2452,7.1956,7.1841,7.1489,7.0678,7.0793,7.0563,7.0563,7.0487,7.0411,7.0411,7.0411,7.0334,7.0258,7.0143,7.0105,7.0143,7.0372,7.0274,7.0184,7.0354,7.0508,7.0394,7.056,7.0703,7.0563,7.085,7.0968,7.0783,7.0975,7.1014,7.0821,7.0744,7.0744,7.0706,7.0706,7.036,6.9975,6.9783,6.9436,6.8699,6.8545,6.8237,6.8276,6.8314,6.8469,6.8565,6.8695,6.886,6.9101,6.9512,6.9562,6.9716,6.9774,6.9645,6.988,6.9957,7.0191,7.0777,7.083,7.1147,7.1583,7.1868,7.1834,7.1836,7.1836,7.1953,7.1992,7.1992,7.1992,7.1992,7.1992,7.1992,7.1992,7.1992,7.1992,7.1992,7.1992,7.1992,7.2148,7.2305,7.2344,7.2383,7.2422,7.2461,7.25,7.25,7.2969,7.3281,7.3203,7.3007,7.2472,7.21,7.1611,7.1343,7.1318,7.1291,7.1291,7.1253,7.1258,7.1219,7.0949,7.0672,7.0286,6.9744,6.9247,7.4974,7.4974,7.4974,7.4974,7.486,7.424,7.3934,7.3896,7.3284,7.2987,7.2758,7.272,7.2559,7.2329,7.168,7.1421,7.1336,7.0839,7.0411,7.0411,7.0411,7.0411,7.0411,7.0419,7.0411,7.0411,7.0411,7.0451,7.0546,7.0577,7.0616,7.07,7.0743,7.0794,7.0885,7.1402,7.1514,7.1168,7.1521,7.1437,7.0975,7.0898,7.0898,7.0898,7.0937,7.086,7.0706,7.0629,7.0552,7.0129,6.9206,6.8584,6.8584,6.8565,6.8892,6.944,6.9651,7.0064,7.0799,7.097,7.1197,7.1218,7.1195,7.1442,7.1441,7.1324,7.1441,7.1717,7.1727,7.1779,7.1946,7.1988,7.1991,7.1992,7.1992,7.1992,7.1992,7.1992,7.1992,7.1992,7.1992,7.1992,7.1992,7.1992,7.1992,7.1992,7.2031,7.2031,7.2344,7.2734,7.289,7.3047,7.3242,7.3398,7.3476,7.3555,7.3906,7.414,7.4023,7.3926,7.3382,7.2532,7.2056,7.1649,7.1308,7.1291,7.1291,7.1291,7.1253,7.1291,7.1291,7.1059,7.075,7.0407,7.0136,7.5509,7.5509,7.5509,7.5509,7.5433,7.5004,7.4813,7.4736,7.4393,7.3934,7.3628,7.3552,7.3361,7.2979,7.2529,7.2299,7.21,7.1412,7.0793,7.0525,7.0411,7.0411,7.0427,7.0451,7.0459,7.0427,7.0451,7.0538,7.0585,7.0662,7.073,7.0767,7.0801,7.0843,7.0843,7.1378,7.1283,7.1052,7.1321,7.1321,7.0975,7.0898,7.0898,7.1014,7.1245,7.136,7.0898,7.0898,7.0898,7.0667,7.0059,6.9552,6.9585,6.9637,7.0008,7.0391,7.0705,7.0977,7.156,7.1789,7.1833,7.1983,7.1987,7.1987,7.1987,7.1987,7.1991,7.1997,7.1969,7.1981,7.1991,7.1991,7.1992,7.1992,7.2031,7.1992,7.1992,7.1992,7.1992,7.1992,7.1992,7.1992,7.1992,7.2109,7.2383,7.2539,7.2734,7.2773,7.3437,7.3789,7.3828,7.3984,7.4258,7.4453,7.4531,7.4726,7.5039,7.5078,7.4961,7.4862,7.4614,7.3596,7.2551,7.2181,7.1794,7.133,7.1291,7.1291,7.1291,7.1291,7.1291,7.1291,7.1175,7.0871,7.0755,7.5509,7.5509,7.5509,7.5509,7.5509,7.5471,7.5433,7.5471,7.5509,7.4927,7.4507,7.4393,7.4087,7.3522,7.3246,7.3132,7.275,7.2062,7.1221,7.0801,7.0487,7.0465,7.0451,7.053,7.0554,7.0459,7.0531,7.0608,7.0662,7.0714,7.0772,7.0808,7.0864,7.0885,7.0891,7.1091,7.1168,7.0975,7.1206,7.1321,7.1129,7.1052,7.0898,7.1014,7.136,7.1491,7.1062,7.0966,7.0966,7.0985,7.0985,7.0992,7.1036,7.1083,7.1244,7.1236,7.1449,7.1605,7.1743,7.1913,7.1983,7.1987,7.1991,7.1991,7.1993,7.1996,7.2002,7.2009,7.1978,7.1986,7.1992,7.2265,7.2265,7.2305,7.2305,7.2383,7.2383,7.2383,7.2539,7.2305,7.2656,7.289,7.2539,7.2461,7.2812,7.3125,7.3281,7.3633,7.4297,7.4765,7.4805,7.5039,7.5312,7.5586,7.5703,7.5703,7.6015,7.5937,7.5805,7.5701,7.5546,7.4606,7.3568,7.2806,7.2336,7.191,7.1485,7.1407,7.1407,7.133,7.1291,7.1291,7.1291,7.1291,7.1219,7.5509,7.5509,7.5509,7.5509,7.5509,7.5509,7.5509,7.5509,7.5509,7.5433,7.528,7.5242,7.5127,7.486,7.424,7.3667,7.3055,7.2329,7.1764,7.1382,7.0924,7.0566,7.0715,7.0631,7.0654,7.0662,7.0662,7.0692,7.0729,7.0779,7.0829,7.0871,7.0891,7.0898,7.1091,7.1514,7.1398,7.1052,7.1398,7.1713,7.1598,7.1321,7.0937,7.0982,7.1272,7.1268,7.1222,7.1158,7.1208,7.1406,7.1386,7.1381,7.1353,7.1275,7.1342,7.1531,7.1671,7.1787,7.1916,7.1977,7.1987,7.199,7.2074,7.212,7.2123,7.2127,7.2326,7.2214,7.2181,7.2109,7.2031,7.2695,7.3047,7.3203,7.3555,7.3945,7.3984,7.3984,7.3789,7.3398,7.3672,7.3828,7.3398,7.3164,7.3476,7.375,7.3906,7.4336,7.4961,7.543,7.5703,7.6015,7.6406,7.668,7.6914,7.6836,7.6875,7.6719,7.6563,7.6395,7.6128,7.5488,7.468,7.4022,7.3192,7.2529,7.2142,7.1794,7.1485,7.1369,7.133,7.1297,7.1291,7.1297,7.1329,7.5509,7.5509,7.5509,7.5509,7.5509,7.5509,7.5509,7.5509,7.5509,7.5509,7.5509,7.5509,7.5509,7.5395,7.5119,7.4431,7.3667,7.3246,7.2783,7.2349,7.1601,7.1182,7.1222,7.0953,7.073,7.0736,7.0772,7.0787,7.0794,7.0829,7.0864,7.0885,7.0898,7.0898,7.0937,7.1245,7.1283,7.1052,7.1321,7.1552,7.1636,7.1405,7.1405,7.1086,7.1396,7.1525,7.1236,7.131,7.1381,7.146,7.1516,7.1533,7.1559,7.1566,7.152,7.1689,7.1791,7.187,7.1982,7.2028,7.2186,7.2623,7.2668,7.2947,7.3224,7.3424,7.3271,7.3275,7.3318,7.3359,7.3437,7.375,7.3906,7.4023,7.4414,7.4609,7.4726,7.5039,7.4922,7.457,7.4492,7.4414,7.418,7.4062,7.4258,7.4414,7.4531,7.5039,7.5625,7.6015,7.6406,7.6601,7.6875,7.6992,7.7187,7.7187,7.7031,7.6953,7.6846,7.6689,7.6407,7.565,7.5591,7.5376,7.4475,7.3132,7.2684,7.2258,7.1833,7.1452,7.1429,7.1435,7.1341,7.1302,7.1343,7.5509,7.5509,7.5509,7.5509,7.5509,7.5509,7.5509,7.5509,7.5509,7.5509,7.5509,7.5509,7.5509,7.5509,7.5395,7.5089,7.4448,7.4342,7.3827,7.3319,7.2531,7.2149,7.1996,7.1518,7.1139,7.1206,7.0888,7.0871,7.0843,7.0864,7.0891,7.0898,7.0898,7.0898,7.0937,7.1014,7.0898,7.0898,7.0898,7.0898,7.1097,7.1729,7.1833,7.1088,7.1815,7.1885,7.1406,7.1469,7.1559,7.1637,7.1654,7.1641,7.1718,7.1733,7.1733,7.1787,7.1922,7.1982,7.1987,7.1987,7.2345,7.3059,7.3258,7.3733,7.4248,7.429,7.4449,7.4569,7.4492,7.4414,7.4336,7.4726,7.4844,7.4922,7.5039,7.5234,7.5469,7.5781,7.6094,7.5781,7.539,7.5117,7.4961,7.4883,7.5039,7.5117,7.5234,7.5781,7.6328,7.664,7.6953,7.7031,7.7148,7.7148,7.7187,7.7187,7.6953,7.6601,7.6419,7.623,7.6043,7.5688,7.5624,7.5282,7.4724,7.349,7.3104,7.2806,7.2529,7.2192,7.1799,7.1531,7.1455,7.1463,7.1469,7.5509,7.5509,7.5509,7.5509,7.5509,7.5509,7.5509,7.5509,7.5509,7.5509,7.5509,7.5509,7.5509,7.5509,7.5518,7.5476,7.5213,7.4749,7.4446,7.4212,7.3461,7.3077,7.303,7.2323,7.1912,7.1794,7.1276,7.0937,7.0878,7.0891,7.0898,7.0898,7.0898,7.0898,7.0898,7.0898,7.0898,7.0898,7.0905,7.0919,7.1074,7.1876,7.1815,7.1507,7.146,7.1696,7.1598,7.1656,7.1752,7.1903,7.1916,7.1927,7.1977,7.1977,7.1977,7.1977,7.1984,7.1987,7.2067,7.2266,7.2701,7.3455,7.3539,7.3819,7.4566,7.4883,7.4883,7.457,7.4687,7.4844,7.5078,7.539,7.5625,7.5937,7.6172,7.6523,7.6758,7.6328,7.668,7.6758,7.6289,7.6055,7.5859,7.582,7.5781,7.5859,7.6015,7.6484,7.6719,7.6875,7.7187,7.7187,7.7148,7.7109,7.6836,7.6875,7.6523,7.6172,7.5917,7.5661,7.5418,7.5096,7.4567,7.4203,7.393,7.4072,7.3945,7.3677,7.3297,7.2819,7.2317,7.1935,7.1573,7.1614,7.1654,7.5509,7.5509,7.5509,7.5509,7.5509,7.5509,7.5509,7.5509,7.5509,7.5509,7.5509,7.5509,7.5509,7.5518,7.5514,7.5566,7.5523,7.5266,7.5186,7.5096,7.4467,7.4044,7.3872,7.3272,7.2762,7.2238,7.1828,7.1321,7.1129,7.0937,7.0898,7.0898,7.0898,7.0898,7.0898,7.0898,7.0898,7.0946,7.0998,7.1053,7.1234,7.1583,7.1785,7.1406,7.154,7.1644,7.17,7.1807,7.1913,7.1987,7.1987,7.1987,7.1987,7.2026,7.2146,7.2741,7.2741,7.2781,7.2821,7.3177,7.3809,7.4481,7.4798,7.5231,7.5858,7.6015,7.6015,7.6094,7.6094,7.6015,7.6015,7.6406,7.6523,7.6758,7.6953,7.7031,7.7226,7.7226,7.7109,7.7187,7.7187,7.6836,7.6562,7.6523,7.6484,7.6523,7.6445,7.6601,7.6523,7.6289,7.6719,7.7187,7.7109,7.6992,7.6562,7.6289,7.582,7.5425,7.5188,7.4912,7.4652,7.4298,7.382,7.3824,7.4002,7.4231,7.4532,7.4269,7.3661,7.3254,7.2846,7.2482,7.2114,7.179,7.1822,7.5509,7.5509,7.5509,7.5509,7.5509,7.5509,7.5509,7.5509,7.5509,7.5509,7.5509,7.5509,7.5518,7.5514,7.5566,7.5616,7.5674,7.5731,7.581,7.5634,7.5356,7.504,7.4755,7.4199,7.3469,7.2783,7.2668,7.2091,7.1521,7.1245,7.1206,7.0937,7.0898,7.0898,7.0898,7.0905,7.0925,7.1017,7.1118,7.1219,7.1324,7.1456,7.1568,7.1591,7.1668,7.1782,7.1794,7.1913,7.1984,7.1987,7.2305,7.2425,7.2425,7.2781,7.3098,7.3612,7.3849,7.4086,7.4086,7.4362,7.5032,7.5621,7.6209,7.6328,7.6875,7.7226,7.7187,7.6992,7.6992,7.707,7.7187,7.7109,7.707,7.707,7.7187,7.7187,7.7226,7.7226,7.7226,7.7226,7.7226,7.7226,7.7031,7.7109,7.7148,7.7187,7.707,7.6836,7.6562,7.6211,7.6523,7.7148,7.7148,7.6913,7.6325,7.5815,7.5266,7.4794,7.4557,7.4067,7.3723,7.3472,7.3114,7.337,7.3755,7.3434,7.3164,7.3596,7.3938,7.3373,7.2909,7.2986,7.2745,7.2291,7.1936,7.5509,7.5509,7.5509,7.5509,7.5509,7.5509,7.5509,7.5509,7.5509,7.5518,7.5527,7.5518,7.5523,7.5583,7.5663,7.5737,7.5864,7.5879,7.5925,7.5939,7.593,7.5769,7.5476,7.5007,7.4507,7.4199,7.3707,7.2937,7.2283,7.2129,7.1629,7.1014,7.0975,7.0898,7.0919,7.0952,7.1024,7.1124,7.1224,7.1344,7.1477,7.1608,7.1686,7.1752,7.1897,7.1982,7.198,7.2184,7.2225,7.2265,7.286,7.3177,7.3296,7.369,7.4125,7.452,7.5031,7.5268,7.5464,7.5189,7.5189,7.5857,7.6523,7.6992,7.7187,7.7187,7.7187,7.7148,7.707,7.7109,7.7148,7.7226,7.7226,7.7226,7.7226,7.7226,7.7226,7.7226,7.7226,7.7226,7.7226,7.7226,7.7226,7.7226,7.7226,7.7226,7.6875,7.664,7.6875,7.668,7.6836,7.7148,7.7187,7.6831,7.6124,7.5652,7.5298,7.4669,7.4195,7.3421,7.2691,7.2498,7.2856,7.2588,7.2807,7.2309,7.2126,7.2835,7.3261,7.3103,7.2969,7.2977,7.2908,7.2495,7.2203,7.5509,7.5509,7.5509,7.5509,7.5509,7.5509,7.5509,7.5509,7.5509,7.5506,7.5549,7.5549,7.5599,7.5674,7.5777,7.5825,7.5895,7.5955,7.5985,7.6,7.5976,7.5976,7.5822,7.563,7.5238,7.4776,7.4315,7.3815,7.3091,7.3014,7.2437,7.186,7.1272,7.0937,7.0925,7.1011,7.1168,7.1278,7.1422,7.1577,7.1631,7.1816,7.1909,7.1915,7.2602,7.2425,7.2265,7.3137,7.3137,7.3177,7.369,7.3967,7.4125,7.4558,7.4953,7.5307,7.5817,7.617,7.6562,7.6328,7.6405,7.6562,7.7031,7.7226,7.7148,7.6797,7.6836,7.6797,7.6758,7.6758,7.7148,7.7226,7.7226,7.7226,7.7226,7.7226,7.7226,7.7226,7.7226,7.7226,7.7226,7.7226,7.7226,7.7226,7.7226,7.7187,7.6797,7.6562,7.6835,7.6952,7.6989,7.7104,7.7141,7.6747,7.6037,7.5682,7.5367,7.4658,7.3948,7.3493,7.2949,7.2888,7.3041,7.2541,7.2252,7.2351,7.2437,7.2552,7.2702,7.2851,7.2924,7.293,7.2796,7.2609,7.2379,7.5509,7.5509,7.5509,7.5509,7.5509,7.5509,7.5509,7.5518,7.5506,7.5557,7.5641,7.5603,7.5682,7.5771,7.5856,7.5902,7.594,7.5985,7.5969,7.5976,7.5976,7.5976,7.5976,7.5899,7.563,7.5168,7.5007,7.4661,7.3892,7.3853,7.336,7.2643,7.1827,7.1396,7.0927,7.1083,7.135,7.1737,7.1923,7.2313,7.2491,7.2465,7.2691,7.2732,7.3174,7.3216,7.3216,7.3849,7.4085,7.4125,7.444,7.4913,7.507,7.5267,7.5699,7.6055,7.6367,7.6601,7.6992,7.7187,7.7187,7.7109,7.7148,7.7226,7.7031,7.664,7.6836,7.7031,7.668,7.6523,7.7187,7.7226,7.7226,7.7226,7.7226,7.7226,7.7226,7.7226,7.7226,7.7226,7.7226,7.7226,7.7226,7.7226,7.7226,7.7226,7.707,7.6874,7.699,7.7027,7.6867,7.6981,7.7094,7.658,7.5987,7.5868,7.567,7.477,7.4256,7.4332,7.4008,7.3861,7.3703,7.3527,7.325,7.2881,7.2993,7.3406,7.3147,7.2811,7.2902,7.3063,7.2638,7.2448,7.2414,7.5509,7.5509,7.5509,7.5509,7.5518,7.5509,7.5509,7.5497,7.5566,7.5641,7.5723,7.5731,7.5771,7.5879,7.5902,7.594,7.5985,7.5969,7.5976,7.5976,7.5976,7.5976,7.5976,7.5938,7.5899,7.5976,7.5745,7.5322,7.4707,7.4739,7.4314,7.3614,7.2832,7.1941,7.1049,7.1106,7.1783,7.2744,7.2821,7.3207,7.3641,7.331,7.3441,7.3682,7.3885,7.3967,7.4125,7.4716,7.4914,7.4795,7.5425,7.5817,7.5896,7.6483,7.6836,7.6992,7.707,7.7148,7.7226,7.7226,7.7226,7.7226,7.7226,7.7226,7.7187,7.707,7.6992,7.7109,7.6914,7.6953,7.7148,7.7226,7.7226,7.7226,7.7226,7.7226,7.7226,7.7226,7.7226,7.7226,7.7226,7.7226,7.7226,7.7226,7.7226,7.7226,7.7226,7.7184,7.7182,7.7101,7.6939,7.7089,7.724,7.7198,7.676,7.6365,7.5894,7.5032,7.4993,7.5579,7.5384,7.5032,7.4837,7.4564,7.4095,7.3666,7.3978,7.4406,7.3865,7.3362,7.321,7.3138,7.2673,7.2325,7.2252,7.5509,7.5509,7.5509,7.5506,7.554,7.5535,7.5535,7.5566,7.5649,7.5739,7.5841,7.5856,7.5902,7.5955,7.597,7.5985,7.5969,7.5976,7.5976,7.5976,7.5976,7.5976,7.5976,7.5976,7.5976,7.5976,7.5976,7.5921,7.5553,7.5587,7.5245,7.4552,7.3767,7.272,7.1716,7.1512,7.203,7.2716,7.2695,7.2709,7.3586,7.3557,7.3565,7.3961,7.4557,7.4835,7.4873,7.5582,7.5856,7.5621,7.6288,7.664,7.668,7.7148,7.7187,7.7226,7.7226,7.7226,7.7226,7.7226,7.7226,7.7226,7.7226,7.7226,7.7187,7.6601,7.6719,7.6914,7.6758,7.6836,7.7031,7.7187,7.7226,7.7226,7.7226,7.7226,7.7226,7.7226,7.7226,7.7226,7.7226,7.7226,7.7226,7.7187,7.7186,7.7303,7.7339,7.7295,7.7291,7.7209,7.7085,7.7311,7.7499,7.7693,7.7612,7.7493,7.7687,7.7414,7.7492,7.7999,7.7531,7.6477,7.5969,7.5696,7.5071,7.4486,7.4798,7.4915,7.4408,7.3981,7.3947,7.3637,7.3209,7.2667,7.2127,7.5509,7.5518,7.5506,7.5549,7.5583,7.554,7.5574,7.5682,7.5755,7.5818,7.5925,7.5933,7.5955,7.6,7.5976,7.5976,7.5976,7.5976,7.5976,7.5976,7.5976,7.5976,7.5976,7.5984,7.5976,7.5998,7.6097,7.6068,7.6024,7.6299,7.5914,7.5223,7.4798,7.3941,7.3029,7.2824,7.3161,7.3789,7.3958,7.4094,7.4572,7.458,7.4432,7.4909,7.5384,7.5739,7.5896,7.6367,7.6953,7.6719,7.6836,7.7265,7.7265,7.7226,7.7226,7.7226,7.7226,7.7226,7.7226,7.7226,7.7226,7.7226,7.7226,7.7226,7.7148,7.6797,7.6836,7.6875,7.6562,7.6719,7.707,7.7226,7.7226,7.7226,7.7226,7.7226,7.7226,7.7226,7.7226,7.7226,7.7226,7.7226,7.7187,7.7186,7.7184,7.7337,7.7451,7.7483,7.7593,7.7705,7.7741,7.8006,7.8272,7.8547,7.882,7.8977,7.9209,7.9639,7.9678,7.9639,7.8936,7.7804,7.7296,7.6751,7.6203,7.5735,7.5579,7.5423,7.5345,7.511,7.4877,7.4448,7.3861,7.3242,7.2665,7.5518,7.5527,7.5566,7.5599,7.5608,7.5625,7.5715,7.5887,7.5887,7.594,7.5969,7.6,7.6007,7.5976,7.5976,7.5976,7.5976,7.5976,7.5976,7.5976,7.5976,7.5976,7.5998,7.602,7.6031,7.61,7.618,7.6299,7.6322,7.6488,7.623,7.6049,7.6052,7.5575,7.5142,7.5053,7.5137,7.5212,7.4953,7.5239,7.5677,7.5798,7.5768,7.6048,7.6247,7.6561,7.6836,7.7305,7.7422,7.7383,7.7422,7.7422,7.7344,7.7305,7.7305,7.7265,7.7344,7.7226,7.7226,7.7226,7.7226,7.7226,7.7226,7.7226,7.7187,7.707,7.707,7.7109,7.6992,7.707,7.7226,7.7226,7.7226,7.7226,7.7226,7.7226,7.7226,7.7226,7.7226,7.7226,7.7226,7.7187,7.7185,7.7182,7.7178,7.7329,7.7637,7.8217,7.8403,7.8906,7.8981,7.9097,7.9366,7.9639,7.9873,8.0107,8.0381,8.0693,8.042,8.0263,7.9639,7.9131,7.8507,7.7921,7.7414,7.6945,7.6438,7.6477,7.6711,7.6438,7.5852,7.5345,7.4759,7.429,7.3867,7.5599,7.5658,7.5616,7.5666,7.5825,7.5879,7.5902,7.5902,7.5948,7.6,7.5976,7.5976,7.5976,7.5976,7.5976,7.5976,7.5976,7.5976,7.5976,7.5976,7.5976,7.5976,7.6055,7.6133,7.6173,7.6297,7.6394,7.6609,7.6612,7.6712,7.7323,7.7536,7.7482,7.7609,7.7841,7.8071,7.7106,7.6292,7.5752,7.6071,7.643,7.6356,7.6479,7.656,7.6991,7.7344,7.789,7.8086,7.8281,7.8789,7.8906,7.8984,7.8984,7.8945,7.8867,7.8086,7.7656,7.7226,7.7226,7.7226,7.7226,7.7226,7.7226,7.7226,7.7226,7.7226,7.7226,7.7226,7.7226,7.7226,7.7226,7.7226,7.7226,7.7226,7.7226,7.7226,7.7226,7.7226,7.7226,7.7187,7.7187,7.7184,7.7141,7.7136,7.7169,7.7357,7.7781,7.8479,7.9139,7.9603,8.0068,8.0185,8.0381,8.0576,8.0888,8.1122,8.1396,8.163,8.1317,8.1005,8.0654,8.0148,7.9562,7.8819,7.796,7.7453,7.7023,7.7101,7.7101,7.7101,7.6633,7.6164,7.5697,7.5266,7.4876,7.5644,7.5692,7.5707,7.5779,7.5933,7.5993,7.5985,7.5955,7.5993,7.5976,7.5976,7.5976,7.5976,7.5976,7.5976,7.5976,7.5976,7.5976,7.5976,7.5976,7.5991,7.6045,7.6115,7.6254,7.6322,7.6501,7.6881,7.7303,7.7301,7.7787,7.8394,7.877,7.8901,7.9218,7.9377,7.9229,7.8731,7.7796,7.7133,7.7019,7.7101,7.7301,7.738,7.7383,7.793,7.8398,7.8867,7.8945,7.9297,7.9648,7.9687,7.9687,7.9687,7.9648,7.957,7.8906,7.8633,7.8125,7.793,7.7812,7.7539,7.7305,7.7265,7.7226,7.7226,7.7226,7.7226,7.7226,7.7226,7.7226,7.7226,7.7226,7.7226,7.7226,7.7226,7.7226,7.7226,7.7226,7.7187,7.7148,7.7144,7.714,7.7134,7.7088,7.7159,7.7348,7.7851,7.8669,7.9408,8.007,8.0693,8.1161,8.1317,8.1513,8.1786,8.1864,8.1942,8.202,8.1981,8.1708,8.1513,8.0929,8.0185,7.9248,7.8311,7.7882,7.7609,7.7179,7.7101,7.7101,7.7101,7.6711,7.6399,7.6242,7.5891,7.5708,7.5724,7.5833,7.5933,7.5969,7.5976,7.5976,7.5976,7.5976,7.5976,7.5976,7.5976,7.5976,7.5976,7.5976,7.5976,7.5976,7.5976,7.5976,7.5991,7.6076,7.614,7.6248,7.6466,7.6842,7.7139,7.7598,7.8267,7.8489,7.8852,7.9278,7.9759,7.9772,8.0013,8.0288,8.0337,8.0069,7.9837,7.9486,7.9447,7.9293,7.9529,7.9726,7.9531,7.9531,7.9648,7.9765,7.9805,7.9844,7.9883,8.0,8.0117,8.0156,7.9961,7.9883,7.9687,7.9492,7.9101,7.8711,7.8594,7.8203,7.7851,7.7422,7.7539,7.7656,7.7305,7.7226,7.7226,7.7226,7.7226,7.7226,7.7226,7.7226,7.7226,7.7226,7.7226,7.7226,7.7186,7.7144,7.7141,7.7098,7.7093,7.7085,7.7076,7.7075,7.7262,7.761,7.8468,7.9326,8.0107,8.1005,8.1708,8.1903,8.1981,8.2059,8.2137,8.2214,8.2292,8.2292,8.2253,8.1942,8.1356,8.0732,7.9912,7.9092,7.8585,7.8235,7.7804,7.7375,7.7101,7.7101,7.7101,7.6984,7.6828,7.6711,7.5864,7.5924,7.5978,7.6,7.5976,7.5976,7.5976,7.5976,7.5976,7.5976,7.5976,7.5976,7.5976,7.5976,7.5976,7.5976,7.5976,7.5976,7.5976,7.6129,7.6185,7.646,7.6615,7.7265,7.7594,7.8036,7.866,7.9334,7.9535,7.9795,8.0124,8.0634,8.0722,8.0883,8.1391,8.1399,8.1403,8.1326,8.1326,8.0781,8.0078,7.9805,7.9726,7.9765,7.9844,8.0234,8.0429,8.0703,8.1094,8.1523,8.164,8.1719,8.1719,8.1054,8.0742,8.0586,8.0195,7.9844,7.957,7.9414,7.918,7.914,7.8906,7.8633,7.8242,7.7617,7.7265,7.7265,7.7226,7.7226,7.7226,7.7226,7.7226,7.7226,7.7226,7.7226,7.7225,7.7182,7.7137,7.7093,7.7088,7.7082,7.7072,7.7107,7.7104,7.7103,7.7142,7.7726,7.8663,7.9522,8.0771,8.1513,8.2098,8.2253,8.2292,8.2292,8.2292,8.2292,8.2292,8.2292,8.2292,8.1747,8.1122,8.0654,8.0068,7.9522,7.8938,7.8352,7.7921,7.7492,7.7101,7.7101,7.7101,7.6984,7.7023,7.597,7.5976,7.5976,7.5976,7.5976,7.5976,7.5976,7.5976,7.5976,7.5976,7.5976,7.5976,7.5976,7.5976,7.5976,7.5976,7.5976,7.5976,7.6059,7.6218,7.671,7.6979,7.7473,7.814,7.8573,7.903,7.9818,8.0389,8.0665,8.0911,8.127,8.1506,8.159,8.179,8.2298,8.2302,8.2304,8.2265,8.2304,8.1719,8.0742,8.0781,8.0859,8.0859,8.0937,8.1172,8.1289,8.1562,8.1836,8.2148,8.2187,8.2187,8.2109,8.1797,8.1601,8.1484,8.1172,8.0703,8.0429,8.0234,8.0117,8.0,7.9765,7.9219,7.914,7.8555,7.7851,7.7773,7.7305,7.7226,7.7226,7.7226,7.7226,7.7226,7.7187,7.7187,7.718,7.7133,7.7086,7.7117,7.7075,7.7072,7.7104,7.7104,7.7103,7.7103,7.7101,7.7414,7.8233,7.8975,8.0224,8.1239,8.1786,8.2214,8.2292,8.2292,8.2292,8.2292,8.2292,8.2292,8.2253,8.1942,8.1513,8.1239,8.0888,8.0343,7.9757,7.9133,7.8469,7.8001,7.7492,7.7101,7.7101,7.7101,7.7101,7.5976,7.5976,7.5976,7.5976,7.5976,7.5976,7.5976,7.5976,7.5976,7.5976,7.5976,7.5976,7.5976,7.5976,7.5976,7.5976,7.6089,7.6405,7.6424,7.6749,7.7473,7.7873,7.8465,7.913,7.9702,8.0211,8.0864,8.1495,8.1966,8.1976,8.1982,8.2257,8.2299,8.2302,8.2304,8.2304,8.2304,8.2304,8.2304,8.2304,8.2265,8.2304,8.2109,8.2187,8.2304,8.2304,8.2304,8.2265,8.2265,8.2304,8.2304,8.2304,8.2304,8.2187,8.2187,8.207,8.2031,8.1601,8.1328,8.1172,8.0781,8.039,8.0078,7.9961,7.9961,7.9531,7.8828,7.8281,7.7812,7.7461,7.7461,7.7265,7.7265,7.7226,7.7226,7.7297,7.725,7.7161,7.7073,7.7103,7.7103,7.7101,7.7101,7.7101,7.7101,7.7101,7.7257,7.761,7.8079,7.8702,7.96,8.0576,8.1317,8.1708,8.2175,8.2292,8.2292,8.2292,8.2292,8.2292,8.2253,8.2059,8.1981,8.2019,8.163,8.1083,8.0499,7.9875,7.9211,7.8508,7.8001,7.7532,7.7101,7.7101,7.7101,7.5976,7.5976,7.5976,7.5976,7.5976,7.5976,7.5976,7.5976,7.5976,7.5976,7.6015,7.6015,7.5976,7.6015,7.5976,7.6082,7.636,7.6842,7.7253,7.7504,7.8483,7.8954,7.9442,8.0177,8.1038,8.149,8.1776,8.2093,8.2291,8.2297,8.23,8.2301,8.2304,8.2304,8.2304,8.2304,8.2304,8.2304,8.2304,8.2304,8.2304,8.2304,8.2304,8.2304,8.2304,8.2304,8.2304,8.2304,8.2304,8.2304,8.2304,8.2304,8.2304,8.2304,8.2304,8.2304,8.2304,8.2187,8.1875,8.1836,8.1484,8.1523,8.1328,8.1172,8.1015,8.0742,8.0078,7.9492,7.8984,7.8437,7.8242,7.7695,7.7539,7.7344,7.7265,7.7562,7.7708,7.7348,7.7106,7.7101,7.7101,7.7101,7.7101,7.7101,7.7101,7.7101,7.7101,7.7414,7.7532,7.8233,7.9092,7.9951,8.0888,8.1552,8.2136,8.2292,8.2292,8.2292,8.2292,8.2292,8.2292,8.2292,8.2292,8.2253,8.2137,8.1708,8.1161,8.0576,7.9835,7.9133,7.8586,7.8079,7.7531,7.7179,7.7296]}]]